<?xml version="1.0" encoding="UTF-8" standalone="no" ?>
<gpx xmlns="http://www.topografix.com/GPX/1/1" xmlns:xsi="http://www.w3.org/2001/XMLSchema-instance" xsi:schemaLocation="http://www.topografix.com/GPX/1/1 http://www.topografix.com/GPX/1/1/gpx.xsd" version="1.1" creator="VisuGPX - https://www.visugpx.com">
  <metadata>
    <name>MtVERNOIS_20130609</name>
    <desc><![CDATA[Rando sympa pour un dimanche matin]]></desc>
  </metadata>
  <trk>
    <name><![CDATA[20130609_MtVERNOIS]]></name>
    <trkseg>
      <trkpt lat="47.51802" lon="6.77477">
        <ele>424</ele>
        <time>2013-06-09T07:13:49.719Z</time>
      </trkpt>
      <trkpt lat="47.51803" lon="6.77481">
        <ele>422</ele>
        <time>2013-06-09T07:13:54.690Z</time>
      </trkpt>
      <trkpt lat="47.51801" lon="6.77485">
        <ele>422</ele>
        <time>2013-06-09T07:13:59.690Z</time>
      </trkpt>
      <trkpt lat="47.51803" lon="6.77484">
        <ele>422</ele>
        <time>2013-06-09T07:14:04.692Z</time>
      </trkpt>
      <trkpt lat="47.518" lon="6.77482">
        <ele>422</ele>
        <time>2013-06-09T07:14:09.701Z</time>
      </trkpt>
      <trkpt lat="47.518" lon="6.77485">
        <ele>422</ele>
        <time>2013-06-09T07:14:14.776Z</time>
      </trkpt>
      <trkpt lat="47.51801" lon="6.77484">
        <ele>422</ele>
        <time>2013-06-09T07:14:19.693Z</time>
      </trkpt>
      <trkpt lat="47.51803" lon="6.77481">
        <ele>422</ele>
        <time>2013-06-09T07:14:24.785Z</time>
      </trkpt>
      <trkpt lat="47.51802" lon="6.77482">
        <ele>422</ele>
        <time>2013-06-09T07:14:29.690Z</time>
      </trkpt>
      <trkpt lat="47.51801" lon="6.77484">
        <ele>422</ele>
        <time>2013-06-09T07:14:34.692Z</time>
      </trkpt>
      <trkpt lat="47.51802" lon="6.77485">
        <ele>422</ele>
        <time>2013-06-09T07:14:39.707Z</time>
      </trkpt>
      <trkpt lat="47.51804" lon="6.77487">
        <ele>422</ele>
        <time>2013-06-09T07:14:44.691Z</time>
      </trkpt>
      <trkpt lat="47.51802" lon="6.77489">
        <ele>422</ele>
        <time>2013-06-09T07:14:49.691Z</time>
      </trkpt>
      <trkpt lat="47.51803" lon="6.77489">
        <ele>422</ele>
        <time>2013-06-09T07:14:54.695Z</time>
      </trkpt>
      <trkpt lat="47.51804" lon="6.77491">
        <ele>422</ele>
        <time>2013-06-09T07:15:34.687Z</time>
      </trkpt>
      <trkpt lat="47.51807" lon="6.77488">
        <ele>422</ele>
        <time>2013-06-09T07:15:39.701Z</time>
      </trkpt>
      <trkpt lat="47.51804" lon="6.77487">
        <ele>422</ele>
        <time>2013-06-09T07:15:44.686Z</time>
      </trkpt>
      <trkpt lat="47.51803" lon="6.77489">
        <ele>422</ele>
        <time>2013-06-09T07:15:49.689Z</time>
      </trkpt>
      <trkpt lat="47.51803" lon="6.77488">
        <ele>422</ele>
        <time>2013-06-09T07:15:54.689Z</time>
      </trkpt>
      <trkpt lat="47.51808" lon="6.77489">
        <ele>422</ele>
        <time>2013-06-09T07:15:59.692Z</time>
      </trkpt>
      <trkpt lat="47.51804" lon="6.77496">
        <ele>422</ele>
        <time>2013-06-09T07:16:04.694Z</time>
      </trkpt>
      <trkpt lat="47.51786" lon="6.77489">
        <ele>441</ele>
        <time>2013-06-09T07:16:09.705Z</time>
      </trkpt>
      <trkpt lat="47.51768" lon="6.77485">
        <ele>440</ele>
        <time>2013-06-09T07:16:14.693Z</time>
      </trkpt>
      <trkpt lat="47.51751" lon="6.77479">
        <ele>438</ele>
        <time>2013-06-09T07:16:19.696Z</time>
      </trkpt>
      <trkpt lat="47.51733" lon="6.77484">
        <ele>439</ele>
        <time>2013-06-09T07:16:24.695Z</time>
      </trkpt>
      <trkpt lat="47.51727" lon="6.77513">
        <ele>438</ele>
        <time>2013-06-09T07:16:29.696Z</time>
      </trkpt>
      <trkpt lat="47.51719" lon="6.77537">
        <ele>439</ele>
        <time>2013-06-09T07:16:34.741Z</time>
      </trkpt>
      <trkpt lat="47.51708" lon="6.77551">
        <ele>438</ele>
        <time>2013-06-09T07:16:39.706Z</time>
      </trkpt>
      <trkpt lat="47.51688" lon="6.77531">
        <ele>438</ele>
        <time>2013-06-09T07:16:44.677Z</time>
      </trkpt>
      <trkpt lat="47.51666" lon="6.77506">
        <ele>438</ele>
        <time>2013-06-09T07:16:49.676Z</time>
      </trkpt>
      <trkpt lat="47.51619" lon="6.7745">
        <ele>437</ele>
        <time>2013-06-09T07:16:59.764Z</time>
      </trkpt>
      <trkpt lat="47.51593" lon="6.77418">
        <ele>436</ele>
        <time>2013-06-09T07:17:04.698Z</time>
      </trkpt>
      <trkpt lat="47.51563" lon="6.77384">
        <ele>435</ele>
        <time>2013-06-09T07:17:09.707Z</time>
      </trkpt>
      <trkpt lat="47.51531" lon="6.77345">
        <ele>432</ele>
        <time>2013-06-09T07:17:14.696Z</time>
      </trkpt>
      <trkpt lat="47.51498" lon="6.77303">
        <ele>429</ele>
        <time>2013-06-09T07:17:19.693Z</time>
      </trkpt>
      <trkpt lat="47.51488" lon="6.77257">
        <ele>427</ele>
        <time>2013-06-09T07:17:24.691Z</time>
      </trkpt>
      <trkpt lat="47.51485" lon="6.7721">
        <ele>426</ele>
        <time>2013-06-09T07:17:29.692Z</time>
      </trkpt>
      <trkpt lat="47.5146" lon="6.77202">
        <ele>426</ele>
        <time>2013-06-09T07:17:34.696Z</time>
      </trkpt>
      <trkpt lat="47.51421" lon="6.77222">
        <ele>425</ele>
        <time>2013-06-09T07:17:39.702Z</time>
      </trkpt>
      <trkpt lat="47.51391" lon="6.77239">
        <ele>424</ele>
        <time>2013-06-09T07:17:44.694Z</time>
      </trkpt>
      <trkpt lat="47.51367" lon="6.77257">
        <ele>425</ele>
        <time>2013-06-09T07:17:49.691Z</time>
      </trkpt>
      <trkpt lat="47.51351" lon="6.77271">
        <ele>426</ele>
        <time>2013-06-09T07:17:54.693Z</time>
      </trkpt>
      <trkpt lat="47.51335" lon="6.77282">
        <ele>428</ele>
        <time>2013-06-09T07:17:59.695Z</time>
      </trkpt>
      <trkpt lat="47.51316" lon="6.77281">
        <ele>428</ele>
        <time>2013-06-09T07:18:04.691Z</time>
      </trkpt>
      <trkpt lat="47.51297" lon="6.7727">
        <ele>430</ele>
        <time>2013-06-09T07:18:09.704Z</time>
      </trkpt>
      <trkpt lat="47.51278" lon="6.7726">
        <ele>430</ele>
        <time>2013-06-09T07:18:14.699Z</time>
      </trkpt>
      <trkpt lat="47.5126" lon="6.77241">
        <ele>430</ele>
        <time>2013-06-09T07:18:19.696Z</time>
      </trkpt>
      <trkpt lat="47.51241" lon="6.77209">
        <ele>431</ele>
        <time>2013-06-09T07:18:24.694Z</time>
      </trkpt>
      <trkpt lat="47.51223" lon="6.77174">
        <ele>431</ele>
        <time>2013-06-09T07:18:29.691Z</time>
      </trkpt>
      <trkpt lat="47.51203" lon="6.77136">
        <ele>431</ele>
        <time>2013-06-09T07:18:34.690Z</time>
      </trkpt>
      <trkpt lat="47.51181" lon="6.77096">
        <ele>431</ele>
        <time>2013-06-09T07:18:39.711Z</time>
      </trkpt>
      <trkpt lat="47.51157" lon="6.77059">
        <ele>430</ele>
        <time>2013-06-09T07:18:44.694Z</time>
      </trkpt>
      <trkpt lat="47.51129" lon="6.77034">
        <ele>429</ele>
        <time>2013-06-09T07:18:49.691Z</time>
      </trkpt>
      <trkpt lat="47.51104" lon="6.77011">
        <ele>429</ele>
        <time>2013-06-09T07:18:54.693Z</time>
      </trkpt>
      <trkpt lat="47.51078" lon="6.76988">
        <ele>428</ele>
        <time>2013-06-09T07:18:59.696Z</time>
      </trkpt>
      <trkpt lat="47.5105" lon="6.76963">
        <ele>429</ele>
        <time>2013-06-09T07:19:04.696Z</time>
      </trkpt>
      <trkpt lat="47.51023" lon="6.76941">
        <ele>429</ele>
        <time>2013-06-09T07:19:09.715Z</time>
      </trkpt>
      <trkpt lat="47.51" lon="6.76924">
        <ele>427</ele>
        <time>2013-06-09T07:19:14.695Z</time>
      </trkpt>
      <trkpt lat="47.50978" lon="6.76906">
        <ele>427</ele>
        <time>2013-06-09T07:19:19.696Z</time>
      </trkpt>
      <trkpt lat="47.50959" lon="6.7689">
        <ele>426</ele>
        <time>2013-06-09T07:19:24.698Z</time>
      </trkpt>
      <trkpt lat="47.50941" lon="6.76871">
        <ele>427</ele>
        <time>2013-06-09T07:19:29.701Z</time>
      </trkpt>
      <trkpt lat="47.50925" lon="6.76847">
        <ele>427</ele>
        <time>2013-06-09T07:19:34.696Z</time>
      </trkpt>
      <trkpt lat="47.50913" lon="6.7682">
        <ele>427</ele>
        <time>2013-06-09T07:19:39.707Z</time>
      </trkpt>
      <trkpt lat="47.50902" lon="6.76792">
        <ele>427</ele>
        <time>2013-06-09T07:19:44.696Z</time>
      </trkpt>
      <trkpt lat="47.50891" lon="6.76766">
        <ele>428</ele>
        <time>2013-06-09T07:19:49.694Z</time>
      </trkpt>
      <trkpt lat="47.50881" lon="6.76738">
        <ele>429</ele>
        <time>2013-06-09T07:19:54.699Z</time>
      </trkpt>
      <trkpt lat="47.50813" lon="6.76591">
        <ele>437</ele>
        <time>2013-06-09T07:20:34.706Z</time>
      </trkpt>
      <trkpt lat="47.50803" lon="6.76587">
        <ele>438</ele>
        <time>2013-06-09T07:20:39.712Z</time>
      </trkpt>
      <trkpt lat="47.50791" lon="6.7659">
        <ele>437</ele>
        <time>2013-06-09T07:20:44.696Z</time>
      </trkpt>
      <trkpt lat="47.50778" lon="6.76592">
        <ele>439</ele>
        <time>2013-06-09T07:20:49.693Z</time>
      </trkpt>
      <trkpt lat="47.50763" lon="6.76595">
        <ele>441</ele>
        <time>2013-06-09T07:20:54.701Z</time>
      </trkpt>
      <trkpt lat="47.50749" lon="6.76595">
        <ele>441</ele>
        <time>2013-06-09T07:20:59.696Z</time>
      </trkpt>
      <trkpt lat="47.50733" lon="6.76594">
        <ele>442</ele>
        <time>2013-06-09T07:21:04.697Z</time>
      </trkpt>
      <trkpt lat="47.50719" lon="6.76592">
        <ele>442</ele>
        <time>2013-06-09T07:21:09.707Z</time>
      </trkpt>
      <trkpt lat="47.50705" lon="6.7659">
        <ele>443</ele>
        <time>2013-06-09T07:21:14.694Z</time>
      </trkpt>
      <trkpt lat="47.5069" lon="6.7659">
        <ele>445</ele>
        <time>2013-06-09T07:21:19.694Z</time>
      </trkpt>
      <trkpt lat="47.50675" lon="6.76593">
        <ele>446</ele>
        <time>2013-06-09T07:21:24.991Z</time>
      </trkpt>
      <trkpt lat="47.5066" lon="6.76596">
        <ele>447</ele>
        <time>2013-06-09T07:21:29.701Z</time>
      </trkpt>
      <trkpt lat="47.50644" lon="6.766">
        <ele>448</ele>
        <time>2013-06-09T07:21:34.696Z</time>
      </trkpt>
      <trkpt lat="47.5063" lon="6.76608">
        <ele>448</ele>
        <time>2013-06-09T07:21:39.705Z</time>
      </trkpt>
      <trkpt lat="47.50603" lon="6.76623">
        <ele>448</ele>
        <time>2013-06-09T07:21:49.702Z</time>
      </trkpt>
      <trkpt lat="47.50588" lon="6.76627">
        <ele>449</ele>
        <time>2013-06-09T07:21:54.697Z</time>
      </trkpt>
      <trkpt lat="47.50574" lon="6.76632">
        <ele>449</ele>
        <time>2013-06-09T07:21:59.695Z</time>
      </trkpt>
      <trkpt lat="47.50442" lon="6.76675">
        <ele>448</ele>
        <time>2013-06-09T07:22:34.696Z</time>
      </trkpt>
      <trkpt lat="47.50422" lon="6.76683">
        <ele>448</ele>
        <time>2013-06-09T07:22:39.704Z</time>
      </trkpt>
      <trkpt lat="47.50402" lon="6.76691">
        <ele>447</ele>
        <time>2013-06-09T07:22:44.693Z</time>
      </trkpt>
      <trkpt lat="47.50383" lon="6.76703">
        <ele>447</ele>
        <time>2013-06-09T07:22:49.690Z</time>
      </trkpt>
      <trkpt lat="47.50363" lon="6.76711">
        <ele>447</ele>
        <time>2013-06-09T07:22:54.691Z</time>
      </trkpt>
      <trkpt lat="47.50346" lon="6.7672">
        <ele>448</ele>
        <time>2013-06-09T07:22:59.694Z</time>
      </trkpt>
      <trkpt lat="47.5033" lon="6.76725">
        <ele>447</ele>
        <time>2013-06-09T07:23:04.695Z</time>
      </trkpt>
      <trkpt lat="47.50312" lon="6.76731">
        <ele>446</ele>
        <time>2013-06-09T07:23:09.705Z</time>
      </trkpt>
      <trkpt lat="47.50295" lon="6.76734">
        <ele>445</ele>
        <time>2013-06-09T07:23:14.692Z</time>
      </trkpt>
      <trkpt lat="47.50279" lon="6.76739">
        <ele>445</ele>
        <time>2013-06-09T07:23:19.694Z</time>
      </trkpt>
      <trkpt lat="47.50266" lon="6.76743">
        <ele>445</ele>
        <time>2013-06-09T07:23:24.694Z</time>
      </trkpt>
      <trkpt lat="47.50253" lon="6.76747">
        <ele>446</ele>
        <time>2013-06-09T07:23:29.691Z</time>
      </trkpt>
      <trkpt lat="47.50243" lon="6.76736">
        <ele>446</ele>
        <time>2013-06-09T07:23:34.678Z</time>
      </trkpt>
      <trkpt lat="47.50235" lon="6.76719">
        <ele>446</ele>
        <time>2013-06-09T07:23:39.703Z</time>
      </trkpt>
      <trkpt lat="47.50227" lon="6.76697">
        <ele>447</ele>
        <time>2013-06-09T07:23:44.693Z</time>
      </trkpt>
      <trkpt lat="47.50219" lon="6.76677">
        <ele>447</ele>
        <time>2013-06-09T07:23:49.690Z</time>
      </trkpt>
      <trkpt lat="47.50213" lon="6.76653">
        <ele>446</ele>
        <time>2013-06-09T07:23:54.690Z</time>
      </trkpt>
      <trkpt lat="47.50221" lon="6.7654">
        <ele>446</ele>
        <time>2013-06-09T07:24:34.690Z</time>
      </trkpt>
      <trkpt lat="47.50213" lon="6.76511">
        <ele>444</ele>
        <time>2013-06-09T07:24:39.696Z</time>
      </trkpt>
      <trkpt lat="47.502" lon="6.76474">
        <ele>444</ele>
        <time>2013-06-09T07:24:44.681Z</time>
      </trkpt>
      <trkpt lat="47.50188" lon="6.76435">
        <ele>446</ele>
        <time>2013-06-09T07:24:49.688Z</time>
      </trkpt>
      <trkpt lat="47.5018" lon="6.76403">
        <ele>444</ele>
        <time>2013-06-09T07:24:54.686Z</time>
      </trkpt>
      <trkpt lat="47.50167" lon="6.76373">
        <ele>444</ele>
        <time>2013-06-09T07:24:59.685Z</time>
      </trkpt>
      <trkpt lat="47.50158" lon="6.76344">
        <ele>444</ele>
        <time>2013-06-09T07:25:04.691Z</time>
      </trkpt>
      <trkpt lat="47.50149" lon="6.76315">
        <ele>441</ele>
        <time>2013-06-09T07:25:09.699Z</time>
      </trkpt>
      <trkpt lat="47.50143" lon="6.76281">
        <ele>438</ele>
        <time>2013-06-09T07:25:14.692Z</time>
      </trkpt>
      <trkpt lat="47.50139" lon="6.76256">
        <ele>438</ele>
        <time>2013-06-09T07:25:19.687Z</time>
      </trkpt>
      <trkpt lat="47.50133" lon="6.76212">
        <ele>437</ele>
        <time>2013-06-09T07:25:24.688Z</time>
      </trkpt>
      <trkpt lat="47.50129" lon="6.76174">
        <ele>436</ele>
        <time>2013-06-09T07:25:29.676Z</time>
      </trkpt>
      <trkpt lat="47.5012" lon="6.76086">
        <ele>434</ele>
        <time>2013-06-09T07:25:39.699Z</time>
      </trkpt>
      <trkpt lat="47.50117" lon="6.76042">
        <ele>431</ele>
        <time>2013-06-09T07:25:44.687Z</time>
      </trkpt>
      <trkpt lat="47.50097" lon="6.75994">
        <ele>427</ele>
        <time>2013-06-09T07:25:49.688Z</time>
      </trkpt>
      <trkpt lat="47.50077" lon="6.75958">
        <ele>427</ele>
        <time>2013-06-09T07:25:54.689Z</time>
      </trkpt>
      <trkpt lat="47.50052" lon="6.75925">
        <ele>427</ele>
        <time>2013-06-09T07:25:59.691Z</time>
      </trkpt>
      <trkpt lat="47.4991" lon="6.75722">
        <ele>426</ele>
        <time>2013-06-09T07:26:34.692Z</time>
      </trkpt>
      <trkpt lat="47.49883" lon="6.75724">
        <ele>424</ele>
        <time>2013-06-09T07:26:39.700Z</time>
      </trkpt>
      <trkpt lat="47.49853" lon="6.75737">
        <ele>422</ele>
        <time>2013-06-09T07:26:44.698Z</time>
      </trkpt>
      <trkpt lat="47.49818" lon="6.75743">
        <ele>420</ele>
        <time>2013-06-09T07:26:49.689Z</time>
      </trkpt>
      <trkpt lat="47.49781" lon="6.75748">
        <ele>417</ele>
        <time>2013-06-09T07:26:54.689Z</time>
      </trkpt>
      <trkpt lat="47.49746" lon="6.75758">
        <ele>414</ele>
        <time>2013-06-09T07:26:59.692Z</time>
      </trkpt>
      <trkpt lat="47.49714" lon="6.75768">
        <ele>412</ele>
        <time>2013-06-09T07:27:04.686Z</time>
      </trkpt>
      <trkpt lat="47.49678" lon="6.75778">
        <ele>410</ele>
        <time>2013-06-09T07:27:09.694Z</time>
      </trkpt>
      <trkpt lat="47.4964" lon="6.75778">
        <ele>409</ele>
        <time>2013-06-09T07:27:14.697Z</time>
      </trkpt>
      <trkpt lat="47.4961" lon="6.75778">
        <ele>406</ele>
        <time>2013-06-09T07:27:19.699Z</time>
      </trkpt>
      <trkpt lat="47.49586" lon="6.75776">
        <ele>403</ele>
        <time>2013-06-09T07:27:24.698Z</time>
      </trkpt>
      <trkpt lat="47.49564" lon="6.75775">
        <ele>401</ele>
        <time>2013-06-09T07:27:29.686Z</time>
      </trkpt>
      <trkpt lat="47.49551" lon="6.75754">
        <ele>393</ele>
        <time>2013-06-09T07:27:34.681Z</time>
      </trkpt>
      <trkpt lat="47.49565" lon="6.75741">
        <ele>390</ele>
        <time>2013-06-09T07:27:39.690Z</time>
      </trkpt>
      <trkpt lat="47.49584" lon="6.75717">
        <ele>387</ele>
        <time>2013-06-09T07:27:44.679Z</time>
      </trkpt>
      <trkpt lat="47.49596" lon="6.7569">
        <ele>385</ele>
        <time>2013-06-09T07:27:49.681Z</time>
      </trkpt>
      <trkpt lat="47.49576" lon="6.75662">
        <ele>382</ele>
        <time>2013-06-09T07:27:54.686Z</time>
      </trkpt>
      <trkpt lat="47.49549" lon="6.75693">
        <ele>378</ele>
        <time>2013-06-09T07:27:59.686Z</time>
      </trkpt>
      <trkpt lat="47.49525" lon="6.7572">
        <ele>376</ele>
        <time>2013-06-09T07:28:04.693Z</time>
      </trkpt>
      <trkpt lat="47.49497" lon="6.75737">
        <ele>375</ele>
        <time>2013-06-09T07:28:09.701Z</time>
      </trkpt>
      <trkpt lat="47.49476" lon="6.75725">
        <ele>373</ele>
        <time>2013-06-09T07:28:14.684Z</time>
      </trkpt>
      <trkpt lat="47.49462" lon="6.75693">
        <ele>372</ele>
        <time>2013-06-09T07:28:20.259Z</time>
      </trkpt>
      <trkpt lat="47.49442" lon="6.75694">
        <ele>371</ele>
        <time>2013-06-09T07:28:24.689Z</time>
      </trkpt>
      <trkpt lat="47.4943" lon="6.75667">
        <ele>371</ele>
        <time>2013-06-09T07:28:29.698Z</time>
      </trkpt>
      <trkpt lat="47.4941" lon="6.75679">
        <ele>370</ele>
        <time>2013-06-09T07:28:34.695Z</time>
      </trkpt>
      <trkpt lat="47.49385" lon="6.75698">
        <ele>370</ele>
        <time>2013-06-09T07:28:39.703Z</time>
      </trkpt>
      <trkpt lat="47.49366" lon="6.75717">
        <ele>370</ele>
        <time>2013-06-09T07:28:44.690Z</time>
      </trkpt>
      <trkpt lat="47.49355" lon="6.75727">
        <ele>369</ele>
        <time>2013-06-09T07:28:49.801Z</time>
      </trkpt>
      <trkpt lat="47.49332" lon="6.7574">
        <ele>369</ele>
        <time>2013-06-09T07:28:54.690Z</time>
      </trkpt>
      <trkpt lat="47.49309" lon="6.7576">
        <ele>368</ele>
        <time>2013-06-09T07:28:59.690Z</time>
      </trkpt>
      <trkpt lat="47.49289" lon="6.75788">
        <ele>366</ele>
        <time>2013-06-09T07:29:04.694Z</time>
      </trkpt>
      <trkpt lat="47.49267" lon="6.7582">
        <ele>365</ele>
        <time>2013-06-09T07:29:09.700Z</time>
      </trkpt>
      <trkpt lat="47.49247" lon="6.75857">
        <ele>364</ele>
        <time>2013-06-09T07:29:14.690Z</time>
      </trkpt>
      <trkpt lat="47.49229" lon="6.7589">
        <ele>364</ele>
        <time>2013-06-09T07:29:19.697Z</time>
      </trkpt>
      <trkpt lat="47.49212" lon="6.75921">
        <ele>363</ele>
        <time>2013-06-09T07:29:24.685Z</time>
      </trkpt>
      <trkpt lat="47.49186" lon="6.75969">
        <ele>362</ele>
        <time>2013-06-09T07:29:29.699Z</time>
      </trkpt>
      <trkpt lat="47.49168" lon="6.76011">
        <ele>361</ele>
        <time>2013-06-09T07:29:34.687Z</time>
      </trkpt>
      <trkpt lat="47.49153" lon="6.76054">
        <ele>359</ele>
        <time>2013-06-09T07:29:39.695Z</time>
      </trkpt>
      <trkpt lat="47.49142" lon="6.76097">
        <ele>359</ele>
        <time>2013-06-09T07:29:44.683Z</time>
      </trkpt>
      <trkpt lat="47.49132" lon="6.7614">
        <ele>359</ele>
        <time>2013-06-09T07:29:49.686Z</time>
      </trkpt>
      <trkpt lat="47.49127" lon="6.76187">
        <ele>358</ele>
        <time>2013-06-09T07:29:54.687Z</time>
      </trkpt>
      <trkpt lat="47.49153" lon="6.76521">
        <ele>357</ele>
        <time>2013-06-09T07:30:34.691Z</time>
      </trkpt>
      <trkpt lat="47.4918" lon="6.76505">
        <ele>359</ele>
        <time>2013-06-09T07:30:39.705Z</time>
      </trkpt>
      <trkpt lat="47.4919" lon="6.76489">
        <ele>359</ele>
        <time>2013-06-09T07:30:44.690Z</time>
      </trkpt>
      <trkpt lat="47.4919" lon="6.76464">
        <ele>359</ele>
        <time>2013-06-09T07:30:49.688Z</time>
      </trkpt>
      <trkpt lat="47.49202" lon="6.76455">
        <ele>361</ele>
        <time>2013-06-09T07:30:54.693Z</time>
      </trkpt>
      <trkpt lat="47.49226" lon="6.76458">
        <ele>362</ele>
        <time>2013-06-09T07:30:59.690Z</time>
      </trkpt>
      <trkpt lat="47.4923" lon="6.7648">
        <ele>361</ele>
        <time>2013-06-09T07:31:04.690Z</time>
      </trkpt>
      <trkpt lat="47.49231" lon="6.76494">
        <ele>361</ele>
        <time>2013-06-09T07:31:09.700Z</time>
      </trkpt>
      <trkpt lat="47.49228" lon="6.76496">
        <ele>364</ele>
        <time>2013-06-09T07:31:14.686Z</time>
      </trkpt>
      <trkpt lat="47.49227" lon="6.76497">
        <ele>365</ele>
        <time>2013-06-09T07:31:19.686Z</time>
      </trkpt>
      <trkpt lat="47.49227" lon="6.76498">
        <ele>365</ele>
        <time>2013-06-09T07:31:24.692Z</time>
      </trkpt>
      <trkpt lat="47.49227" lon="6.76496">
        <ele>365</ele>
        <time>2013-06-09T07:31:29.690Z</time>
      </trkpt>
      <trkpt lat="47.49227" lon="6.76496">
        <ele>365</ele>
        <time>2013-06-09T07:31:34.693Z</time>
      </trkpt>
      <trkpt lat="47.49229" lon="6.76497">
        <ele>365</ele>
        <time>2013-06-09T07:31:39.700Z</time>
      </trkpt>
      <trkpt lat="47.49228" lon="6.76498">
        <ele>365</ele>
        <time>2013-06-09T07:31:44.693Z</time>
      </trkpt>
      <trkpt lat="47.49228" lon="6.76495">
        <ele>364</ele>
        <time>2013-06-09T07:31:49.691Z</time>
      </trkpt>
      <trkpt lat="47.49229" lon="6.76493">
        <ele>365</ele>
        <time>2013-06-09T07:31:54.675Z</time>
      </trkpt>
      <trkpt lat="47.49229" lon="6.7649">
        <ele>366</ele>
        <time>2013-06-09T07:32:04.673Z</time>
      </trkpt>
      <trkpt lat="47.49229" lon="6.7649">
        <ele>366</ele>
        <time>2013-06-09T07:32:09.689Z</time>
      </trkpt>
      <trkpt lat="47.49229" lon="6.76489">
        <ele>366</ele>
        <time>2013-06-09T07:32:14.693Z</time>
      </trkpt>
      <trkpt lat="47.49229" lon="6.7649">
        <ele>367</ele>
        <time>2013-06-09T07:32:19.691Z</time>
      </trkpt>
      <trkpt lat="47.49229" lon="6.7649">
        <ele>367</ele>
        <time>2013-06-09T07:32:24.672Z</time>
      </trkpt>
      <trkpt lat="47.49229" lon="6.7649">
        <ele>367</ele>
        <time>2013-06-09T07:32:29.672Z</time>
      </trkpt>
      <trkpt lat="47.49229" lon="6.7649">
        <ele>367</ele>
        <time>2013-06-09T07:32:34.673Z</time>
      </trkpt>
      <trkpt lat="47.49229" lon="6.76489">
        <ele>368</ele>
        <time>2013-06-09T07:32:39.682Z</time>
      </trkpt>
      <trkpt lat="47.49229" lon="6.7649">
        <ele>368</ele>
        <time>2013-06-09T07:32:44.695Z</time>
      </trkpt>
      <trkpt lat="47.4923" lon="6.76492">
        <ele>369</ele>
        <time>2013-06-09T07:32:49.684Z</time>
      </trkpt>
      <trkpt lat="47.4923" lon="6.76493">
        <ele>369</ele>
        <time>2013-06-09T07:32:54.700Z</time>
      </trkpt>
      <trkpt lat="47.49231" lon="6.7649">
        <ele>369</ele>
        <time>2013-06-09T07:32:59.693Z</time>
      </trkpt>
      <trkpt lat="47.49231" lon="6.76491">
        <ele>369</ele>
        <time>2013-06-09T07:33:04.697Z</time>
      </trkpt>
      <trkpt lat="47.49231" lon="6.76491">
        <ele>369</ele>
        <time>2013-06-09T07:33:09.706Z</time>
      </trkpt>
      <trkpt lat="47.49231" lon="6.76491">
        <ele>369</ele>
        <time>2013-06-09T07:33:14.691Z</time>
      </trkpt>
      <trkpt lat="47.49231" lon="6.76491">
        <ele>369</ele>
        <time>2013-06-09T07:33:19.700Z</time>
      </trkpt>
      <trkpt lat="47.49231" lon="6.76491">
        <ele>369</ele>
        <time>2013-06-09T07:33:24.700Z</time>
      </trkpt>
      <trkpt lat="47.49231" lon="6.76491">
        <ele>369</ele>
        <time>2013-06-09T07:33:29.693Z</time>
      </trkpt>
      <trkpt lat="47.49231" lon="6.76493">
        <ele>369</ele>
        <time>2013-06-09T07:33:34.701Z</time>
      </trkpt>
      <trkpt lat="47.49237" lon="6.76493">
        <ele>371</ele>
        <time>2013-06-09T07:33:39.703Z</time>
      </trkpt>
      <trkpt lat="47.49238" lon="6.76492">
        <ele>372</ele>
        <time>2013-06-09T07:33:44.673Z</time>
      </trkpt>
      <trkpt lat="47.49237" lon="6.76492">
        <ele>372</ele>
        <time>2013-06-09T07:33:49.686Z</time>
      </trkpt>
      <trkpt lat="47.49237" lon="6.76491">
        <ele>372</ele>
        <time>2013-06-09T07:33:54.694Z</time>
      </trkpt>
      <trkpt lat="47.49236" lon="6.76491">
        <ele>372</ele>
        <time>2013-06-09T07:33:59.696Z</time>
      </trkpt>
      <trkpt lat="47.49237" lon="6.76492">
        <ele>371</ele>
        <time>2013-06-09T07:34:04.694Z</time>
      </trkpt>
      <trkpt lat="47.49237" lon="6.76492">
        <ele>371</ele>
        <time>2013-06-09T07:34:09.707Z</time>
      </trkpt>
      <trkpt lat="47.49237" lon="6.76492">
        <ele>371</ele>
        <time>2013-06-09T07:34:14.698Z</time>
      </trkpt>
      <trkpt lat="47.49237" lon="6.76492">
        <ele>371</ele>
        <time>2013-06-09T07:34:19.701Z</time>
      </trkpt>
      <trkpt lat="47.49237" lon="6.76492">
        <ele>371</ele>
        <time>2013-06-09T07:34:24.710Z</time>
      </trkpt>
      <trkpt lat="47.49237" lon="6.76492">
        <ele>371</ele>
        <time>2013-06-09T07:34:29.696Z</time>
      </trkpt>
      <trkpt lat="47.49238" lon="6.76492">
        <ele>372</ele>
        <time>2013-06-09T07:34:34.683Z</time>
      </trkpt>
      <trkpt lat="47.49241" lon="6.76495">
        <ele>371</ele>
        <time>2013-06-09T07:34:39.705Z</time>
      </trkpt>
      <trkpt lat="47.4924" lon="6.76493">
        <ele>372</ele>
        <time>2013-06-09T07:34:44.693Z</time>
      </trkpt>
      <trkpt lat="47.4924" lon="6.76493">
        <ele>371</ele>
        <time>2013-06-09T07:34:49.695Z</time>
      </trkpt>
      <trkpt lat="47.4924" lon="6.76493">
        <ele>371</ele>
        <time>2013-06-09T07:34:54.687Z</time>
      </trkpt>
      <trkpt lat="47.4924" lon="6.76493">
        <ele>371</ele>
        <time>2013-06-09T07:34:59.695Z</time>
      </trkpt>
      <trkpt lat="47.4924" lon="6.76493">
        <ele>371</ele>
        <time>2013-06-09T07:35:04.697Z</time>
      </trkpt>
      <trkpt lat="47.4924" lon="6.76493">
        <ele>371</ele>
        <time>2013-06-09T07:35:09.709Z</time>
      </trkpt>
      <trkpt lat="47.49238" lon="6.76492">
        <ele>371</ele>
        <time>2013-06-09T07:35:14.695Z</time>
      </trkpt>
      <trkpt lat="47.49227" lon="6.76494">
        <ele>370</ele>
        <time>2013-06-09T07:35:19.692Z</time>
      </trkpt>
      <trkpt lat="47.49211" lon="6.76495">
        <ele>370</ele>
        <time>2013-06-09T07:35:24.695Z</time>
      </trkpt>
      <trkpt lat="47.49195" lon="6.76498">
        <ele>370</ele>
        <time>2013-06-09T07:35:29.694Z</time>
      </trkpt>
      <trkpt lat="47.4918" lon="6.76501">
        <ele>368</ele>
        <time>2013-06-09T07:35:34.694Z</time>
      </trkpt>
      <trkpt lat="47.49166" lon="6.76512">
        <ele>368</ele>
        <time>2013-06-09T07:35:39.708Z</time>
      </trkpt>
      <trkpt lat="47.4914" lon="6.76525">
        <ele>367</ele>
        <time>2013-06-09T07:35:44.695Z</time>
      </trkpt>
      <trkpt lat="47.4912" lon="6.76514">
        <ele>365</ele>
        <time>2013-06-09T07:35:49.692Z</time>
      </trkpt>
      <trkpt lat="47.49123" lon="6.76479">
        <ele>364</ele>
        <time>2013-06-09T07:35:54.704Z</time>
      </trkpt>
      <trkpt lat="47.49126" lon="6.76243">
        <ele>362</ele>
        <time>2013-06-09T07:36:29.683Z</time>
      </trkpt>
      <trkpt lat="47.4913" lon="6.76202">
        <ele>361</ele>
        <time>2013-06-09T07:36:34.692Z</time>
      </trkpt>
      <trkpt lat="47.4913" lon="6.7616">
        <ele>361</ele>
        <time>2013-06-09T07:36:39.697Z</time>
      </trkpt>
      <trkpt lat="47.49133" lon="6.76124">
        <ele>361</ele>
        <time>2013-06-09T07:36:44.686Z</time>
      </trkpt>
      <trkpt lat="47.49144" lon="6.76084">
        <ele>360</ele>
        <time>2013-06-09T07:36:49.674Z</time>
      </trkpt>
      <trkpt lat="47.49167" lon="6.76015">
        <ele>360</ele>
        <time>2013-06-09T07:36:59.692Z</time>
      </trkpt>
      <trkpt lat="47.49167" lon="6.76015">
        <ele>360</ele>
        <time>2013-06-09T07:36:59.692Z</time>
      </trkpt>
      <trkpt lat="47.49188" lon="6.75954">
        <ele>361</ele>
        <time>2013-06-09T07:37:09.698Z</time>
      </trkpt>
      <trkpt lat="47.49203" lon="6.7592">
        <ele>361</ele>
        <time>2013-06-09T07:37:14.672Z</time>
      </trkpt>
      <trkpt lat="47.49222" lon="6.75891">
        <ele>361</ele>
        <time>2013-06-09T07:37:19.692Z</time>
      </trkpt>
      <trkpt lat="47.49245" lon="6.75859">
        <ele>361</ele>
        <time>2013-06-09T07:37:24.694Z</time>
      </trkpt>
      <trkpt lat="47.49263" lon="6.7583">
        <ele>361</ele>
        <time>2013-06-09T07:37:29.694Z</time>
      </trkpt>
      <trkpt lat="47.49282" lon="6.75804">
        <ele>362</ele>
        <time>2013-06-09T07:37:34.701Z</time>
      </trkpt>
      <trkpt lat="47.49295" lon="6.75781">
        <ele>362</ele>
        <time>2013-06-09T07:37:39.706Z</time>
      </trkpt>
      <trkpt lat="47.49309" lon="6.75759">
        <ele>363</ele>
        <time>2013-06-09T07:37:44.702Z</time>
      </trkpt>
      <trkpt lat="47.49332" lon="6.75742">
        <ele>364</ele>
        <time>2013-06-09T07:37:49.702Z</time>
      </trkpt>
      <trkpt lat="47.49352" lon="6.7573">
        <ele>365</ele>
        <time>2013-06-09T07:37:54.703Z</time>
      </trkpt>
      <trkpt lat="47.49357" lon="6.75726">
        <ele>366</ele>
        <time>2013-06-09T07:37:59.705Z</time>
      </trkpt>
      <trkpt lat="47.49362" lon="6.75716">
        <ele>367</ele>
        <time>2013-06-09T07:38:04.706Z</time>
      </trkpt>
      <trkpt lat="47.49358" lon="6.75689">
        <ele>367</ele>
        <time>2013-06-09T07:38:09.709Z</time>
      </trkpt>
      <trkpt lat="47.49352" lon="6.75656">
        <ele>365</ele>
        <time>2013-06-09T07:38:14.696Z</time>
      </trkpt>
      <trkpt lat="47.49345" lon="6.75622">
        <ele>365</ele>
        <time>2013-06-09T07:38:19.695Z</time>
      </trkpt>
      <trkpt lat="47.49336" lon="6.75585">
        <ele>365</ele>
        <time>2013-06-09T07:38:24.695Z</time>
      </trkpt>
      <trkpt lat="47.49329" lon="6.7555">
        <ele>364</ele>
        <time>2013-06-09T07:38:29.702Z</time>
      </trkpt>
      <trkpt lat="47.49323" lon="6.75516">
        <ele>364</ele>
        <time>2013-06-09T07:38:34.692Z</time>
      </trkpt>
      <trkpt lat="47.49306" lon="6.75499">
        <ele>363</ele>
        <time>2013-06-09T07:38:39.703Z</time>
      </trkpt>
      <trkpt lat="47.49287" lon="6.75499">
        <ele>363</ele>
        <time>2013-06-09T07:38:44.692Z</time>
      </trkpt>
      <trkpt lat="47.49271" lon="6.75512">
        <ele>364</ele>
        <time>2013-06-09T07:38:49.692Z</time>
      </trkpt>
      <trkpt lat="47.49261" lon="6.75526">
        <ele>364</ele>
        <time>2013-06-09T07:38:54.692Z</time>
      </trkpt>
      <trkpt lat="47.49254" lon="6.75537">
        <ele>365</ele>
        <time>2013-06-09T07:38:59.689Z</time>
      </trkpt>
      <trkpt lat="47.49253" lon="6.75522">
        <ele>365</ele>
        <time>2013-06-09T07:39:04.694Z</time>
      </trkpt>
      <trkpt lat="47.4926" lon="6.75504">
        <ele>365</ele>
        <time>2013-06-09T07:39:09.701Z</time>
      </trkpt>
      <trkpt lat="47.49263" lon="6.75485">
        <ele>366</ele>
        <time>2013-06-09T07:39:14.691Z</time>
      </trkpt>
      <trkpt lat="47.49263" lon="6.75464">
        <ele>367</ele>
        <time>2013-06-09T07:39:19.692Z</time>
      </trkpt>
      <trkpt lat="47.49265" lon="6.75441">
        <ele>367</ele>
        <time>2013-06-09T07:39:24.692Z</time>
      </trkpt>
      <trkpt lat="47.49274" lon="6.75413">
        <ele>368</ele>
        <time>2013-06-09T07:39:29.691Z</time>
      </trkpt>
      <trkpt lat="47.49277" lon="6.75388">
        <ele>368</ele>
        <time>2013-06-09T07:39:34.689Z</time>
      </trkpt>
      <trkpt lat="47.49284" lon="6.75358">
        <ele>369</ele>
        <time>2013-06-09T07:39:39.679Z</time>
      </trkpt>
      <trkpt lat="47.49293" lon="6.75336">
        <ele>370</ele>
        <time>2013-06-09T07:39:44.692Z</time>
      </trkpt>
      <trkpt lat="47.49298" lon="6.75307">
        <ele>371</ele>
        <time>2013-06-09T07:39:49.692Z</time>
      </trkpt>
      <trkpt lat="47.49299" lon="6.75287">
        <ele>372</ele>
        <time>2013-06-09T07:39:54.692Z</time>
      </trkpt>
      <trkpt lat="47.49293" lon="6.75196">
        <ele>378</ele>
        <time>2013-06-09T07:40:34.692Z</time>
      </trkpt>
      <trkpt lat="47.49296" lon="6.75183">
        <ele>380</ele>
        <time>2013-06-09T07:40:39.703Z</time>
      </trkpt>
      <trkpt lat="47.49296" lon="6.75172">
        <ele>381</ele>
        <time>2013-06-09T07:40:44.693Z</time>
      </trkpt>
      <trkpt lat="47.49295" lon="6.75154">
        <ele>383</ele>
        <time>2013-06-09T07:40:49.694Z</time>
      </trkpt>
      <trkpt lat="47.49294" lon="6.75135">
        <ele>384</ele>
        <time>2013-06-09T07:40:54.690Z</time>
      </trkpt>
      <trkpt lat="47.49296" lon="6.75118">
        <ele>383</ele>
        <time>2013-06-09T07:40:59.674Z</time>
      </trkpt>
      <trkpt lat="47.493" lon="6.75096">
        <ele>384</ele>
        <time>2013-06-09T07:41:04.693Z</time>
      </trkpt>
      <trkpt lat="47.49307" lon="6.75077">
        <ele>384</ele>
        <time>2013-06-09T07:41:09.702Z</time>
      </trkpt>
      <trkpt lat="47.49321" lon="6.75058">
        <ele>385</ele>
        <time>2013-06-09T07:41:14.693Z</time>
      </trkpt>
      <trkpt lat="47.49334" lon="6.75042">
        <ele>384</ele>
        <time>2013-06-09T07:41:19.693Z</time>
      </trkpt>
      <trkpt lat="47.49336" lon="6.75022">
        <ele>383</ele>
        <time>2013-06-09T07:41:24.693Z</time>
      </trkpt>
      <trkpt lat="47.49334" lon="6.75002">
        <ele>384</ele>
        <time>2013-06-09T07:41:29.689Z</time>
      </trkpt>
      <trkpt lat="47.49335" lon="6.74986">
        <ele>385</ele>
        <time>2013-06-09T07:41:34.695Z</time>
      </trkpt>
      <trkpt lat="47.49334" lon="6.74973">
        <ele>386</ele>
        <time>2013-06-09T07:41:39.706Z</time>
      </trkpt>
      <trkpt lat="47.49335" lon="6.74956">
        <ele>387</ele>
        <time>2013-06-09T07:41:44.699Z</time>
      </trkpt>
      <trkpt lat="47.49338" lon="6.74945">
        <ele>387</ele>
        <time>2013-06-09T07:41:49.704Z</time>
      </trkpt>
      <trkpt lat="47.49339" lon="6.74933">
        <ele>386</ele>
        <time>2013-06-09T07:41:54.702Z</time>
      </trkpt>
      <trkpt lat="47.49337" lon="6.74913">
        <ele>386</ele>
        <time>2013-06-09T07:41:59.696Z</time>
      </trkpt>
      <trkpt lat="47.49339" lon="6.74897">
        <ele>385</ele>
        <time>2013-06-09T07:42:04.695Z</time>
      </trkpt>
      <trkpt lat="47.4934" lon="6.7488">
        <ele>387</ele>
        <time>2013-06-09T07:42:09.706Z</time>
      </trkpt>
      <trkpt lat="47.4934" lon="6.74865">
        <ele>388</ele>
        <time>2013-06-09T07:42:14.705Z</time>
      </trkpt>
      <trkpt lat="47.49337" lon="6.7485">
        <ele>390</ele>
        <time>2013-06-09T07:42:19.705Z</time>
      </trkpt>
      <trkpt lat="47.49333" lon="6.74829">
        <ele>392</ele>
        <time>2013-06-09T07:42:24.702Z</time>
      </trkpt>
      <trkpt lat="47.49333" lon="6.74811">
        <ele>394</ele>
        <time>2013-06-09T07:42:29.698Z</time>
      </trkpt>
      <trkpt lat="47.49338" lon="6.74798">
        <ele>394</ele>
        <time>2013-06-09T07:42:34.696Z</time>
      </trkpt>
      <trkpt lat="47.49337" lon="6.7478">
        <ele>394</ele>
        <time>2013-06-09T07:42:39.706Z</time>
      </trkpt>
      <trkpt lat="47.49337" lon="6.7476">
        <ele>395</ele>
        <time>2013-06-09T07:42:44.698Z</time>
      </trkpt>
      <trkpt lat="47.49336" lon="6.74742">
        <ele>397</ele>
        <time>2013-06-09T07:42:49.693Z</time>
      </trkpt>
      <trkpt lat="47.49337" lon="6.74728">
        <ele>398</ele>
        <time>2013-06-09T07:42:54.692Z</time>
      </trkpt>
      <trkpt lat="47.4934" lon="6.74596">
        <ele>401</ele>
        <time>2013-06-09T07:43:34.707Z</time>
      </trkpt>
      <trkpt lat="47.49342" lon="6.74576">
        <ele>400</ele>
        <time>2013-06-09T07:43:39.709Z</time>
      </trkpt>
      <trkpt lat="47.49345" lon="6.74561">
        <ele>402</ele>
        <time>2013-06-09T07:43:44.711Z</time>
      </trkpt>
      <trkpt lat="47.49349" lon="6.74538">
        <ele>400</ele>
        <time>2013-06-09T07:43:49.696Z</time>
      </trkpt>
      <trkpt lat="47.49359" lon="6.74519">
        <ele>399</ele>
        <time>2013-06-09T07:43:54.695Z</time>
      </trkpt>
      <trkpt lat="47.49358" lon="6.74499">
        <ele>400</ele>
        <time>2013-06-09T07:43:59.695Z</time>
      </trkpt>
      <trkpt lat="47.49356" lon="6.74483">
        <ele>401</ele>
        <time>2013-06-09T07:44:04.699Z</time>
      </trkpt>
      <trkpt lat="47.49348" lon="6.7447">
        <ele>402</ele>
        <time>2013-06-09T07:44:09.708Z</time>
      </trkpt>
      <trkpt lat="47.49345" lon="6.74451">
        <ele>403</ele>
        <time>2013-06-09T07:44:14.695Z</time>
      </trkpt>
      <trkpt lat="47.49349" lon="6.74427">
        <ele>400</ele>
        <time>2013-06-09T07:44:19.698Z</time>
      </trkpt>
      <trkpt lat="47.49343" lon="6.74405">
        <ele>402</ele>
        <time>2013-06-09T07:44:24.705Z</time>
      </trkpt>
      <trkpt lat="47.49341" lon="6.74385">
        <ele>402</ele>
        <time>2013-06-09T07:44:29.696Z</time>
      </trkpt>
      <trkpt lat="47.49349" lon="6.74374">
        <ele>403</ele>
        <time>2013-06-09T07:44:34.674Z</time>
      </trkpt>
      <trkpt lat="47.49351" lon="6.7436">
        <ele>404</ele>
        <time>2013-06-09T07:44:39.717Z</time>
      </trkpt>
      <trkpt lat="47.49351" lon="6.74344">
        <ele>403</ele>
        <time>2013-06-09T07:44:44.703Z</time>
      </trkpt>
      <trkpt lat="47.49351" lon="6.74328">
        <ele>403</ele>
        <time>2013-06-09T07:44:49.707Z</time>
      </trkpt>
      <trkpt lat="47.49353" lon="6.74326">
        <ele>405</ele>
        <time>2013-06-09T07:44:54.698Z</time>
      </trkpt>
      <trkpt lat="47.49359" lon="6.7426">
        <ele>403</ele>
        <time>2013-06-09T07:45:34.697Z</time>
      </trkpt>
      <trkpt lat="47.4936" lon="6.74255">
        <ele>402</ele>
        <time>2013-06-09T07:45:39.696Z</time>
      </trkpt>
      <trkpt lat="47.49356" lon="6.74249">
        <ele>402</ele>
        <time>2013-06-09T07:45:44.690Z</time>
      </trkpt>
      <trkpt lat="47.49359" lon="6.74244">
        <ele>402</ele>
        <time>2013-06-09T07:45:49.690Z</time>
      </trkpt>
      <trkpt lat="47.49362" lon="6.74238">
        <ele>402</ele>
        <time>2013-06-09T07:45:54.691Z</time>
      </trkpt>
      <trkpt lat="47.49364" lon="6.74229">
        <ele>403</ele>
        <time>2013-06-09T07:45:59.688Z</time>
      </trkpt>
      <trkpt lat="47.49369" lon="6.74213">
        <ele>402</ele>
        <time>2013-06-09T07:46:04.676Z</time>
      </trkpt>
      <trkpt lat="47.49376" lon="6.74196">
        <ele>403</ele>
        <time>2013-06-09T07:46:09.701Z</time>
      </trkpt>
      <trkpt lat="47.49378" lon="6.74179">
        <ele>403</ele>
        <time>2013-06-09T07:46:14.695Z</time>
      </trkpt>
      <trkpt lat="47.49385" lon="6.74159">
        <ele>402</ele>
        <time>2013-06-09T07:46:19.692Z</time>
      </trkpt>
      <trkpt lat="47.4939" lon="6.74133">
        <ele>402</ele>
        <time>2013-06-09T07:46:24.687Z</time>
      </trkpt>
      <trkpt lat="47.49397" lon="6.74096">
        <ele>403</ele>
        <time>2013-06-09T07:46:29.693Z</time>
      </trkpt>
      <trkpt lat="47.49403" lon="6.74066">
        <ele>402</ele>
        <time>2013-06-09T07:46:34.699Z</time>
      </trkpt>
      <trkpt lat="47.49412" lon="6.74041">
        <ele>401</ele>
        <time>2013-06-09T07:46:39.702Z</time>
      </trkpt>
      <trkpt lat="47.49424" lon="6.74008">
        <ele>399</ele>
        <time>2013-06-09T07:46:44.693Z</time>
      </trkpt>
      <trkpt lat="47.49425" lon="6.73984">
        <ele>399</ele>
        <time>2013-06-09T07:46:49.696Z</time>
      </trkpt>
      <trkpt lat="47.49424" lon="6.73962">
        <ele>399</ele>
        <time>2013-06-09T07:46:54.695Z</time>
      </trkpt>
      <trkpt lat="47.49423" lon="6.73941">
        <ele>398</ele>
        <time>2013-06-09T07:46:59.693Z</time>
      </trkpt>
      <trkpt lat="47.49421" lon="6.73924">
        <ele>397</ele>
        <time>2013-06-09T07:47:04.697Z</time>
      </trkpt>
      <trkpt lat="47.49422" lon="6.73907">
        <ele>396</ele>
        <time>2013-06-09T07:47:09.706Z</time>
      </trkpt>
      <trkpt lat="47.49421" lon="6.73884">
        <ele>396</ele>
        <time>2013-06-09T07:47:14.696Z</time>
      </trkpt>
      <trkpt lat="47.49423" lon="6.7386">
        <ele>395</ele>
        <time>2013-06-09T07:47:19.695Z</time>
      </trkpt>
      <trkpt lat="47.49424" lon="6.73838">
        <ele>394</ele>
        <time>2013-06-09T07:47:24.676Z</time>
      </trkpt>
      <trkpt lat="47.49428" lon="6.73797">
        <ele>393</ele>
        <time>2013-06-09T07:47:34.693Z</time>
      </trkpt>
      <trkpt lat="47.4943" lon="6.7378">
        <ele>391</ele>
        <time>2013-06-09T07:47:39.701Z</time>
      </trkpt>
      <trkpt lat="47.49434" lon="6.73772">
        <ele>392</ele>
        <time>2013-06-09T07:47:44.693Z</time>
      </trkpt>
      <trkpt lat="47.4944" lon="6.73764">
        <ele>392</ele>
        <time>2013-06-09T07:47:49.693Z</time>
      </trkpt>
      <trkpt lat="47.49447" lon="6.73755">
        <ele>391</ele>
        <time>2013-06-09T07:47:54.693Z</time>
      </trkpt>
      <trkpt lat="47.49454" lon="6.7374">
        <ele>390</ele>
        <time>2013-06-09T07:47:59.692Z</time>
      </trkpt>
      <trkpt lat="47.4955" lon="6.73576">
        <ele>382</ele>
        <time>2013-06-09T07:48:34.705Z</time>
      </trkpt>
      <trkpt lat="47.49569" lon="6.73558">
        <ele>382</ele>
        <time>2013-06-09T07:48:39.709Z</time>
      </trkpt>
      <trkpt lat="47.49586" lon="6.73542">
        <ele>382</ele>
        <time>2013-06-09T07:48:44.698Z</time>
      </trkpt>
      <trkpt lat="47.49602" lon="6.73527">
        <ele>382</ele>
        <time>2013-06-09T07:48:49.706Z</time>
      </trkpt>
      <trkpt lat="47.49618" lon="6.7351">
        <ele>383</ele>
        <time>2013-06-09T07:48:54.701Z</time>
      </trkpt>
      <trkpt lat="47.49632" lon="6.7349">
        <ele>382</ele>
        <time>2013-06-09T07:48:59.701Z</time>
      </trkpt>
      <trkpt lat="47.49646" lon="6.73471">
        <ele>383</ele>
        <time>2013-06-09T07:49:04.702Z</time>
      </trkpt>
      <trkpt lat="47.49661" lon="6.73453">
        <ele>382</ele>
        <time>2013-06-09T07:49:09.713Z</time>
      </trkpt>
      <trkpt lat="47.49673" lon="6.73434">
        <ele>383</ele>
        <time>2013-06-09T07:49:14.701Z</time>
      </trkpt>
      <trkpt lat="47.49686" lon="6.73414">
        <ele>383</ele>
        <time>2013-06-09T07:49:19.699Z</time>
      </trkpt>
      <trkpt lat="47.49701" lon="6.73394">
        <ele>385</ele>
        <time>2013-06-09T07:49:24.697Z</time>
      </trkpt>
      <trkpt lat="47.49715" lon="6.73374">
        <ele>385</ele>
        <time>2013-06-09T07:49:29.698Z</time>
      </trkpt>
      <trkpt lat="47.4973" lon="6.73353">
        <ele>386</ele>
        <time>2013-06-09T07:49:34.698Z</time>
      </trkpt>
      <trkpt lat="47.49744" lon="6.73332">
        <ele>385</ele>
        <time>2013-06-09T07:49:39.708Z</time>
      </trkpt>
      <trkpt lat="47.49759" lon="6.7331">
        <ele>386</ele>
        <time>2013-06-09T07:49:44.701Z</time>
      </trkpt>
      <trkpt lat="47.49773" lon="6.73288">
        <ele>386</ele>
        <time>2013-06-09T07:49:49.704Z</time>
      </trkpt>
      <trkpt lat="47.49784" lon="6.73264">
        <ele>386</ele>
        <time>2013-06-09T07:49:54.698Z</time>
      </trkpt>
      <trkpt lat="47.49844" lon="6.73073">
        <ele>391</ele>
        <time>2013-06-09T07:50:34.866Z</time>
      </trkpt>
      <trkpt lat="47.49853" lon="6.73048">
        <ele>391</ele>
        <time>2013-06-09T07:50:39.692Z</time>
      </trkpt>
      <trkpt lat="47.49862" lon="6.73027">
        <ele>390</ele>
        <time>2013-06-09T07:50:44.803Z</time>
      </trkpt>
      <trkpt lat="47.49872" lon="6.73002">
        <ele>391</ele>
        <time>2013-06-09T07:50:49.802Z</time>
      </trkpt>
      <trkpt lat="47.49882" lon="6.72977">
        <ele>392</ele>
        <time>2013-06-09T07:50:54.792Z</time>
      </trkpt>
      <trkpt lat="47.49892" lon="6.7295">
        <ele>393</ele>
        <time>2013-06-09T07:50:59.801Z</time>
      </trkpt>
      <trkpt lat="47.49914" lon="6.72953">
        <ele>393</ele>
        <time>2013-06-09T07:51:04.799Z</time>
      </trkpt>
      <trkpt lat="47.49941" lon="6.72963">
        <ele>394</ele>
        <time>2013-06-09T07:51:09.802Z</time>
      </trkpt>
      <trkpt lat="47.49973" lon="6.72972">
        <ele>397</ele>
        <time>2013-06-09T07:51:14.804Z</time>
      </trkpt>
      <trkpt lat="47.49993" lon="6.72974">
        <ele>398</ele>
        <time>2013-06-09T07:51:19.796Z</time>
      </trkpt>
      <trkpt lat="47.49995" lon="6.72975">
        <ele>397</ele>
        <time>2013-06-09T07:51:24.793Z</time>
      </trkpt>
      <trkpt lat="47.49995" lon="6.72972">
        <ele>396</ele>
        <time>2013-06-09T07:51:29.798Z</time>
      </trkpt>
      <trkpt lat="47.49995" lon="6.72973">
        <ele>398</ele>
        <time>2013-06-09T07:51:34.802Z</time>
      </trkpt>
      <trkpt lat="47.49994" lon="6.72975">
        <ele>398</ele>
        <time>2013-06-09T07:51:39.804Z</time>
      </trkpt>
      <trkpt lat="47.49992" lon="6.72974">
        <ele>397</ele>
        <time>2013-06-09T07:51:44.806Z</time>
      </trkpt>
      <trkpt lat="47.49991" lon="6.72976">
        <ele>397</ele>
        <time>2013-06-09T07:51:49.795Z</time>
      </trkpt>
      <trkpt lat="47.49994" lon="6.72988">
        <ele>396</ele>
        <time>2013-06-09T07:51:54.800Z</time>
      </trkpt>
      <trkpt lat="47.49995" lon="6.73003">
        <ele>396</ele>
        <time>2013-06-09T07:51:59.793Z</time>
      </trkpt>
      <trkpt lat="47.49994" lon="6.73006">
        <ele>397</ele>
        <time>2013-06-09T07:52:04.793Z</time>
      </trkpt>
      <trkpt lat="47.49995" lon="6.73007">
        <ele>399</ele>
        <time>2013-06-09T07:52:09.795Z</time>
      </trkpt>
      <trkpt lat="47.49995" lon="6.73006">
        <ele>399</ele>
        <time>2013-06-09T07:52:14.813Z</time>
      </trkpt>
      <trkpt lat="47.49995" lon="6.73006">
        <ele>399</ele>
        <time>2013-06-09T07:52:20.357Z</time>
      </trkpt>
      <trkpt lat="47.49995" lon="6.73007">
        <ele>399</ele>
        <time>2013-06-09T07:52:24.795Z</time>
      </trkpt>
      <trkpt lat="47.49995" lon="6.73008">
        <ele>400</ele>
        <time>2013-06-09T07:52:29.793Z</time>
      </trkpt>
      <trkpt lat="47.49994" lon="6.73008">
        <ele>400</ele>
        <time>2013-06-09T07:52:34.792Z</time>
      </trkpt>
      <trkpt lat="47.49994" lon="6.73011">
        <ele>400</ele>
        <time>2013-06-09T07:52:39.797Z</time>
      </trkpt>
      <trkpt lat="47.49994" lon="6.73012">
        <ele>400</ele>
        <time>2013-06-09T07:52:44.813Z</time>
      </trkpt>
      <trkpt lat="47.49995" lon="6.73018">
        <ele>401</ele>
        <time>2013-06-09T07:52:49.803Z</time>
      </trkpt>
      <trkpt lat="47.50002" lon="6.73031">
        <ele>400</ele>
        <time>2013-06-09T07:52:54.793Z</time>
      </trkpt>
      <trkpt lat="47.50015" lon="6.73046">
        <ele>399</ele>
        <time>2013-06-09T07:52:59.793Z</time>
      </trkpt>
      <trkpt lat="47.50031" lon="6.7306">
        <ele>395</ele>
        <time>2013-06-09T07:53:04.793Z</time>
      </trkpt>
      <trkpt lat="47.50047" lon="6.73073">
        <ele>393</ele>
        <time>2013-06-09T07:53:09.793Z</time>
      </trkpt>
      <trkpt lat="47.50063" lon="6.73087">
        <ele>392</ele>
        <time>2013-06-09T07:53:14.806Z</time>
      </trkpt>
      <trkpt lat="47.50082" lon="6.73106">
        <ele>391</ele>
        <time>2013-06-09T07:53:19.793Z</time>
      </trkpt>
      <trkpt lat="47.50102" lon="6.7312">
        <ele>390</ele>
        <time>2013-06-09T07:53:24.773Z</time>
      </trkpt>
      <trkpt lat="47.50122" lon="6.73126">
        <ele>390</ele>
        <time>2013-06-09T07:53:29.794Z</time>
      </trkpt>
      <trkpt lat="47.50142" lon="6.73124">
        <ele>391</ele>
        <time>2013-06-09T07:53:34.793Z</time>
      </trkpt>
      <trkpt lat="47.5016" lon="6.73122">
        <ele>391</ele>
        <time>2013-06-09T07:53:39.796Z</time>
      </trkpt>
      <trkpt lat="47.50173" lon="6.73132">
        <ele>391</ele>
        <time>2013-06-09T07:53:44.806Z</time>
      </trkpt>
      <trkpt lat="47.50179" lon="6.73136">
        <ele>391</ele>
        <time>2013-06-09T07:53:49.798Z</time>
      </trkpt>
      <trkpt lat="47.50186" lon="6.73138">
        <ele>392</ele>
        <time>2013-06-09T07:53:54.796Z</time>
      </trkpt>
      <trkpt lat="47.5027" lon="6.72928">
        <ele>392</ele>
        <time>2013-06-09T07:54:34.795Z</time>
      </trkpt>
      <trkpt lat="47.50281" lon="6.729">
        <ele>392</ele>
        <time>2013-06-09T07:54:39.793Z</time>
      </trkpt>
      <trkpt lat="47.503" lon="6.72897">
        <ele>393</ele>
        <time>2013-06-09T07:54:44.811Z</time>
      </trkpt>
      <trkpt lat="47.50316" lon="6.72905">
        <ele>393</ele>
        <time>2013-06-09T07:54:49.795Z</time>
      </trkpt>
      <trkpt lat="47.50335" lon="6.72913">
        <ele>394</ele>
        <time>2013-06-09T07:54:54.796Z</time>
      </trkpt>
      <trkpt lat="47.5035" lon="6.72918">
        <ele>394</ele>
        <time>2013-06-09T07:54:59.796Z</time>
      </trkpt>
      <trkpt lat="47.50366" lon="6.7292">
        <ele>395</ele>
        <time>2013-06-09T07:55:04.800Z</time>
      </trkpt>
      <trkpt lat="47.50379" lon="6.72924">
        <ele>395</ele>
        <time>2013-06-09T07:55:09.798Z</time>
      </trkpt>
      <trkpt lat="47.50392" lon="6.72928">
        <ele>396</ele>
        <time>2013-06-09T07:55:14.811Z</time>
      </trkpt>
      <trkpt lat="47.50405" lon="6.72932">
        <ele>397</ele>
        <time>2013-06-09T07:55:19.796Z</time>
      </trkpt>
      <trkpt lat="47.50418" lon="6.72936">
        <ele>399</ele>
        <time>2013-06-09T07:55:24.798Z</time>
      </trkpt>
      <trkpt lat="47.50431" lon="6.72938">
        <ele>399</ele>
        <time>2013-06-09T07:55:29.793Z</time>
      </trkpt>
      <trkpt lat="47.50442" lon="6.72941">
        <ele>399</ele>
        <time>2013-06-09T07:55:34.798Z</time>
      </trkpt>
      <trkpt lat="47.50452" lon="6.72941">
        <ele>399</ele>
        <time>2013-06-09T07:55:39.796Z</time>
      </trkpt>
      <trkpt lat="47.50462" lon="6.72931">
        <ele>401</ele>
        <time>2013-06-09T07:55:44.807Z</time>
      </trkpt>
      <trkpt lat="47.50471" lon="6.72919">
        <ele>401</ele>
        <time>2013-06-09T07:55:49.799Z</time>
      </trkpt>
      <trkpt lat="47.5048" lon="6.72905">
        <ele>402</ele>
        <time>2013-06-09T07:55:54.798Z</time>
      </trkpt>
      <trkpt lat="47.5049" lon="6.72894">
        <ele>404</ele>
        <time>2013-06-09T07:55:59.800Z</time>
      </trkpt>
      <trkpt lat="47.505" lon="6.72883">
        <ele>404</ele>
        <time>2013-06-09T07:56:04.798Z</time>
      </trkpt>
      <trkpt lat="47.50509" lon="6.72873">
        <ele>405</ele>
        <time>2013-06-09T07:56:09.804Z</time>
      </trkpt>
      <trkpt lat="47.50519" lon="6.72863">
        <ele>405</ele>
        <time>2013-06-09T07:56:14.810Z</time>
      </trkpt>
      <trkpt lat="47.50529" lon="6.72855">
        <ele>407</ele>
        <time>2013-06-09T07:56:19.801Z</time>
      </trkpt>
      <trkpt lat="47.5054" lon="6.72848">
        <ele>408</ele>
        <time>2013-06-09T07:56:24.799Z</time>
      </trkpt>
      <trkpt lat="47.50549" lon="6.72842">
        <ele>408</ele>
        <time>2013-06-09T07:56:29.800Z</time>
      </trkpt>
      <trkpt lat="47.50556" lon="6.72836">
        <ele>410</ele>
        <time>2013-06-09T07:56:34.799Z</time>
      </trkpt>
      <trkpt lat="47.50562" lon="6.72829">
        <ele>411</ele>
        <time>2013-06-09T07:56:39.796Z</time>
      </trkpt>
      <trkpt lat="47.50568" lon="6.72822">
        <ele>413</ele>
        <time>2013-06-09T07:56:44.808Z</time>
      </trkpt>
      <trkpt lat="47.50577" lon="6.72817">
        <ele>414</ele>
        <time>2013-06-09T07:56:49.803Z</time>
      </trkpt>
      <trkpt lat="47.50587" lon="6.72811">
        <ele>415</ele>
        <time>2013-06-09T07:56:54.796Z</time>
      </trkpt>
      <trkpt lat="47.50595" lon="6.72804">
        <ele>416</ele>
        <time>2013-06-09T07:56:59.778Z</time>
      </trkpt>
      <trkpt lat="47.5061" lon="6.72793">
        <ele>419</ele>
        <time>2013-06-09T07:57:09.796Z</time>
      </trkpt>
      <trkpt lat="47.50618" lon="6.72787">
        <ele>421</ele>
        <time>2013-06-09T07:57:14.811Z</time>
      </trkpt>
      <trkpt lat="47.50624" lon="6.72782">
        <ele>422</ele>
        <time>2013-06-09T07:57:19.798Z</time>
      </trkpt>
      <trkpt lat="47.5063" lon="6.72776">
        <ele>423</ele>
        <time>2013-06-09T07:57:24.795Z</time>
      </trkpt>
      <trkpt lat="47.50636" lon="6.72769">
        <ele>424</ele>
        <time>2013-06-09T07:57:29.806Z</time>
      </trkpt>
      <trkpt lat="47.50644" lon="6.72762">
        <ele>424</ele>
        <time>2013-06-09T07:57:34.794Z</time>
      </trkpt>
      <trkpt lat="47.50653" lon="6.72755">
        <ele>424</ele>
        <time>2013-06-09T07:57:39.799Z</time>
      </trkpt>
      <trkpt lat="47.50659" lon="6.72748">
        <ele>426</ele>
        <time>2013-06-09T07:57:44.803Z</time>
      </trkpt>
      <trkpt lat="47.50668" lon="6.72738">
        <ele>426</ele>
        <time>2013-06-09T07:57:49.798Z</time>
      </trkpt>
      <trkpt lat="47.50673" lon="6.72729">
        <ele>427</ele>
        <time>2013-06-09T07:57:54.799Z</time>
      </trkpt>
      <trkpt lat="47.50679" lon="6.72722">
        <ele>427</ele>
        <time>2013-06-09T07:57:59.798Z</time>
      </trkpt>
      <trkpt lat="47.50687" lon="6.72714">
        <ele>428</ele>
        <time>2013-06-09T07:58:04.804Z</time>
      </trkpt>
      <trkpt lat="47.50694" lon="6.72705">
        <ele>429</ele>
        <time>2013-06-09T07:58:09.795Z</time>
      </trkpt>
      <trkpt lat="47.507" lon="6.72695">
        <ele>431</ele>
        <time>2013-06-09T07:58:14.812Z</time>
      </trkpt>
      <trkpt lat="47.50708" lon="6.72688">
        <ele>432</ele>
        <time>2013-06-09T07:58:19.795Z</time>
      </trkpt>
      <trkpt lat="47.50713" lon="6.72678">
        <ele>432</ele>
        <time>2013-06-09T07:58:24.795Z</time>
      </trkpt>
      <trkpt lat="47.5072" lon="6.72669">
        <ele>433</ele>
        <time>2013-06-09T07:58:29.799Z</time>
      </trkpt>
      <trkpt lat="47.50728" lon="6.72661">
        <ele>433</ele>
        <time>2013-06-09T07:58:34.795Z</time>
      </trkpt>
      <trkpt lat="47.50736" lon="6.7265">
        <ele>433</ele>
        <time>2013-06-09T07:58:39.792Z</time>
      </trkpt>
      <trkpt lat="47.50741" lon="6.7264">
        <ele>434</ele>
        <time>2013-06-09T07:58:44.813Z</time>
      </trkpt>
      <trkpt lat="47.50751" lon="6.72627">
        <ele>435</ele>
        <time>2013-06-09T07:58:49.797Z</time>
      </trkpt>
      <trkpt lat="47.50759" lon="6.72618">
        <ele>435</ele>
        <time>2013-06-09T07:58:54.802Z</time>
      </trkpt>
      <trkpt lat="47.5077" lon="6.72608">
        <ele>435</ele>
        <time>2013-06-09T07:58:59.798Z</time>
      </trkpt>
      <trkpt lat="47.5078" lon="6.72597">
        <ele>437</ele>
        <time>2013-06-09T07:59:04.799Z</time>
      </trkpt>
      <trkpt lat="47.50788" lon="6.72586">
        <ele>438</ele>
        <time>2013-06-09T07:59:09.799Z</time>
      </trkpt>
      <trkpt lat="47.50798" lon="6.72573">
        <ele>439</ele>
        <time>2013-06-09T07:59:14.810Z</time>
      </trkpt>
      <trkpt lat="47.5081" lon="6.72563">
        <ele>439</ele>
        <time>2013-06-09T07:59:19.803Z</time>
      </trkpt>
      <trkpt lat="47.50822" lon="6.7255">
        <ele>440</ele>
        <time>2013-06-09T07:59:24.801Z</time>
      </trkpt>
      <trkpt lat="47.5083" lon="6.72539">
        <ele>441</ele>
        <time>2013-06-09T07:59:29.799Z</time>
      </trkpt>
      <trkpt lat="47.50839" lon="6.72532">
        <ele>443</ele>
        <time>2013-06-09T07:59:34.795Z</time>
      </trkpt>
      <trkpt lat="47.50852" lon="6.72528">
        <ele>443</ele>
        <time>2013-06-09T07:59:39.796Z</time>
      </trkpt>
      <trkpt lat="47.50862" lon="6.72526">
        <ele>445</ele>
        <time>2013-06-09T07:59:44.824Z</time>
      </trkpt>
      <trkpt lat="47.5087" lon="6.72525">
        <ele>446</ele>
        <time>2013-06-09T07:59:49.802Z</time>
      </trkpt>
      <trkpt lat="47.50877" lon="6.72523">
        <ele>448</ele>
        <time>2013-06-09T07:59:54.792Z</time>
      </trkpt>
      <trkpt lat="47.50887" lon="6.72518">
        <ele>450</ele>
        <time>2013-06-09T07:59:59.792Z</time>
      </trkpt>
      <trkpt lat="47.50894" lon="6.72515">
        <ele>453</ele>
        <time>2013-06-09T08:00:04.797Z</time>
      </trkpt>
      <trkpt lat="47.509" lon="6.72512">
        <ele>454</ele>
        <time>2013-06-09T08:00:09.795Z</time>
      </trkpt>
      <trkpt lat="47.50909" lon="6.7251">
        <ele>454</ele>
        <time>2013-06-09T08:00:14.805Z</time>
      </trkpt>
      <trkpt lat="47.5092" lon="6.72511">
        <ele>454</ele>
        <time>2013-06-09T08:00:19.792Z</time>
      </trkpt>
      <trkpt lat="47.50929" lon="6.72508">
        <ele>454</ele>
        <time>2013-06-09T08:00:24.795Z</time>
      </trkpt>
      <trkpt lat="47.50935" lon="6.72506">
        <ele>456</ele>
        <time>2013-06-09T08:00:29.801Z</time>
      </trkpt>
      <trkpt lat="47.50942" lon="6.72507">
        <ele>458</ele>
        <time>2013-06-09T08:00:34.796Z</time>
      </trkpt>
      <trkpt lat="47.50949" lon="6.72505">
        <ele>459</ele>
        <time>2013-06-09T08:00:39.793Z</time>
      </trkpt>
      <trkpt lat="47.50958" lon="6.72505">
        <ele>459</ele>
        <time>2013-06-09T08:00:44.809Z</time>
      </trkpt>
      <trkpt lat="47.50964" lon="6.72502">
        <ele>460</ele>
        <time>2013-06-09T08:00:49.802Z</time>
      </trkpt>
      <trkpt lat="47.50973" lon="6.72498">
        <ele>462</ele>
        <time>2013-06-09T08:00:54.793Z</time>
      </trkpt>
      <trkpt lat="47.50983" lon="6.72497">
        <ele>463</ele>
        <time>2013-06-09T08:00:59.795Z</time>
      </trkpt>
      <trkpt lat="47.5099" lon="6.72497">
        <ele>464</ele>
        <time>2013-06-09T08:01:04.795Z</time>
      </trkpt>
      <trkpt lat="47.50999" lon="6.72495">
        <ele>465</ele>
        <time>2013-06-09T08:01:09.800Z</time>
      </trkpt>
      <trkpt lat="47.51007" lon="6.72493">
        <ele>464</ele>
        <time>2013-06-09T08:01:14.812Z</time>
      </trkpt>
      <trkpt lat="47.51016" lon="6.72494">
        <ele>464</ele>
        <time>2013-06-09T08:01:19.809Z</time>
      </trkpt>
      <trkpt lat="47.51025" lon="6.72497">
        <ele>465</ele>
        <time>2013-06-09T08:01:24.797Z</time>
      </trkpt>
      <trkpt lat="47.51033" lon="6.72497">
        <ele>465</ele>
        <time>2013-06-09T08:01:29.799Z</time>
      </trkpt>
      <trkpt lat="47.51043" lon="6.72502">
        <ele>466</ele>
        <time>2013-06-09T08:01:34.793Z</time>
      </trkpt>
      <trkpt lat="47.51051" lon="6.72506">
        <ele>466</ele>
        <time>2013-06-09T08:01:39.795Z</time>
      </trkpt>
      <trkpt lat="47.51059" lon="6.72507">
        <ele>468</ele>
        <time>2013-06-09T08:01:44.802Z</time>
      </trkpt>
      <trkpt lat="47.51066" lon="6.72509">
        <ele>469</ele>
        <time>2013-06-09T08:01:49.792Z</time>
      </trkpt>
      <trkpt lat="47.51073" lon="6.72515">
        <ele>471</ele>
        <time>2013-06-09T08:01:54.794Z</time>
      </trkpt>
      <trkpt lat="47.51121" lon="6.72537">
        <ele>477</ele>
        <time>2013-06-09T08:02:34.798Z</time>
      </trkpt>
      <trkpt lat="47.51123" lon="6.72545">
        <ele>476</ele>
        <time>2013-06-09T08:02:39.795Z</time>
      </trkpt>
      <trkpt lat="47.51121" lon="6.72552">
        <ele>473</ele>
        <time>2013-06-09T08:02:44.809Z</time>
      </trkpt>
      <trkpt lat="47.51119" lon="6.72554">
        <ele>473</ele>
        <time>2013-06-09T08:02:49.795Z</time>
      </trkpt>
      <trkpt lat="47.51118" lon="6.72552">
        <ele>474</ele>
        <time>2013-06-09T08:02:54.795Z</time>
      </trkpt>
      <trkpt lat="47.51116" lon="6.72549">
        <ele>478</ele>
        <time>2013-06-09T08:02:59.799Z</time>
      </trkpt>
      <trkpt lat="47.51117" lon="6.7255">
        <ele>480</ele>
        <time>2013-06-09T08:03:04.797Z</time>
      </trkpt>
      <trkpt lat="47.51118" lon="6.7255">
        <ele>481</ele>
        <time>2013-06-09T08:03:09.809Z</time>
      </trkpt>
      <trkpt lat="47.5112" lon="6.72553">
        <ele>477</ele>
        <time>2013-06-09T08:03:14.807Z</time>
      </trkpt>
      <trkpt lat="47.51116" lon="6.7256">
        <ele>474</ele>
        <time>2013-06-09T08:03:19.799Z</time>
      </trkpt>
      <trkpt lat="47.51117" lon="6.72555">
        <ele>473</ele>
        <time>2013-06-09T08:03:24.798Z</time>
      </trkpt>
      <trkpt lat="47.51119" lon="6.72548">
        <ele>471</ele>
        <time>2013-06-09T08:03:29.806Z</time>
      </trkpt>
      <trkpt lat="47.5112" lon="6.72546">
        <ele>471</ele>
        <time>2013-06-09T08:03:34.799Z</time>
      </trkpt>
      <trkpt lat="47.51127" lon="6.72541">
        <ele>472</ele>
        <time>2013-06-09T08:03:39.796Z</time>
      </trkpt>
      <trkpt lat="47.51132" lon="6.72541">
        <ele>473</ele>
        <time>2013-06-09T08:03:44.808Z</time>
      </trkpt>
      <trkpt lat="47.51137" lon="6.72542">
        <ele>474</ele>
        <time>2013-06-09T08:03:49.798Z</time>
      </trkpt>
      <trkpt lat="47.51144" lon="6.72541">
        <ele>476</ele>
        <time>2013-06-09T08:03:54.795Z</time>
      </trkpt>
      <trkpt lat="47.51156" lon="6.72544">
        <ele>477</ele>
        <time>2013-06-09T08:03:59.795Z</time>
      </trkpt>
      <trkpt lat="47.51167" lon="6.72545">
        <ele>478</ele>
        <time>2013-06-09T08:04:04.782Z</time>
      </trkpt>
      <trkpt lat="47.51176" lon="6.72544">
        <ele>480</ele>
        <time>2013-06-09T08:04:14.807Z</time>
      </trkpt>
      <trkpt lat="47.51176" lon="6.72543">
        <ele>481</ele>
        <time>2013-06-09T08:04:19.793Z</time>
      </trkpt>
      <trkpt lat="47.51176" lon="6.72541">
        <ele>482</ele>
        <time>2013-06-09T08:04:24.793Z</time>
      </trkpt>
      <trkpt lat="47.51176" lon="6.72541">
        <ele>482</ele>
        <time>2013-06-09T08:04:29.791Z</time>
      </trkpt>
      <trkpt lat="47.51176" lon="6.72541">
        <ele>482</ele>
        <time>2013-06-09T08:04:34.797Z</time>
      </trkpt>
      <trkpt lat="47.51176" lon="6.72541">
        <ele>482</ele>
        <time>2013-06-09T08:04:39.798Z</time>
      </trkpt>
      <trkpt lat="47.51176" lon="6.72541">
        <ele>482</ele>
        <time>2013-06-09T08:04:44.808Z</time>
      </trkpt>
      <trkpt lat="47.51177" lon="6.72541">
        <ele>482</ele>
        <time>2013-06-09T08:04:49.798Z</time>
      </trkpt>
      <trkpt lat="47.51177" lon="6.7254">
        <ele>482</ele>
        <time>2013-06-09T08:04:54.791Z</time>
      </trkpt>
      <trkpt lat="47.51177" lon="6.7254">
        <ele>482</ele>
        <time>2013-06-09T08:04:59.793Z</time>
      </trkpt>
      <trkpt lat="47.51177" lon="6.7254">
        <ele>483</ele>
        <time>2013-06-09T08:05:04.789Z</time>
      </trkpt>
      <trkpt lat="47.51177" lon="6.7254">
        <ele>483</ele>
        <time>2013-06-09T08:05:09.791Z</time>
      </trkpt>
      <trkpt lat="47.51177" lon="6.7254">
        <ele>483</ele>
        <time>2013-06-09T08:05:14.797Z</time>
      </trkpt>
      <trkpt lat="47.51177" lon="6.72539">
        <ele>484</ele>
        <time>2013-06-09T08:05:19.806Z</time>
      </trkpt>
      <trkpt lat="47.51176" lon="6.72539">
        <ele>484</ele>
        <time>2013-06-09T08:05:24.806Z</time>
      </trkpt>
      <trkpt lat="47.51176" lon="6.72533">
        <ele>484</ele>
        <time>2013-06-09T08:05:29.803Z</time>
      </trkpt>
      <trkpt lat="47.51178" lon="6.72523">
        <ele>484</ele>
        <time>2013-06-09T08:05:34.800Z</time>
      </trkpt>
      <trkpt lat="47.51182" lon="6.72512">
        <ele>485</ele>
        <time>2013-06-09T08:05:39.800Z</time>
      </trkpt>
      <trkpt lat="47.5119" lon="6.72495">
        <ele>485</ele>
        <time>2013-06-09T08:05:44.805Z</time>
      </trkpt>
      <trkpt lat="47.51193" lon="6.72483">
        <ele>485</ele>
        <time>2013-06-09T08:05:49.799Z</time>
      </trkpt>
      <trkpt lat="47.51199" lon="6.72468">
        <ele>486</ele>
        <time>2013-06-09T08:05:54.793Z</time>
      </trkpt>
      <trkpt lat="47.51227" lon="6.72354">
        <ele>490</ele>
        <time>2013-06-09T08:06:34.809Z</time>
      </trkpt>
      <trkpt lat="47.51231" lon="6.72334">
        <ele>489</ele>
        <time>2013-06-09T08:06:39.807Z</time>
      </trkpt>
      <trkpt lat="47.51231" lon="6.72314">
        <ele>487</ele>
        <time>2013-06-09T08:06:44.811Z</time>
      </trkpt>
      <trkpt lat="47.51233" lon="6.72297">
        <ele>488</ele>
        <time>2013-06-09T08:06:49.799Z</time>
      </trkpt>
      <trkpt lat="47.51232" lon="6.72282">
        <ele>488</ele>
        <time>2013-06-09T08:06:54.803Z</time>
      </trkpt>
      <trkpt lat="47.51233" lon="6.72266">
        <ele>490</ele>
        <time>2013-06-09T08:06:59.798Z</time>
      </trkpt>
      <trkpt lat="47.51233" lon="6.72251">
        <ele>491</ele>
        <time>2013-06-09T08:07:04.805Z</time>
      </trkpt>
      <trkpt lat="47.5124" lon="6.72233">
        <ele>492</ele>
        <time>2013-06-09T08:07:09.809Z</time>
      </trkpt>
      <trkpt lat="47.51238" lon="6.72218">
        <ele>492</ele>
        <time>2013-06-09T08:07:14.812Z</time>
      </trkpt>
      <trkpt lat="47.51233" lon="6.72203">
        <ele>492</ele>
        <time>2013-06-09T08:07:19.799Z</time>
      </trkpt>
      <trkpt lat="47.51233" lon="6.7219">
        <ele>492</ele>
        <time>2013-06-09T08:07:24.802Z</time>
      </trkpt>
      <trkpt lat="47.51234" lon="6.72176">
        <ele>493</ele>
        <time>2013-06-09T08:07:29.799Z</time>
      </trkpt>
      <trkpt lat="47.51236" lon="6.72156">
        <ele>494</ele>
        <time>2013-06-09T08:07:34.799Z</time>
      </trkpt>
      <trkpt lat="47.51238" lon="6.7214">
        <ele>495</ele>
        <time>2013-06-09T08:07:39.807Z</time>
      </trkpt>
      <trkpt lat="47.51237" lon="6.72125">
        <ele>496</ele>
        <time>2013-06-09T08:07:44.811Z</time>
      </trkpt>
      <trkpt lat="47.51236" lon="6.72107">
        <ele>496</ele>
        <time>2013-06-09T08:07:49.802Z</time>
      </trkpt>
      <trkpt lat="47.51234" lon="6.72089">
        <ele>497</ele>
        <time>2013-06-09T08:07:54.799Z</time>
      </trkpt>
      <trkpt lat="47.51232" lon="6.72077">
        <ele>496</ele>
        <time>2013-06-09T08:07:59.799Z</time>
      </trkpt>
      <trkpt lat="47.51231" lon="6.72062">
        <ele>497</ele>
        <time>2013-06-09T08:08:04.799Z</time>
      </trkpt>
      <trkpt lat="47.51228" lon="6.72042">
        <ele>497</ele>
        <time>2013-06-09T08:08:09.798Z</time>
      </trkpt>
      <trkpt lat="47.51233" lon="6.72026">
        <ele>498</ele>
        <time>2013-06-09T08:08:14.811Z</time>
      </trkpt>
      <trkpt lat="47.51235" lon="6.72011">
        <ele>499</ele>
        <time>2013-06-09T08:08:19.796Z</time>
      </trkpt>
      <trkpt lat="47.51233" lon="6.71991">
        <ele>499</ele>
        <time>2013-06-09T08:08:24.791Z</time>
      </trkpt>
      <trkpt lat="47.51234" lon="6.71975">
        <ele>499</ele>
        <time>2013-06-09T08:08:29.796Z</time>
      </trkpt>
      <trkpt lat="47.51233" lon="6.71968">
        <ele>499</ele>
        <time>2013-06-09T08:08:34.797Z</time>
      </trkpt>
      <trkpt lat="47.5123" lon="6.71951">
        <ele>499</ele>
        <time>2013-06-09T08:08:39.905Z</time>
      </trkpt>
      <trkpt lat="47.51226" lon="6.71931">
        <ele>500</ele>
        <time>2013-06-09T08:08:44.799Z</time>
      </trkpt>
      <trkpt lat="47.51224" lon="6.71918">
        <ele>501</ele>
        <time>2013-06-09T08:08:49.791Z</time>
      </trkpt>
      <trkpt lat="47.51225" lon="6.71905">
        <ele>502</ele>
        <time>2013-06-09T08:08:54.791Z</time>
      </trkpt>
      <trkpt lat="47.51226" lon="6.71888">
        <ele>503</ele>
        <time>2013-06-09T08:08:59.793Z</time>
      </trkpt>
      <trkpt lat="47.51225" lon="6.71873">
        <ele>503</ele>
        <time>2013-06-09T08:09:04.790Z</time>
      </trkpt>
      <trkpt lat="47.51223" lon="6.71856">
        <ele>503</ele>
        <time>2013-06-09T08:09:09.792Z</time>
      </trkpt>
      <trkpt lat="47.51223" lon="6.71835">
        <ele>504</ele>
        <time>2013-06-09T08:09:14.798Z</time>
      </trkpt>
      <trkpt lat="47.51223" lon="6.71822">
        <ele>503</ele>
        <time>2013-06-09T08:09:19.791Z</time>
      </trkpt>
      <trkpt lat="47.51222" lon="6.71808">
        <ele>502</ele>
        <time>2013-06-09T08:09:24.776Z</time>
      </trkpt>
      <trkpt lat="47.51221" lon="6.71779">
        <ele>503</ele>
        <time>2013-06-09T08:09:34.791Z</time>
      </trkpt>
      <trkpt lat="47.51216" lon="6.71762">
        <ele>502</ele>
        <time>2013-06-09T08:09:39.797Z</time>
      </trkpt>
      <trkpt lat="47.51211" lon="6.7175">
        <ele>502</ele>
        <time>2013-06-09T08:09:44.802Z</time>
      </trkpt>
      <trkpt lat="47.5121" lon="6.71736">
        <ele>504</ele>
        <time>2013-06-09T08:09:49.807Z</time>
      </trkpt>
      <trkpt lat="47.51208" lon="6.7172">
        <ele>505</ele>
        <time>2013-06-09T08:09:54.792Z</time>
      </trkpt>
      <trkpt lat="47.5121" lon="6.71702">
        <ele>506</ele>
        <time>2013-06-09T08:09:59.791Z</time>
      </trkpt>
      <trkpt lat="47.51211" lon="6.71686">
        <ele>506</ele>
        <time>2013-06-09T08:10:04.794Z</time>
      </trkpt>
      <trkpt lat="47.51212" lon="6.71668">
        <ele>505</ele>
        <time>2013-06-09T08:10:09.806Z</time>
      </trkpt>
      <trkpt lat="47.51215" lon="6.7165">
        <ele>505</ele>
        <time>2013-06-09T08:10:14.802Z</time>
      </trkpt>
      <trkpt lat="47.51212" lon="6.71635">
        <ele>504</ele>
        <time>2013-06-09T08:10:19.804Z</time>
      </trkpt>
      <trkpt lat="47.51209" lon="6.71624">
        <ele>504</ele>
        <time>2013-06-09T08:10:24.807Z</time>
      </trkpt>
      <trkpt lat="47.51205" lon="6.7161">
        <ele>504</ele>
        <time>2013-06-09T08:10:29.801Z</time>
      </trkpt>
      <trkpt lat="47.51209" lon="6.7159">
        <ele>505</ele>
        <time>2013-06-09T08:10:34.797Z</time>
      </trkpt>
      <trkpt lat="47.51211" lon="6.71571">
        <ele>505</ele>
        <time>2013-06-09T08:10:39.799Z</time>
      </trkpt>
      <trkpt lat="47.51212" lon="6.7155">
        <ele>507</ele>
        <time>2013-06-09T08:10:44.804Z</time>
      </trkpt>
      <trkpt lat="47.51212" lon="6.71532">
        <ele>506</ele>
        <time>2013-06-09T08:10:49.797Z</time>
      </trkpt>
      <trkpt lat="47.51218" lon="6.71514">
        <ele>508</ele>
        <time>2013-06-09T08:10:54.793Z</time>
      </trkpt>
      <trkpt lat="47.51232" lon="6.71504">
        <ele>509</ele>
        <time>2013-06-09T08:10:59.797Z</time>
      </trkpt>
      <trkpt lat="47.5124" lon="6.71489">
        <ele>510</ele>
        <time>2013-06-09T08:11:04.807Z</time>
      </trkpt>
      <trkpt lat="47.51238" lon="6.71474">
        <ele>508</ele>
        <time>2013-06-09T08:11:09.803Z</time>
      </trkpt>
      <trkpt lat="47.51236" lon="6.71464">
        <ele>507</ele>
        <time>2013-06-09T08:11:14.803Z</time>
      </trkpt>
      <trkpt lat="47.51237" lon="6.71446">
        <ele>507</ele>
        <time>2013-06-09T08:11:19.801Z</time>
      </trkpt>
      <trkpt lat="47.51238" lon="6.71424">
        <ele>509</ele>
        <time>2013-06-09T08:11:24.804Z</time>
      </trkpt>
      <trkpt lat="47.51238" lon="6.71403">
        <ele>510</ele>
        <time>2013-06-09T08:11:29.801Z</time>
      </trkpt>
      <trkpt lat="47.51233" lon="6.71381">
        <ele>510</ele>
        <time>2013-06-09T08:11:34.794Z</time>
      </trkpt>
      <trkpt lat="47.51229" lon="6.71359">
        <ele>509</ele>
        <time>2013-06-09T08:11:39.798Z</time>
      </trkpt>
      <trkpt lat="47.51234" lon="6.71338">
        <ele>509</ele>
        <time>2013-06-09T08:11:44.802Z</time>
      </trkpt>
      <trkpt lat="47.51239" lon="6.71314">
        <ele>510</ele>
        <time>2013-06-09T08:11:49.799Z</time>
      </trkpt>
      <trkpt lat="47.51238" lon="6.7129">
        <ele>512</ele>
        <time>2013-06-09T08:11:54.795Z</time>
      </trkpt>
      <trkpt lat="47.51243" lon="6.71269">
        <ele>511</ele>
        <time>2013-06-09T08:11:59.792Z</time>
      </trkpt>
      <trkpt lat="47.51244" lon="6.71253">
        <ele>511</ele>
        <time>2013-06-09T08:12:04.797Z</time>
      </trkpt>
      <trkpt lat="47.51247" lon="6.71231">
        <ele>510</ele>
        <time>2013-06-09T08:12:09.806Z</time>
      </trkpt>
      <trkpt lat="47.5125" lon="6.7121">
        <ele>509</ele>
        <time>2013-06-09T08:12:14.803Z</time>
      </trkpt>
      <trkpt lat="47.51252" lon="6.71194">
        <ele>509</ele>
        <time>2013-06-09T08:12:19.798Z</time>
      </trkpt>
      <trkpt lat="47.51253" lon="6.71174">
        <ele>508</ele>
        <time>2013-06-09T08:12:24.797Z</time>
      </trkpt>
      <trkpt lat="47.51254" lon="6.71156">
        <ele>509</ele>
        <time>2013-06-09T08:12:29.797Z</time>
      </trkpt>
      <trkpt lat="47.51255" lon="6.71136">
        <ele>509</ele>
        <time>2013-06-09T08:12:34.800Z</time>
      </trkpt>
      <trkpt lat="47.51257" lon="6.71118">
        <ele>510</ele>
        <time>2013-06-09T08:12:39.804Z</time>
      </trkpt>
      <trkpt lat="47.51257" lon="6.71097">
        <ele>509</ele>
        <time>2013-06-09T08:12:44.802Z</time>
      </trkpt>
      <trkpt lat="47.51257" lon="6.71074">
        <ele>509</ele>
        <time>2013-06-09T08:12:49.798Z</time>
      </trkpt>
      <trkpt lat="47.5126" lon="6.71053">
        <ele>508</ele>
        <time>2013-06-09T08:12:54.805Z</time>
      </trkpt>
      <trkpt lat="47.51264" lon="6.71026">
        <ele>504</ele>
        <time>2013-06-09T08:12:59.802Z</time>
      </trkpt>
      <trkpt lat="47.51269" lon="6.71007">
        <ele>503</ele>
        <time>2013-06-09T08:13:04.798Z</time>
      </trkpt>
      <trkpt lat="47.51273" lon="6.70992">
        <ele>503</ele>
        <time>2013-06-09T08:13:09.799Z</time>
      </trkpt>
      <trkpt lat="47.51272" lon="6.70977">
        <ele>503</ele>
        <time>2013-06-09T08:13:14.802Z</time>
      </trkpt>
      <trkpt lat="47.51269" lon="6.70967">
        <ele>503</ele>
        <time>2013-06-09T08:13:19.800Z</time>
      </trkpt>
      <trkpt lat="47.51267" lon="6.70951">
        <ele>504</ele>
        <time>2013-06-09T08:13:24.796Z</time>
      </trkpt>
      <trkpt lat="47.51266" lon="6.70937">
        <ele>505</ele>
        <time>2013-06-09T08:13:29.803Z</time>
      </trkpt>
      <trkpt lat="47.51266" lon="6.70924">
        <ele>506</ele>
        <time>2013-06-09T08:13:34.803Z</time>
      </trkpt>
      <trkpt lat="47.51271" lon="6.70911">
        <ele>506</ele>
        <time>2013-06-09T08:13:39.801Z</time>
      </trkpt>
      <trkpt lat="47.51278" lon="6.70907">
        <ele>505</ele>
        <time>2013-06-09T08:13:44.801Z</time>
      </trkpt>
      <trkpt lat="47.51285" lon="6.70908">
        <ele>506</ele>
        <time>2013-06-09T08:13:49.793Z</time>
      </trkpt>
      <trkpt lat="47.51288" lon="6.70903">
        <ele>507</ele>
        <time>2013-06-09T08:13:54.799Z</time>
      </trkpt>
      <trkpt lat="47.51287" lon="6.70903">
        <ele>508</ele>
        <time>2013-06-09T08:13:59.800Z</time>
      </trkpt>
      <trkpt lat="47.51287" lon="6.70903">
        <ele>508</ele>
        <time>2013-06-09T08:14:04.799Z</time>
      </trkpt>
      <trkpt lat="47.51287" lon="6.70902">
        <ele>508</ele>
        <time>2013-06-09T08:14:09.803Z</time>
      </trkpt>
      <trkpt lat="47.5129" lon="6.70902">
        <ele>508</ele>
        <time>2013-06-09T08:14:14.804Z</time>
      </trkpt>
      <trkpt lat="47.51291" lon="6.70901">
        <ele>508</ele>
        <time>2013-06-09T08:14:19.781Z</time>
      </trkpt>
      <trkpt lat="47.51291" lon="6.70898">
        <ele>508</ele>
        <time>2013-06-09T08:14:29.794Z</time>
      </trkpt>
      <trkpt lat="47.5129" lon="6.70896">
        <ele>507</ele>
        <time>2013-06-09T08:14:34.799Z</time>
      </trkpt>
      <trkpt lat="47.51292" lon="6.70898">
        <ele>508</ele>
        <time>2013-06-09T08:14:39.804Z</time>
      </trkpt>
      <trkpt lat="47.51292" lon="6.70899">
        <ele>509</ele>
        <time>2013-06-09T08:14:44.803Z</time>
      </trkpt>
      <trkpt lat="47.51291" lon="6.70898">
        <ele>508</ele>
        <time>2013-06-09T08:14:49.807Z</time>
      </trkpt>
      <trkpt lat="47.51295" lon="6.70895">
        <ele>507</ele>
        <time>2013-06-09T08:14:54.803Z</time>
      </trkpt>
      <trkpt lat="47.51296" lon="6.70893">
        <ele>507</ele>
        <time>2013-06-09T08:14:59.804Z</time>
      </trkpt>
      <trkpt lat="47.51298" lon="6.70893">
        <ele>509</ele>
        <time>2013-06-09T08:15:04.799Z</time>
      </trkpt>
      <trkpt lat="47.51299" lon="6.70892">
        <ele>510</ele>
        <time>2013-06-09T08:15:09.801Z</time>
      </trkpt>
      <trkpt lat="47.51299" lon="6.70892">
        <ele>510</ele>
        <time>2013-06-09T08:15:14.808Z</time>
      </trkpt>
      <trkpt lat="47.51299" lon="6.70892">
        <ele>510</ele>
        <time>2013-06-09T08:15:19.806Z</time>
      </trkpt>
      <trkpt lat="47.51299" lon="6.70892">
        <ele>510</ele>
        <time>2013-06-09T08:15:24.797Z</time>
      </trkpt>
      <trkpt lat="47.51299" lon="6.70892">
        <ele>510</ele>
        <time>2013-06-09T08:15:29.799Z</time>
      </trkpt>
      <trkpt lat="47.51299" lon="6.70892">
        <ele>510</ele>
        <time>2013-06-09T08:15:34.802Z</time>
      </trkpt>
      <trkpt lat="47.51299" lon="6.70893">
        <ele>510</ele>
        <time>2013-06-09T08:15:39.817Z</time>
      </trkpt>
      <trkpt lat="47.51298" lon="6.70893">
        <ele>511</ele>
        <time>2013-06-09T08:15:44.801Z</time>
      </trkpt>
      <trkpt lat="47.51301" lon="6.70895">
        <ele>513</ele>
        <time>2013-06-09T08:15:49.794Z</time>
      </trkpt>
      <trkpt lat="47.51303" lon="6.70897">
        <ele>516</ele>
        <time>2013-06-09T08:15:54.791Z</time>
      </trkpt>
      <trkpt lat="47.51304" lon="6.70902">
        <ele>515</ele>
        <time>2013-06-09T08:15:59.793Z</time>
      </trkpt>
      <trkpt lat="47.51304" lon="6.70902">
        <ele>516</ele>
        <time>2013-06-09T08:16:04.792Z</time>
      </trkpt>
      <trkpt lat="47.51304" lon="6.70902">
        <ele>515</ele>
        <time>2013-06-09T08:16:09.800Z</time>
      </trkpt>
      <trkpt lat="47.51307" lon="6.709">
        <ele>516</ele>
        <time>2013-06-09T08:16:14.802Z</time>
      </trkpt>
      <trkpt lat="47.51307" lon="6.709">
        <ele>516</ele>
        <time>2013-06-09T08:16:19.792Z</time>
      </trkpt>
      <trkpt lat="47.51307" lon="6.709">
        <ele>516</ele>
        <time>2013-06-09T08:16:24.794Z</time>
      </trkpt>
      <trkpt lat="47.51307" lon="6.709">
        <ele>516</ele>
        <time>2013-06-09T08:16:29.794Z</time>
      </trkpt>
      <trkpt lat="47.51305" lon="6.70897">
        <ele>518</ele>
        <time>2013-06-09T08:16:34.794Z</time>
      </trkpt>
      <trkpt lat="47.51305" lon="6.70895">
        <ele>518</ele>
        <time>2013-06-09T08:16:39.802Z</time>
      </trkpt>
      <trkpt lat="47.51305" lon="6.70895">
        <ele>518</ele>
        <time>2013-06-09T08:16:44.803Z</time>
      </trkpt>
      <trkpt lat="47.51306" lon="6.70897">
        <ele>520</ele>
        <time>2013-06-09T08:16:49.791Z</time>
      </trkpt>
      <trkpt lat="47.51306" lon="6.70898">
        <ele>520</ele>
        <time>2013-06-09T08:16:54.797Z</time>
      </trkpt>
      <trkpt lat="47.51311" lon="6.70894">
        <ele>518</ele>
        <time>2013-06-09T08:16:59.791Z</time>
      </trkpt>
      <trkpt lat="47.51322" lon="6.70897">
        <ele>516</ele>
        <time>2013-06-09T08:17:04.794Z</time>
      </trkpt>
      <trkpt lat="47.51335" lon="6.70905">
        <ele>514</ele>
        <time>2013-06-09T08:17:09.796Z</time>
      </trkpt>
      <trkpt lat="47.51354" lon="6.70911">
        <ele>511</ele>
        <time>2013-06-09T08:17:14.799Z</time>
      </trkpt>
      <trkpt lat="47.51375" lon="6.70921">
        <ele>510</ele>
        <time>2013-06-09T08:17:19.794Z</time>
      </trkpt>
      <trkpt lat="47.51406" lon="6.70928">
        <ele>507</ele>
        <time>2013-06-09T08:17:24.795Z</time>
      </trkpt>
      <trkpt lat="47.51446" lon="6.70935">
        <ele>505</ele>
        <time>2013-06-09T08:17:29.792Z</time>
      </trkpt>
      <trkpt lat="47.51481" lon="6.70947">
        <ele>503</ele>
        <time>2013-06-09T08:17:34.788Z</time>
      </trkpt>
      <trkpt lat="47.51524" lon="6.70965">
        <ele>501</ele>
        <time>2013-06-09T08:17:39.798Z</time>
      </trkpt>
      <trkpt lat="47.51575" lon="6.70981">
        <ele>495</ele>
        <time>2013-06-09T08:17:44.802Z</time>
      </trkpt>
      <trkpt lat="47.51628" lon="6.70988">
        <ele>490</ele>
        <time>2013-06-09T08:17:49.798Z</time>
      </trkpt>
      <trkpt lat="47.51667" lon="6.71005">
        <ele>482</ele>
        <time>2013-06-09T08:17:54.797Z</time>
      </trkpt>
      <trkpt lat="47.51951" lon="6.70981">
        <ele>454</ele>
        <time>2013-06-09T08:18:34.790Z</time>
      </trkpt>
      <trkpt lat="47.52" lon="6.70976">
        <ele>444</ele>
        <time>2013-06-09T08:18:39.798Z</time>
      </trkpt>
      <trkpt lat="47.52037" lon="6.70995">
        <ele>437</ele>
        <time>2013-06-09T08:18:44.798Z</time>
      </trkpt>
      <trkpt lat="47.52073" lon="6.71011">
        <ele>432</ele>
        <time>2013-06-09T08:18:49.797Z</time>
      </trkpt>
      <trkpt lat="47.52107" lon="6.71034">
        <ele>428</ele>
        <time>2013-06-09T08:18:54.802Z</time>
      </trkpt>
      <trkpt lat="47.52131" lon="6.71055">
        <ele>426</ele>
        <time>2013-06-09T08:18:59.800Z</time>
      </trkpt>
      <trkpt lat="47.52159" lon="6.7108">
        <ele>426</ele>
        <time>2013-06-09T08:19:05.048Z</time>
      </trkpt>
      <trkpt lat="47.52185" lon="6.71109">
        <ele>425</ele>
        <time>2013-06-09T08:19:09.797Z</time>
      </trkpt>
      <trkpt lat="47.52208" lon="6.71136">
        <ele>423</ele>
        <time>2013-06-09T08:19:14.798Z</time>
      </trkpt>
      <trkpt lat="47.52223" lon="6.71159">
        <ele>423</ele>
        <time>2013-06-09T08:19:19.794Z</time>
      </trkpt>
      <trkpt lat="47.52235" lon="6.71181">
        <ele>424</ele>
        <time>2013-06-09T08:19:24.779Z</time>
      </trkpt>
      <trkpt lat="47.5226" lon="6.71213">
        <ele>422</ele>
        <time>2013-06-09T08:19:34.800Z</time>
      </trkpt>
      <trkpt lat="47.52276" lon="6.71222">
        <ele>422</ele>
        <time>2013-06-09T08:19:39.808Z</time>
      </trkpt>
      <trkpt lat="47.52293" lon="6.71202">
        <ele>421</ele>
        <time>2013-06-09T08:19:44.805Z</time>
      </trkpt>
      <trkpt lat="47.52311" lon="6.71177">
        <ele>420</ele>
        <time>2013-06-09T08:19:49.797Z</time>
      </trkpt>
      <trkpt lat="47.52332" lon="6.71158">
        <ele>419</ele>
        <time>2013-06-09T08:19:54.790Z</time>
      </trkpt>
      <trkpt lat="47.52357" lon="6.71172">
        <ele>419</ele>
        <time>2013-06-09T08:19:59.795Z</time>
      </trkpt>
      <trkpt lat="47.52381" lon="6.71188">
        <ele>418</ele>
        <time>2013-06-09T08:20:04.795Z</time>
      </trkpt>
      <trkpt lat="47.52415" lon="6.71186">
        <ele>417</ele>
        <time>2013-06-09T08:20:09.811Z</time>
      </trkpt>
      <trkpt lat="47.5245" lon="6.71181">
        <ele>417</ele>
        <time>2013-06-09T08:20:14.798Z</time>
      </trkpt>
      <trkpt lat="47.52484" lon="6.71186">
        <ele>416</ele>
        <time>2013-06-09T08:20:19.791Z</time>
      </trkpt>
      <trkpt lat="47.52512" lon="6.71221">
        <ele>413</ele>
        <time>2013-06-09T08:20:24.790Z</time>
      </trkpt>
      <trkpt lat="47.52541" lon="6.71245">
        <ele>412</ele>
        <time>2013-06-09T08:20:29.792Z</time>
      </trkpt>
      <trkpt lat="47.52572" lon="6.71259">
        <ele>410</ele>
        <time>2013-06-09T08:20:34.791Z</time>
      </trkpt>
      <trkpt lat="47.52603" lon="6.71263">
        <ele>409</ele>
        <time>2013-06-09T08:20:39.799Z</time>
      </trkpt>
      <trkpt lat="47.52632" lon="6.71273">
        <ele>408</ele>
        <time>2013-06-09T08:20:44.789Z</time>
      </trkpt>
      <trkpt lat="47.52659" lon="6.71277">
        <ele>408</ele>
        <time>2013-06-09T08:20:49.792Z</time>
      </trkpt>
      <trkpt lat="47.5269" lon="6.71276">
        <ele>410</ele>
        <time>2013-06-09T08:20:54.788Z</time>
      </trkpt>
      <trkpt lat="47.52716" lon="6.71258">
        <ele>408</ele>
        <time>2013-06-09T08:20:59.794Z</time>
      </trkpt>
      <trkpt lat="47.52713" lon="6.71235">
        <ele>407</ele>
        <time>2013-06-09T08:21:04.791Z</time>
      </trkpt>
      <trkpt lat="47.52709" lon="6.71206">
        <ele>407</ele>
        <time>2013-06-09T08:21:09.798Z</time>
      </trkpt>
      <trkpt lat="47.52714" lon="6.71194">
        <ele>407</ele>
        <time>2013-06-09T08:21:14.791Z</time>
      </trkpt>
      <trkpt lat="47.52724" lon="6.71186">
        <ele>407</ele>
        <time>2013-06-09T08:21:19.787Z</time>
      </trkpt>
      <trkpt lat="47.52736" lon="6.71166">
        <ele>407</ele>
        <time>2013-06-09T08:21:24.788Z</time>
      </trkpt>
      <trkpt lat="47.52742" lon="6.71128">
        <ele>407</ele>
        <time>2013-06-09T08:21:29.785Z</time>
      </trkpt>
      <trkpt lat="47.52744" lon="6.71074">
        <ele>404</ele>
        <time>2013-06-09T08:21:34.790Z</time>
      </trkpt>
      <trkpt lat="47.52744" lon="6.71027">
        <ele>403</ele>
        <time>2013-06-09T08:21:39.800Z</time>
      </trkpt>
      <trkpt lat="47.52736" lon="6.71002">
        <ele>403</ele>
        <time>2013-06-09T08:21:44.791Z</time>
      </trkpt>
      <trkpt lat="47.52729" lon="6.7098">
        <ele>402</ele>
        <time>2013-06-09T08:21:49.797Z</time>
      </trkpt>
      <trkpt lat="47.5273" lon="6.70949">
        <ele>400</ele>
        <time>2013-06-09T08:21:54.799Z</time>
      </trkpt>
      <trkpt lat="47.52732" lon="6.70918">
        <ele>398</ele>
        <time>2013-06-09T08:21:59.794Z</time>
      </trkpt>
      <trkpt lat="47.52738" lon="6.70893">
        <ele>399</ele>
        <time>2013-06-09T08:22:04.801Z</time>
      </trkpt>
      <trkpt lat="47.5274" lon="6.70864">
        <ele>400</ele>
        <time>2013-06-09T08:22:09.798Z</time>
      </trkpt>
      <trkpt lat="47.52739" lon="6.70838">
        <ele>401</ele>
        <time>2013-06-09T08:22:14.791Z</time>
      </trkpt>
      <trkpt lat="47.52741" lon="6.70806">
        <ele>402</ele>
        <time>2013-06-09T08:22:19.790Z</time>
      </trkpt>
      <trkpt lat="47.52749" lon="6.70767">
        <ele>400</ele>
        <time>2013-06-09T08:22:24.791Z</time>
      </trkpt>
      <trkpt lat="47.52751" lon="6.70738">
        <ele>399</ele>
        <time>2013-06-09T08:22:29.790Z</time>
      </trkpt>
      <trkpt lat="47.52754" lon="6.70707">
        <ele>398</ele>
        <time>2013-06-09T08:22:34.790Z</time>
      </trkpt>
      <trkpt lat="47.52753" lon="6.70679">
        <ele>399</ele>
        <time>2013-06-09T08:22:39.799Z</time>
      </trkpt>
      <trkpt lat="47.5275" lon="6.70651">
        <ele>399</ele>
        <time>2013-06-09T08:22:44.792Z</time>
      </trkpt>
      <trkpt lat="47.52749" lon="6.70628">
        <ele>400</ele>
        <time>2013-06-09T08:22:49.790Z</time>
      </trkpt>
      <trkpt lat="47.52753" lon="6.70602">
        <ele>398</ele>
        <time>2013-06-09T08:22:54.791Z</time>
      </trkpt>
      <trkpt lat="47.52771" lon="6.70598">
        <ele>398</ele>
        <time>2013-06-09T08:22:59.794Z</time>
      </trkpt>
      <trkpt lat="47.52785" lon="6.70592">
        <ele>398</ele>
        <time>2013-06-09T08:23:04.796Z</time>
      </trkpt>
      <trkpt lat="47.5279" lon="6.70569">
        <ele>398</ele>
        <time>2013-06-09T08:23:09.800Z</time>
      </trkpt>
      <trkpt lat="47.52792" lon="6.70554">
        <ele>398</ele>
        <time>2013-06-09T08:23:14.792Z</time>
      </trkpt>
      <trkpt lat="47.52801" lon="6.70558">
        <ele>397</ele>
        <time>2013-06-09T08:23:19.791Z</time>
      </trkpt>
      <trkpt lat="47.52811" lon="6.70571">
        <ele>398</ele>
        <time>2013-06-09T08:23:24.791Z</time>
      </trkpt>
      <trkpt lat="47.52821" lon="6.70576">
        <ele>398</ele>
        <time>2013-06-09T08:23:29.781Z</time>
      </trkpt>
      <trkpt lat="47.52831" lon="6.70578">
        <ele>398</ele>
        <time>2013-06-09T08:23:34.788Z</time>
      </trkpt>
      <trkpt lat="47.52842" lon="6.70577">
        <ele>399</ele>
        <time>2013-06-09T08:23:39.797Z</time>
      </trkpt>
      <trkpt lat="47.52846" lon="6.70567">
        <ele>399</ele>
        <time>2013-06-09T08:23:44.788Z</time>
      </trkpt>
      <trkpt lat="47.52845" lon="6.70552">
        <ele>400</ele>
        <time>2013-06-09T08:23:49.789Z</time>
      </trkpt>
      <trkpt lat="47.52846" lon="6.70537">
        <ele>402</ele>
        <time>2013-06-09T08:23:55.357Z</time>
      </trkpt>
      <trkpt lat="47.52844" lon="6.70518">
        <ele>402</ele>
        <time>2013-06-09T08:23:59.790Z</time>
      </trkpt>
      <trkpt lat="47.52837" lon="6.70485">
        <ele>399</ele>
        <time>2013-06-09T08:24:04.775Z</time>
      </trkpt>
      <trkpt lat="47.52827" lon="6.70444">
        <ele>399</ele>
        <time>2013-06-09T08:24:14.794Z</time>
      </trkpt>
      <trkpt lat="47.52833" lon="6.70439">
        <ele>400</ele>
        <time>2013-06-09T08:24:19.794Z</time>
      </trkpt>
      <trkpt lat="47.52844" lon="6.70439">
        <ele>400</ele>
        <time>2013-06-09T08:24:24.794Z</time>
      </trkpt>
      <trkpt lat="47.52855" lon="6.70439">
        <ele>401</ele>
        <time>2013-06-09T08:24:29.788Z</time>
      </trkpt>
      <trkpt lat="47.52863" lon="6.70443">
        <ele>402</ele>
        <time>2013-06-09T08:24:34.790Z</time>
      </trkpt>
      <trkpt lat="47.52872" lon="6.70447">
        <ele>403</ele>
        <time>2013-06-09T08:24:39.789Z</time>
      </trkpt>
      <trkpt lat="47.5288" lon="6.70447">
        <ele>404</ele>
        <time>2013-06-09T08:24:44.793Z</time>
      </trkpt>
      <trkpt lat="47.52891" lon="6.70449">
        <ele>405</ele>
        <time>2013-06-09T08:24:49.791Z</time>
      </trkpt>
      <trkpt lat="47.52901" lon="6.70451">
        <ele>406</ele>
        <time>2013-06-09T08:24:54.790Z</time>
      </trkpt>
      <trkpt lat="47.52911" lon="6.70452">
        <ele>406</ele>
        <time>2013-06-09T08:24:59.791Z</time>
      </trkpt>
      <trkpt lat="47.52919" lon="6.70448">
        <ele>407</ele>
        <time>2013-06-09T08:25:04.790Z</time>
      </trkpt>
      <trkpt lat="47.52925" lon="6.70447">
        <ele>408</ele>
        <time>2013-06-09T08:25:09.798Z</time>
      </trkpt>
      <trkpt lat="47.52933" lon="6.70449">
        <ele>408</ele>
        <time>2013-06-09T08:25:14.797Z</time>
      </trkpt>
      <trkpt lat="47.52941" lon="6.70449">
        <ele>408</ele>
        <time>2013-06-09T08:25:19.791Z</time>
      </trkpt>
      <trkpt lat="47.52951" lon="6.7045">
        <ele>408</ele>
        <time>2013-06-09T08:25:24.797Z</time>
      </trkpt>
      <trkpt lat="47.52961" lon="6.70452">
        <ele>408</ele>
        <time>2013-06-09T08:25:29.792Z</time>
      </trkpt>
      <trkpt lat="47.52968" lon="6.70454">
        <ele>408</ele>
        <time>2013-06-09T08:25:34.791Z</time>
      </trkpt>
      <trkpt lat="47.52974" lon="6.70459">
        <ele>408</ele>
        <time>2013-06-09T08:25:39.800Z</time>
      </trkpt>
      <trkpt lat="47.52981" lon="6.70462">
        <ele>410</ele>
        <time>2013-06-09T08:25:44.794Z</time>
      </trkpt>
      <trkpt lat="47.52989" lon="6.70461">
        <ele>411</ele>
        <time>2013-06-09T08:25:49.788Z</time>
      </trkpt>
      <trkpt lat="47.52996" lon="6.70466">
        <ele>412</ele>
        <time>2013-06-09T08:25:54.788Z</time>
      </trkpt>
      <trkpt lat="47.53002" lon="6.70469">
        <ele>414</ele>
        <time>2013-06-09T08:25:59.792Z</time>
      </trkpt>
      <trkpt lat="47.53008" lon="6.70473">
        <ele>415</ele>
        <time>2013-06-09T08:26:04.788Z</time>
      </trkpt>
      <trkpt lat="47.5302" lon="6.70474">
        <ele>417</ele>
        <time>2013-06-09T08:26:09.797Z</time>
      </trkpt>
      <trkpt lat="47.53028" lon="6.70476">
        <ele>418</ele>
        <time>2013-06-09T08:26:14.792Z</time>
      </trkpt>
      <trkpt lat="47.53038" lon="6.70481">
        <ele>420</ele>
        <time>2013-06-09T08:26:19.792Z</time>
      </trkpt>
      <trkpt lat="47.53042" lon="6.70485">
        <ele>419</ele>
        <time>2013-06-09T08:26:24.791Z</time>
      </trkpt>
      <trkpt lat="47.53042" lon="6.70485">
        <ele>419</ele>
        <time>2013-06-09T08:26:29.796Z</time>
      </trkpt>
      <trkpt lat="47.53041" lon="6.70489">
        <ele>419</ele>
        <time>2013-06-09T08:26:34.791Z</time>
      </trkpt>
      <trkpt lat="47.53038" lon="6.70486">
        <ele>419</ele>
        <time>2013-06-09T08:26:39.802Z</time>
      </trkpt>
      <trkpt lat="47.53038" lon="6.70485">
        <ele>419</ele>
        <time>2013-06-09T08:26:44.790Z</time>
      </trkpt>
      <trkpt lat="47.53034" lon="6.70484">
        <ele>419</ele>
        <time>2013-06-09T08:26:49.799Z</time>
      </trkpt>
      <trkpt lat="47.53029" lon="6.70477">
        <ele>421</ele>
        <time>2013-06-09T08:26:54.790Z</time>
      </trkpt>
      <trkpt lat="47.53024" lon="6.70473">
        <ele>422</ele>
        <time>2013-06-09T08:26:59.791Z</time>
      </trkpt>
      <trkpt lat="47.53022" lon="6.70469">
        <ele>422</ele>
        <time>2013-06-09T08:27:04.794Z</time>
      </trkpt>
      <trkpt lat="47.53022" lon="6.70464">
        <ele>424</ele>
        <time>2013-06-09T08:27:09.801Z</time>
      </trkpt>
      <trkpt lat="47.5302" lon="6.70451">
        <ele>424</ele>
        <time>2013-06-09T08:27:14.792Z</time>
      </trkpt>
      <trkpt lat="47.53023" lon="6.70434">
        <ele>423</ele>
        <time>2013-06-09T08:27:19.792Z</time>
      </trkpt>
      <trkpt lat="47.53029" lon="6.70403">
        <ele>421</ele>
        <time>2013-06-09T08:27:24.795Z</time>
      </trkpt>
      <trkpt lat="47.53033" lon="6.70382">
        <ele>420</ele>
        <time>2013-06-09T08:27:29.794Z</time>
      </trkpt>
      <trkpt lat="47.53036" lon="6.70368">
        <ele>421</ele>
        <time>2013-06-09T08:27:34.784Z</time>
      </trkpt>
      <trkpt lat="47.53037" lon="6.70354">
        <ele>420</ele>
        <time>2013-06-09T08:27:39.794Z</time>
      </trkpt>
      <trkpt lat="47.53037" lon="6.7034">
        <ele>419</ele>
        <time>2013-06-09T08:27:44.784Z</time>
      </trkpt>
      <trkpt lat="47.53045" lon="6.70317">
        <ele>416</ele>
        <time>2013-06-09T08:27:49.784Z</time>
      </trkpt>
      <trkpt lat="47.53053" lon="6.703">
        <ele>414</ele>
        <time>2013-06-09T08:27:54.792Z</time>
      </trkpt>
      <trkpt lat="47.53059" lon="6.70281">
        <ele>414</ele>
        <time>2013-06-09T08:27:59.794Z</time>
      </trkpt>
      <trkpt lat="47.53068" lon="6.70266">
        <ele>413</ele>
        <time>2013-06-09T08:28:04.776Z</time>
      </trkpt>
      <trkpt lat="47.53078" lon="6.70253">
        <ele>412</ele>
        <time>2013-06-09T08:28:09.801Z</time>
      </trkpt>
      <trkpt lat="47.53087" lon="6.70236">
        <ele>411</ele>
        <time>2013-06-09T08:28:14.792Z</time>
      </trkpt>
      <trkpt lat="47.53097" lon="6.70222">
        <ele>412</ele>
        <time>2013-06-09T08:28:19.795Z</time>
      </trkpt>
      <trkpt lat="47.53106" lon="6.70208">
        <ele>413</ele>
        <time>2013-06-09T08:28:24.792Z</time>
      </trkpt>
      <trkpt lat="47.53114" lon="6.70201">
        <ele>412</ele>
        <time>2013-06-09T08:28:29.795Z</time>
      </trkpt>
      <trkpt lat="47.53121" lon="6.70193">
        <ele>413</ele>
        <time>2013-06-09T08:28:34.792Z</time>
      </trkpt>
      <trkpt lat="47.53126" lon="6.7019">
        <ele>413</ele>
        <time>2013-06-09T08:28:39.803Z</time>
      </trkpt>
      <trkpt lat="47.53132" lon="6.70188">
        <ele>414</ele>
        <time>2013-06-09T08:28:44.803Z</time>
      </trkpt>
      <trkpt lat="47.53136" lon="6.70182">
        <ele>412</ele>
        <time>2013-06-09T08:28:49.779Z</time>
      </trkpt>
      <trkpt lat="47.53139" lon="6.70174">
        <ele>410</ele>
        <time>2013-06-09T08:28:59.795Z</time>
      </trkpt>
      <trkpt lat="47.53141" lon="6.70168">
        <ele>412</ele>
        <time>2013-06-09T08:29:04.795Z</time>
      </trkpt>
      <trkpt lat="47.53145" lon="6.70161">
        <ele>411</ele>
        <time>2013-06-09T08:29:09.804Z</time>
      </trkpt>
      <trkpt lat="47.53148" lon="6.70153">
        <ele>412</ele>
        <time>2013-06-09T08:29:14.804Z</time>
      </trkpt>
      <trkpt lat="47.53153" lon="6.70148">
        <ele>411</ele>
        <time>2013-06-09T08:29:19.802Z</time>
      </trkpt>
      <trkpt lat="47.53157" lon="6.70144">
        <ele>411</ele>
        <time>2013-06-09T08:29:24.804Z</time>
      </trkpt>
      <trkpt lat="47.53161" lon="6.70144">
        <ele>410</ele>
        <time>2013-06-09T08:29:29.802Z</time>
      </trkpt>
      <trkpt lat="47.53165" lon="6.70139">
        <ele>411</ele>
        <time>2013-06-09T08:29:34.802Z</time>
      </trkpt>
      <trkpt lat="47.5317" lon="6.70131">
        <ele>411</ele>
        <time>2013-06-09T08:29:39.817Z</time>
      </trkpt>
      <trkpt lat="47.53175" lon="6.70126">
        <ele>410</ele>
        <time>2013-06-09T08:29:44.796Z</time>
      </trkpt>
      <trkpt lat="47.53176" lon="6.70121">
        <ele>410</ele>
        <time>2013-06-09T08:29:49.793Z</time>
      </trkpt>
      <trkpt lat="47.5318" lon="6.70116">
        <ele>410</ele>
        <time>2013-06-09T08:29:54.790Z</time>
      </trkpt>
      <trkpt lat="47.5318" lon="6.70109">
        <ele>410</ele>
        <time>2013-06-09T08:29:59.795Z</time>
      </trkpt>
      <trkpt lat="47.53183" lon="6.70107">
        <ele>410</ele>
        <time>2013-06-09T08:30:04.794Z</time>
      </trkpt>
      <trkpt lat="47.53187" lon="6.70101">
        <ele>409</ele>
        <time>2013-06-09T08:30:09.811Z</time>
      </trkpt>
      <trkpt lat="47.53191" lon="6.70095">
        <ele>408</ele>
        <time>2013-06-09T08:30:14.802Z</time>
      </trkpt>
      <trkpt lat="47.53196" lon="6.70093">
        <ele>409</ele>
        <time>2013-06-09T08:30:19.794Z</time>
      </trkpt>
      <trkpt lat="47.53202" lon="6.70087">
        <ele>409</ele>
        <time>2013-06-09T08:30:24.799Z</time>
      </trkpt>
      <trkpt lat="47.53208" lon="6.70082">
        <ele>409</ele>
        <time>2013-06-09T08:30:29.800Z</time>
      </trkpt>
      <trkpt lat="47.53213" lon="6.70077">
        <ele>410</ele>
        <time>2013-06-09T08:30:34.800Z</time>
      </trkpt>
      <trkpt lat="47.53216" lon="6.70077">
        <ele>410</ele>
        <time>2013-06-09T08:30:39.804Z</time>
      </trkpt>
      <trkpt lat="47.53219" lon="6.70069">
        <ele>410</ele>
        <time>2013-06-09T08:30:44.801Z</time>
      </trkpt>
      <trkpt lat="47.53221" lon="6.70059">
        <ele>412</ele>
        <time>2013-06-09T08:30:49.800Z</time>
      </trkpt>
      <trkpt lat="47.53227" lon="6.70051">
        <ele>411</ele>
        <time>2013-06-09T08:30:54.794Z</time>
      </trkpt>
      <trkpt lat="47.53236" lon="6.7004">
        <ele>411</ele>
        <time>2013-06-09T08:30:59.800Z</time>
      </trkpt>
      <trkpt lat="47.53245" lon="6.70029">
        <ele>411</ele>
        <time>2013-06-09T08:31:04.794Z</time>
      </trkpt>
      <trkpt lat="47.53258" lon="6.70008">
        <ele>411</ele>
        <time>2013-06-09T08:31:09.802Z</time>
      </trkpt>
      <trkpt lat="47.5327" lon="6.69991">
        <ele>409</ele>
        <time>2013-06-09T08:31:14.792Z</time>
      </trkpt>
      <trkpt lat="47.5328" lon="6.69976">
        <ele>410</ele>
        <time>2013-06-09T08:31:19.794Z</time>
      </trkpt>
      <trkpt lat="47.53291" lon="6.69962">
        <ele>411</ele>
        <time>2013-06-09T08:31:24.792Z</time>
      </trkpt>
      <trkpt lat="47.53305" lon="6.69941">
        <ele>410</ele>
        <time>2013-06-09T08:31:29.794Z</time>
      </trkpt>
      <trkpt lat="47.53316" lon="6.69932">
        <ele>409</ele>
        <time>2013-06-09T08:31:34.797Z</time>
      </trkpt>
      <trkpt lat="47.53322" lon="6.69923">
        <ele>409</ele>
        <time>2013-06-09T08:31:39.804Z</time>
      </trkpt>
      <trkpt lat="47.53329" lon="6.69912">
        <ele>407</ele>
        <time>2013-06-09T08:31:44.800Z</time>
      </trkpt>
      <trkpt lat="47.53334" lon="6.69895">
        <ele>404</ele>
        <time>2013-06-09T08:31:49.795Z</time>
      </trkpt>
      <trkpt lat="47.53339" lon="6.69877">
        <ele>403</ele>
        <time>2013-06-09T08:31:54.795Z</time>
      </trkpt>
      <trkpt lat="47.53342" lon="6.69851">
        <ele>401</ele>
        <time>2013-06-09T08:31:59.802Z</time>
      </trkpt>
      <trkpt lat="47.53341" lon="6.69829">
        <ele>400</ele>
        <time>2013-06-09T08:32:04.795Z</time>
      </trkpt>
      <trkpt lat="47.53338" lon="6.69818">
        <ele>400</ele>
        <time>2013-06-09T08:32:09.803Z</time>
      </trkpt>
      <trkpt lat="47.53334" lon="6.69805">
        <ele>399</ele>
        <time>2013-06-09T08:32:14.794Z</time>
      </trkpt>
      <trkpt lat="47.53333" lon="6.69796">
        <ele>399</ele>
        <time>2013-06-09T08:32:19.792Z</time>
      </trkpt>
      <trkpt lat="47.53331" lon="6.6978">
        <ele>398</ele>
        <time>2013-06-09T08:32:24.794Z</time>
      </trkpt>
      <trkpt lat="47.5333" lon="6.69761">
        <ele>399</ele>
        <time>2013-06-09T08:32:29.792Z</time>
      </trkpt>
      <trkpt lat="47.53326" lon="6.69741">
        <ele>398</ele>
        <time>2013-06-09T08:32:34.797Z</time>
      </trkpt>
      <trkpt lat="47.5332" lon="6.69717">
        <ele>397</ele>
        <time>2013-06-09T08:32:39.892Z</time>
      </trkpt>
      <trkpt lat="47.53317" lon="6.69698">
        <ele>397</ele>
        <time>2013-06-09T08:32:44.795Z</time>
      </trkpt>
      <trkpt lat="47.53316" lon="6.69679">
        <ele>396</ele>
        <time>2013-06-09T08:32:49.794Z</time>
      </trkpt>
      <trkpt lat="47.53314" lon="6.69659">
        <ele>397</ele>
        <time>2013-06-09T08:32:54.794Z</time>
      </trkpt>
      <trkpt lat="47.5331" lon="6.69639">
        <ele>396</ele>
        <time>2013-06-09T08:32:59.794Z</time>
      </trkpt>
      <trkpt lat="47.53308" lon="6.69619">
        <ele>397</ele>
        <time>2013-06-09T08:33:04.794Z</time>
      </trkpt>
      <trkpt lat="47.53307" lon="6.69599">
        <ele>395</ele>
        <time>2013-06-09T08:33:09.804Z</time>
      </trkpt>
      <trkpt lat="47.53305" lon="6.69581">
        <ele>395</ele>
        <time>2013-06-09T08:33:14.794Z</time>
      </trkpt>
      <trkpt lat="47.53301" lon="6.69563">
        <ele>396</ele>
        <time>2013-06-09T08:33:19.799Z</time>
      </trkpt>
      <trkpt lat="47.533" lon="6.69552">
        <ele>396</ele>
        <time>2013-06-09T08:33:24.804Z</time>
      </trkpt>
      <trkpt lat="47.533" lon="6.69553">
        <ele>396</ele>
        <time>2013-06-09T08:33:29.795Z</time>
      </trkpt>
      <trkpt lat="47.53296" lon="6.69552">
        <ele>397</ele>
        <time>2013-06-09T08:33:34.796Z</time>
      </trkpt>
      <trkpt lat="47.53297" lon="6.69551">
        <ele>397</ele>
        <time>2013-06-09T08:33:39.787Z</time>
      </trkpt>
      <trkpt lat="47.53295" lon="6.69547">
        <ele>398</ele>
        <time>2013-06-09T08:33:49.794Z</time>
      </trkpt>
      <trkpt lat="47.53296" lon="6.69547">
        <ele>399</ele>
        <time>2013-06-09T08:33:54.797Z</time>
      </trkpt>
      <trkpt lat="47.53296" lon="6.69547">
        <ele>399</ele>
        <time>2013-06-09T08:33:59.797Z</time>
      </trkpt>
      <trkpt lat="47.53296" lon="6.69546">
        <ele>399</ele>
        <time>2013-06-09T08:34:04.796Z</time>
      </trkpt>
      <trkpt lat="47.53295" lon="6.69544">
        <ele>400</ele>
        <time>2013-06-09T08:34:09.804Z</time>
      </trkpt>
      <trkpt lat="47.53296" lon="6.69534">
        <ele>400</ele>
        <time>2013-06-09T08:34:14.786Z</time>
      </trkpt>
      <trkpt lat="47.53296" lon="6.69526">
        <ele>400</ele>
        <time>2013-06-09T08:34:19.794Z</time>
      </trkpt>
      <trkpt lat="47.53296" lon="6.69527">
        <ele>400</ele>
        <time>2013-06-09T08:34:24.794Z</time>
      </trkpt>
      <trkpt lat="47.53296" lon="6.69527">
        <ele>400</ele>
        <time>2013-06-09T08:34:29.799Z</time>
      </trkpt>
      <trkpt lat="47.53296" lon="6.69527">
        <ele>400</ele>
        <time>2013-06-09T08:34:34.795Z</time>
      </trkpt>
      <trkpt lat="47.53296" lon="6.69527">
        <ele>400</ele>
        <time>2013-06-09T08:34:39.806Z</time>
      </trkpt>
      <trkpt lat="47.53296" lon="6.69527">
        <ele>400</ele>
        <time>2013-06-09T08:34:44.796Z</time>
      </trkpt>
      <trkpt lat="47.53296" lon="6.69526">
        <ele>400</ele>
        <time>2013-06-09T08:34:49.797Z</time>
      </trkpt>
      <trkpt lat="47.53291" lon="6.69522">
        <ele>400</ele>
        <time>2013-06-09T08:34:54.804Z</time>
      </trkpt>
      <trkpt lat="47.53276" lon="6.69526">
        <ele>399</ele>
        <time>2013-06-09T08:34:59.795Z</time>
      </trkpt>
      <trkpt lat="47.53264" lon="6.69528">
        <ele>399</ele>
        <time>2013-06-09T08:35:04.797Z</time>
      </trkpt>
      <trkpt lat="47.53249" lon="6.69529">
        <ele>398</ele>
        <time>2013-06-09T08:35:09.815Z</time>
      </trkpt>
      <trkpt lat="47.53235" lon="6.69529">
        <ele>398</ele>
        <time>2013-06-09T08:35:14.794Z</time>
      </trkpt>
      <trkpt lat="47.53222" lon="6.69534">
        <ele>398</ele>
        <time>2013-06-09T08:35:19.799Z</time>
      </trkpt>
      <trkpt lat="47.53208" lon="6.69538">
        <ele>398</ele>
        <time>2013-06-09T08:35:24.805Z</time>
      </trkpt>
      <trkpt lat="47.53193" lon="6.69542">
        <ele>396</ele>
        <time>2013-06-09T08:35:29.792Z</time>
      </trkpt>
      <trkpt lat="47.53179" lon="6.69545">
        <ele>397</ele>
        <time>2013-06-09T08:35:34.795Z</time>
      </trkpt>
      <trkpt lat="47.53164" lon="6.69546">
        <ele>398</ele>
        <time>2013-06-09T08:35:39.802Z</time>
      </trkpt>
      <trkpt lat="47.53151" lon="6.69548">
        <ele>399</ele>
        <time>2013-06-09T08:35:44.792Z</time>
      </trkpt>
      <trkpt lat="47.53137" lon="6.69543">
        <ele>398</ele>
        <time>2013-06-09T08:35:49.791Z</time>
      </trkpt>
      <trkpt lat="47.53133" lon="6.69523">
        <ele>398</ele>
        <time>2013-06-09T08:35:54.793Z</time>
      </trkpt>
      <trkpt lat="47.53132" lon="6.69497">
        <ele>399</ele>
        <time>2013-06-09T08:35:59.798Z</time>
      </trkpt>
      <trkpt lat="47.53129" lon="6.69473">
        <ele>400</ele>
        <time>2013-06-09T08:36:04.798Z</time>
      </trkpt>
      <trkpt lat="47.53127" lon="6.69451">
        <ele>400</ele>
        <time>2013-06-09T08:36:09.814Z</time>
      </trkpt>
      <trkpt lat="47.53125" lon="6.69432">
        <ele>400</ele>
        <time>2013-06-09T08:36:14.798Z</time>
      </trkpt>
      <trkpt lat="47.53122" lon="6.69413">
        <ele>401</ele>
        <time>2013-06-09T08:36:19.797Z</time>
      </trkpt>
      <trkpt lat="47.53121" lon="6.69394">
        <ele>401</ele>
        <time>2013-06-09T08:36:24.804Z</time>
      </trkpt>
      <trkpt lat="47.53121" lon="6.69375">
        <ele>402</ele>
        <time>2013-06-09T08:36:29.812Z</time>
      </trkpt>
      <trkpt lat="47.5312" lon="6.69355">
        <ele>403</ele>
        <time>2013-06-09T08:36:34.806Z</time>
      </trkpt>
      <trkpt lat="47.5312" lon="6.69335">
        <ele>404</ele>
        <time>2013-06-09T08:36:39.808Z</time>
      </trkpt>
      <trkpt lat="47.53117" lon="6.69313">
        <ele>404</ele>
        <time>2013-06-09T08:36:44.809Z</time>
      </trkpt>
      <trkpt lat="47.53115" lon="6.693">
        <ele>405</ele>
        <time>2013-06-09T08:36:49.797Z</time>
      </trkpt>
      <trkpt lat="47.53116" lon="6.69296">
        <ele>405</ele>
        <time>2013-06-09T08:36:54.797Z</time>
      </trkpt>
      <trkpt lat="47.53116" lon="6.69289">
        <ele>406</ele>
        <time>2013-06-09T08:36:59.797Z</time>
      </trkpt>
      <trkpt lat="47.53116" lon="6.69282">
        <ele>406</ele>
        <time>2013-06-09T08:37:04.809Z</time>
      </trkpt>
      <trkpt lat="47.53116" lon="6.69275">
        <ele>406</ele>
        <time>2013-06-09T08:37:09.815Z</time>
      </trkpt>
      <trkpt lat="47.53115" lon="6.69268">
        <ele>407</ele>
        <time>2013-06-09T08:37:14.798Z</time>
      </trkpt>
      <trkpt lat="47.53114" lon="6.69261">
        <ele>407</ele>
        <time>2013-06-09T08:37:19.798Z</time>
      </trkpt>
      <trkpt lat="47.53115" lon="6.69257">
        <ele>407</ele>
        <time>2013-06-09T08:37:24.798Z</time>
      </trkpt>
      <trkpt lat="47.53114" lon="6.69246">
        <ele>407</ele>
        <time>2013-06-09T08:37:29.798Z</time>
      </trkpt>
      <trkpt lat="47.53114" lon="6.69234">
        <ele>407</ele>
        <time>2013-06-09T08:37:34.797Z</time>
      </trkpt>
      <trkpt lat="47.53113" lon="6.6922">
        <ele>407</ele>
        <time>2013-06-09T08:37:39.808Z</time>
      </trkpt>
      <trkpt lat="47.53112" lon="6.69208">
        <ele>408</ele>
        <time>2013-06-09T08:37:44.804Z</time>
      </trkpt>
      <trkpt lat="47.53111" lon="6.69195">
        <ele>409</ele>
        <time>2013-06-09T08:37:49.804Z</time>
      </trkpt>
      <trkpt lat="47.53111" lon="6.69184">
        <ele>409</ele>
        <time>2013-06-09T08:37:54.800Z</time>
      </trkpt>
      <trkpt lat="47.5311" lon="6.69169">
        <ele>410</ele>
        <time>2013-06-09T08:37:59.800Z</time>
      </trkpt>
      <trkpt lat="47.53109" lon="6.69154">
        <ele>411</ele>
        <time>2013-06-09T08:38:04.814Z</time>
      </trkpt>
      <trkpt lat="47.53107" lon="6.69128">
        <ele>412</ele>
        <time>2013-06-09T08:38:16.433Z</time>
      </trkpt>
      <trkpt lat="47.53107" lon="6.69116">
        <ele>412</ele>
        <time>2013-06-09T08:38:21.425Z</time>
      </trkpt>
      <trkpt lat="47.53106" lon="6.69104">
        <ele>413</ele>
        <time>2013-06-09T08:38:26.422Z</time>
      </trkpt>
      <trkpt lat="47.53105" lon="6.69091">
        <ele>414</ele>
        <time>2013-06-09T08:38:31.425Z</time>
      </trkpt>
      <trkpt lat="47.53104" lon="6.69078">
        <ele>414</ele>
        <time>2013-06-09T08:38:36.408Z</time>
      </trkpt>
      <trkpt lat="47.53101" lon="6.69047">
        <ele>414</ele>
        <time>2013-06-09T08:38:46.423Z</time>
      </trkpt>
      <trkpt lat="47.531" lon="6.69031">
        <ele>415</ele>
        <time>2013-06-09T08:38:51.426Z</time>
      </trkpt>
      <trkpt lat="47.53098" lon="6.69015">
        <ele>416</ele>
        <time>2013-06-09T08:38:56.426Z</time>
      </trkpt>
      <trkpt lat="47.53095" lon="6.6886">
        <ele>422</ele>
        <time>2013-06-09T08:39:36.428Z</time>
      </trkpt>
      <trkpt lat="47.53094" lon="6.68841">
        <ele>422</ele>
        <time>2013-06-09T08:39:41.444Z</time>
      </trkpt>
      <trkpt lat="47.53092" lon="6.6882">
        <ele>423</ele>
        <time>2013-06-09T08:39:46.429Z</time>
      </trkpt>
      <trkpt lat="47.53091" lon="6.688">
        <ele>423</ele>
        <time>2013-06-09T08:39:51.426Z</time>
      </trkpt>
      <trkpt lat="47.53089" lon="6.6878">
        <ele>423</ele>
        <time>2013-06-09T08:39:56.426Z</time>
      </trkpt>
      <trkpt lat="47.53089" lon="6.68744">
        <ele>423</ele>
        <time>2013-06-09T08:40:08.164Z</time>
      </trkpt>
      <trkpt lat="47.53088" lon="6.68723">
        <ele>423</ele>
        <time>2013-06-09T08:40:11.434Z</time>
      </trkpt>
      <trkpt lat="47.53088" lon="6.68705">
        <ele>424</ele>
        <time>2013-06-09T08:40:16.422Z</time>
      </trkpt>
      <trkpt lat="47.53087" lon="6.68689">
        <ele>425</ele>
        <time>2013-06-09T08:40:21.407Z</time>
      </trkpt>
      <trkpt lat="47.53084" lon="6.68651">
        <ele>425</ele>
        <time>2013-06-09T08:40:31.423Z</time>
      </trkpt>
      <trkpt lat="47.53083" lon="6.68633">
        <ele>425</ele>
        <time>2013-06-09T08:40:36.438Z</time>
      </trkpt>
      <trkpt lat="47.53081" lon="6.68614">
        <ele>426</ele>
        <time>2013-06-09T08:40:41.437Z</time>
      </trkpt>
      <trkpt lat="47.53078" lon="6.68595">
        <ele>427</ele>
        <time>2013-06-09T08:40:46.428Z</time>
      </trkpt>
      <trkpt lat="47.53075" lon="6.68575">
        <ele>428</ele>
        <time>2013-06-09T08:40:51.428Z</time>
      </trkpt>
      <trkpt lat="47.53071" lon="6.68556">
        <ele>429</ele>
        <time>2013-06-09T08:40:56.433Z</time>
      </trkpt>
      <trkpt lat="47.53043" lon="6.68418">
        <ele>434</ele>
        <time>2013-06-09T08:41:31.415Z</time>
      </trkpt>
      <trkpt lat="47.53038" lon="6.68399">
        <ele>434</ele>
        <time>2013-06-09T08:41:36.423Z</time>
      </trkpt>
      <trkpt lat="47.53034" lon="6.68389">
        <ele>435</ele>
        <time>2013-06-09T08:41:41.433Z</time>
      </trkpt>
      <trkpt lat="47.5303" lon="6.68384">
        <ele>435</ele>
        <time>2013-06-09T08:41:46.433Z</time>
      </trkpt>
      <trkpt lat="47.53026" lon="6.68378">
        <ele>435</ele>
        <time>2013-06-09T08:41:51.424Z</time>
      </trkpt>
      <trkpt lat="47.53028" lon="6.68375">
        <ele>435</ele>
        <time>2013-06-09T08:41:56.423Z</time>
      </trkpt>
      <trkpt lat="47.53027" lon="6.68379">
        <ele>435</ele>
        <time>2013-06-09T08:42:01.650Z</time>
      </trkpt>
      <trkpt lat="47.53028" lon="6.68374">
        <ele>434</ele>
        <time>2013-06-09T08:42:06.425Z</time>
      </trkpt>
      <trkpt lat="47.53028" lon="6.68374">
        <ele>435</ele>
        <time>2013-06-09T08:42:11.436Z</time>
      </trkpt>
      <trkpt lat="47.53027" lon="6.68373">
        <ele>435</ele>
        <time>2013-06-09T08:42:16.408Z</time>
      </trkpt>
      <trkpt lat="47.53027" lon="6.68373">
        <ele>435</ele>
        <time>2013-06-09T08:42:26.423Z</time>
      </trkpt>
      <trkpt lat="47.53027" lon="6.68373">
        <ele>435</ele>
        <time>2013-06-09T08:42:31.431Z</time>
      </trkpt>
      <trkpt lat="47.53027" lon="6.68373">
        <ele>435</ele>
        <time>2013-06-09T08:42:36.426Z</time>
      </trkpt>
      <trkpt lat="47.53028" lon="6.68374">
        <ele>435</ele>
        <time>2013-06-09T08:42:41.434Z</time>
      </trkpt>
      <trkpt lat="47.53028" lon="6.68374">
        <ele>435</ele>
        <time>2013-06-09T08:42:46.427Z</time>
      </trkpt>
      <trkpt lat="47.53028" lon="6.68374">
        <ele>435</ele>
        <time>2013-06-09T08:42:51.423Z</time>
      </trkpt>
      <trkpt lat="47.53029" lon="6.68374">
        <ele>435</ele>
        <time>2013-06-09T08:42:56.423Z</time>
      </trkpt>
      <trkpt lat="47.53029" lon="6.68374">
        <ele>435</ele>
        <time>2013-06-09T08:43:31.417Z</time>
      </trkpt>
      <trkpt lat="47.53029" lon="6.68374">
        <ele>435</ele>
        <time>2013-06-09T08:43:36.417Z</time>
      </trkpt>
      <trkpt lat="47.53029" lon="6.68374">
        <ele>435</ele>
        <time>2013-06-09T08:43:41.437Z</time>
      </trkpt>
      <trkpt lat="47.53029" lon="6.68374">
        <ele>435</ele>
        <time>2013-06-09T08:43:46.426Z</time>
      </trkpt>
      <trkpt lat="47.53029" lon="6.68374">
        <ele>435</ele>
        <time>2013-06-09T08:43:51.426Z</time>
      </trkpt>
      <trkpt lat="47.53029" lon="6.68374">
        <ele>435</ele>
        <time>2013-06-09T08:43:56.433Z</time>
      </trkpt>
      <trkpt lat="47.53029" lon="6.68374">
        <ele>435</ele>
        <time>2013-06-09T08:44:01.817Z</time>
      </trkpt>
      <trkpt lat="47.53029" lon="6.68374">
        <ele>435</ele>
        <time>2013-06-09T08:44:06.426Z</time>
      </trkpt>
      <trkpt lat="47.53029" lon="6.68374">
        <ele>435</ele>
        <time>2013-06-09T08:44:11.420Z</time>
      </trkpt>
      <trkpt lat="47.53029" lon="6.68374">
        <ele>435</ele>
        <time>2013-06-09T08:44:21.436Z</time>
      </trkpt>
      <trkpt lat="47.53029" lon="6.68374">
        <ele>435</ele>
        <time>2013-06-09T08:44:26.435Z</time>
      </trkpt>
      <trkpt lat="47.53029" lon="6.68375">
        <ele>436</ele>
        <time>2013-06-09T08:44:31.426Z</time>
      </trkpt>
      <trkpt lat="47.53029" lon="6.68375">
        <ele>436</ele>
        <time>2013-06-09T08:44:36.426Z</time>
      </trkpt>
      <trkpt lat="47.53031" lon="6.68378">
        <ele>436</ele>
        <time>2013-06-09T08:44:41.437Z</time>
      </trkpt>
      <trkpt lat="47.5303" lon="6.6838">
        <ele>436</ele>
        <time>2013-06-09T08:44:46.423Z</time>
      </trkpt>
      <trkpt lat="47.5303" lon="6.68385">
        <ele>436</ele>
        <time>2013-06-09T08:44:51.423Z</time>
      </trkpt>
      <trkpt lat="47.53032" lon="6.68385">
        <ele>436</ele>
        <time>2013-06-09T08:44:56.430Z</time>
      </trkpt>
      <trkpt lat="47.53032" lon="6.68385">
        <ele>436</ele>
        <time>2013-06-09T08:45:01.422Z</time>
      </trkpt>
      <trkpt lat="47.53032" lon="6.68385">
        <ele>436</ele>
        <time>2013-06-09T08:45:06.431Z</time>
      </trkpt>
      <trkpt lat="47.53032" lon="6.68385">
        <ele>436</ele>
        <time>2013-06-09T08:45:11.437Z</time>
      </trkpt>
      <trkpt lat="47.53032" lon="6.68385">
        <ele>436</ele>
        <time>2013-06-09T08:45:16.434Z</time>
      </trkpt>
      <trkpt lat="47.53032" lon="6.68385">
        <ele>436</ele>
        <time>2013-06-09T08:45:21.433Z</time>
      </trkpt>
      <trkpt lat="47.53032" lon="6.68386">
        <ele>435</ele>
        <time>2013-06-09T08:45:26.435Z</time>
      </trkpt>
      <trkpt lat="47.53032" lon="6.68386">
        <ele>435</ele>
        <time>2013-06-09T08:45:31.433Z</time>
      </trkpt>
      <trkpt lat="47.53035" lon="6.68385">
        <ele>435</ele>
        <time>2013-06-09T08:45:36.436Z</time>
      </trkpt>
      <trkpt lat="47.53045" lon="6.68384">
        <ele>435</ele>
        <time>2013-06-09T08:45:41.437Z</time>
      </trkpt>
      <trkpt lat="47.53057" lon="6.68383">
        <ele>436</ele>
        <time>2013-06-09T08:45:46.432Z</time>
      </trkpt>
      <trkpt lat="47.53068" lon="6.68383">
        <ele>436</ele>
        <time>2013-06-09T08:45:51.426Z</time>
      </trkpt>
      <trkpt lat="47.53081" lon="6.68382">
        <ele>436</ele>
        <time>2013-06-09T08:45:56.426Z</time>
      </trkpt>
      <trkpt lat="47.53094" lon="6.68381">
        <ele>437</ele>
        <time>2013-06-09T08:46:01.410Z</time>
      </trkpt>
      <trkpt lat="47.53109" lon="6.68379">
        <ele>437</ele>
        <time>2013-06-09T08:46:06.426Z</time>
      </trkpt>
      <trkpt lat="47.53122" lon="6.68378">
        <ele>437</ele>
        <time>2013-06-09T08:46:11.437Z</time>
      </trkpt>
      <trkpt lat="47.53135" lon="6.6838">
        <ele>438</ele>
        <time>2013-06-09T08:46:16.424Z</time>
      </trkpt>
      <trkpt lat="47.53148" lon="6.68379">
        <ele>437</ele>
        <time>2013-06-09T08:46:21.425Z</time>
      </trkpt>
      <trkpt lat="47.5316" lon="6.6838">
        <ele>437</ele>
        <time>2013-06-09T08:46:26.424Z</time>
      </trkpt>
      <trkpt lat="47.53174" lon="6.68379">
        <ele>437</ele>
        <time>2013-06-09T08:46:31.426Z</time>
      </trkpt>
      <trkpt lat="47.53189" lon="6.68375">
        <ele>437</ele>
        <time>2013-06-09T08:46:36.433Z</time>
      </trkpt>
      <trkpt lat="47.53201" lon="6.68372">
        <ele>436</ele>
        <time>2013-06-09T08:46:41.437Z</time>
      </trkpt>
      <trkpt lat="47.53213" lon="6.68369">
        <ele>434</ele>
        <time>2013-06-09T08:46:46.433Z</time>
      </trkpt>
      <trkpt lat="47.53229" lon="6.6837">
        <ele>430</ele>
        <time>2013-06-09T08:46:51.429Z</time>
      </trkpt>
      <trkpt lat="47.53244" lon="6.68371">
        <ele>428</ele>
        <time>2013-06-09T08:46:56.435Z</time>
      </trkpt>
      <trkpt lat="47.53366" lon="6.68382">
        <ele>421</ele>
        <time>2013-06-09T08:47:31.413Z</time>
      </trkpt>
      <trkpt lat="47.53373" lon="6.68356">
        <ele>420</ele>
        <time>2013-06-09T08:47:36.425Z</time>
      </trkpt>
      <trkpt lat="47.53377" lon="6.68329">
        <ele>419</ele>
        <time>2013-06-09T08:47:41.443Z</time>
      </trkpt>
      <trkpt lat="47.53377" lon="6.68304">
        <ele>418</ele>
        <time>2013-06-09T08:47:46.430Z</time>
      </trkpt>
      <trkpt lat="47.53379" lon="6.68283">
        <ele>418</ele>
        <time>2013-06-09T08:47:51.425Z</time>
      </trkpt>
      <trkpt lat="47.53383" lon="6.68259">
        <ele>418</ele>
        <time>2013-06-09T08:47:56.436Z</time>
      </trkpt>
      <trkpt lat="47.53383" lon="6.68236">
        <ele>416</ele>
        <time>2013-06-09T08:48:01.434Z</time>
      </trkpt>
      <trkpt lat="47.53386" lon="6.68216">
        <ele>416</ele>
        <time>2013-06-09T08:48:06.424Z</time>
      </trkpt>
      <trkpt lat="47.5339" lon="6.68196">
        <ele>417</ele>
        <time>2013-06-09T08:48:11.443Z</time>
      </trkpt>
      <trkpt lat="47.53394" lon="6.68175">
        <ele>417</ele>
        <time>2013-06-09T08:48:16.430Z</time>
      </trkpt>
      <trkpt lat="47.53399" lon="6.68153">
        <ele>418</ele>
        <time>2013-06-09T08:48:21.409Z</time>
      </trkpt>
      <trkpt lat="47.53414" lon="6.68101">
        <ele>418</ele>
        <time>2013-06-09T08:48:31.415Z</time>
      </trkpt>
      <trkpt lat="47.53421" lon="6.68073">
        <ele>418</ele>
        <time>2013-06-09T08:48:36.415Z</time>
      </trkpt>
      <trkpt lat="47.53428" lon="6.68042">
        <ele>417</ele>
        <time>2013-06-09T08:48:41.439Z</time>
      </trkpt>
      <trkpt lat="47.53434" lon="6.68008">
        <ele>416</ele>
        <time>2013-06-09T08:48:46.436Z</time>
      </trkpt>
      <trkpt lat="47.53439" lon="6.67972">
        <ele>416</ele>
        <time>2013-06-09T08:48:51.424Z</time>
      </trkpt>
      <trkpt lat="47.53442" lon="6.67938">
        <ele>416</ele>
        <time>2013-06-09T08:48:56.422Z</time>
      </trkpt>
      <trkpt lat="47.53442" lon="6.67938">
        <ele>416</ele>
        <time>2013-06-09T08:48:56.422Z</time>
      </trkpt>
      <trkpt lat="47.53447" lon="6.67885">
        <ele>416</ele>
        <time>2013-06-09T08:49:06.424Z</time>
      </trkpt>
      <trkpt lat="47.53448" lon="6.67861">
        <ele>417</ele>
        <time>2013-06-09T08:49:11.434Z</time>
      </trkpt>
      <trkpt lat="47.53449" lon="6.6784">
        <ele>418</ele>
        <time>2013-06-09T08:49:16.428Z</time>
      </trkpt>
      <trkpt lat="47.53446" lon="6.67822">
        <ele>419</ele>
        <time>2013-06-09T08:49:21.427Z</time>
      </trkpt>
      <trkpt lat="47.53445" lon="6.67806">
        <ele>419</ele>
        <time>2013-06-09T08:49:26.432Z</time>
      </trkpt>
      <trkpt lat="47.53451" lon="6.67795">
        <ele>421</ele>
        <time>2013-06-09T08:49:31.427Z</time>
      </trkpt>
      <trkpt lat="47.53461" lon="6.67795">
        <ele>422</ele>
        <time>2013-06-09T08:49:36.426Z</time>
      </trkpt>
      <trkpt lat="47.53472" lon="6.67789">
        <ele>422</ele>
        <time>2013-06-09T08:49:41.435Z</time>
      </trkpt>
      <trkpt lat="47.53475" lon="6.67772">
        <ele>422</ele>
        <time>2013-06-09T08:49:46.423Z</time>
      </trkpt>
      <trkpt lat="47.53477" lon="6.67757">
        <ele>423</ele>
        <time>2013-06-09T08:49:51.423Z</time>
      </trkpt>
      <trkpt lat="47.53481" lon="6.67743">
        <ele>425</ele>
        <time>2013-06-09T08:49:56.424Z</time>
      </trkpt>
      <trkpt lat="47.53526" lon="6.67725">
        <ele>429</ele>
        <time>2013-06-09T08:50:31.421Z</time>
      </trkpt>
      <trkpt lat="47.53539" lon="6.67726">
        <ele>429</ele>
        <time>2013-06-09T08:50:36.427Z</time>
      </trkpt>
      <trkpt lat="47.53555" lon="6.67726">
        <ele>430</ele>
        <time>2013-06-09T08:50:41.440Z</time>
      </trkpt>
      <trkpt lat="47.53574" lon="6.67726">
        <ele>429</ele>
        <time>2013-06-09T08:50:46.426Z</time>
      </trkpt>
      <trkpt lat="47.53602" lon="6.67727">
        <ele>428</ele>
        <time>2013-06-09T08:50:51.426Z</time>
      </trkpt>
      <trkpt lat="47.53634" lon="6.67733">
        <ele>427</ele>
        <time>2013-06-09T08:50:56.425Z</time>
      </trkpt>
      <trkpt lat="47.53669" lon="6.67749">
        <ele>424</ele>
        <time>2013-06-09T08:51:01.982Z</time>
      </trkpt>
      <trkpt lat="47.53697" lon="6.6775">
        <ele>425</ele>
        <time>2013-06-09T08:51:06.409Z</time>
      </trkpt>
      <trkpt lat="47.53736" lon="6.6774">
        <ele>428</ele>
        <time>2013-06-09T08:51:16.433Z</time>
      </trkpt>
      <trkpt lat="47.53754" lon="6.6774">
        <ele>429</ele>
        <time>2013-06-09T08:51:21.432Z</time>
      </trkpt>
      <trkpt lat="47.53769" lon="6.67742">
        <ele>429</ele>
        <time>2013-06-09T08:51:26.433Z</time>
      </trkpt>
      <trkpt lat="47.53785" lon="6.67746">
        <ele>429</ele>
        <time>2013-06-09T08:51:31.423Z</time>
      </trkpt>
      <trkpt lat="47.53802" lon="6.67749">
        <ele>430</ele>
        <time>2013-06-09T08:51:36.424Z</time>
      </trkpt>
      <trkpt lat="47.53819" lon="6.67753">
        <ele>430</ele>
        <time>2013-06-09T08:51:41.435Z</time>
      </trkpt>
      <trkpt lat="47.53835" lon="6.67753">
        <ele>430</ele>
        <time>2013-06-09T08:51:46.424Z</time>
      </trkpt>
      <trkpt lat="47.53858" lon="6.67745">
        <ele>429</ele>
        <time>2013-06-09T08:51:51.428Z</time>
      </trkpt>
      <trkpt lat="47.53885" lon="6.67724">
        <ele>427</ele>
        <time>2013-06-09T08:51:56.423Z</time>
      </trkpt>
      <trkpt lat="47.54024" lon="6.67642">
        <ele>428</ele>
        <time>2013-06-09T08:52:31.408Z</time>
      </trkpt>
      <trkpt lat="47.54036" lon="6.67622">
        <ele>428</ele>
        <time>2013-06-09T08:52:36.407Z</time>
      </trkpt>
      <trkpt lat="47.54069" lon="6.67602">
        <ele>428</ele>
        <time>2013-06-09T08:52:46.425Z</time>
      </trkpt>
      <trkpt lat="47.54086" lon="6.67602">
        <ele>430</ele>
        <time>2013-06-09T08:52:51.427Z</time>
      </trkpt>
      <trkpt lat="47.54104" lon="6.67603">
        <ele>430</ele>
        <time>2013-06-09T08:52:56.430Z</time>
      </trkpt>
      <trkpt lat="47.54121" lon="6.676">
        <ele>429</ele>
        <time>2013-06-09T08:53:01.421Z</time>
      </trkpt>
      <trkpt lat="47.54137" lon="6.67594">
        <ele>429</ele>
        <time>2013-06-09T08:53:06.422Z</time>
      </trkpt>
      <trkpt lat="47.54156" lon="6.67587">
        <ele>429</ele>
        <time>2013-06-09T08:53:11.439Z</time>
      </trkpt>
      <trkpt lat="47.5418" lon="6.67583">
        <ele>429</ele>
        <time>2013-06-09T08:53:16.422Z</time>
      </trkpt>
      <trkpt lat="47.54196" lon="6.67579">
        <ele>429</ele>
        <time>2013-06-09T08:53:21.419Z</time>
      </trkpt>
      <trkpt lat="47.54215" lon="6.67577">
        <ele>430</ele>
        <time>2013-06-09T08:53:26.419Z</time>
      </trkpt>
      <trkpt lat="47.54237" lon="6.67579">
        <ele>430</ele>
        <time>2013-06-09T08:53:31.421Z</time>
      </trkpt>
      <trkpt lat="47.54257" lon="6.67582">
        <ele>431</ele>
        <time>2013-06-09T08:53:36.423Z</time>
      </trkpt>
      <trkpt lat="47.54275" lon="6.6758">
        <ele>432</ele>
        <time>2013-06-09T08:53:41.428Z</time>
      </trkpt>
      <trkpt lat="47.54294" lon="6.67575">
        <ele>432</ele>
        <time>2013-06-09T08:53:46.419Z</time>
      </trkpt>
      <trkpt lat="47.54317" lon="6.67567">
        <ele>433</ele>
        <time>2013-06-09T08:53:51.422Z</time>
      </trkpt>
      <trkpt lat="47.54334" lon="6.67559">
        <ele>434</ele>
        <time>2013-06-09T08:53:56.427Z</time>
      </trkpt>
      <trkpt lat="47.54354" lon="6.67551">
        <ele>435</ele>
        <time>2013-06-09T08:54:01.717Z</time>
      </trkpt>
      <trkpt lat="47.5437" lon="6.67542">
        <ele>435</ele>
        <time>2013-06-09T08:54:06.425Z</time>
      </trkpt>
      <trkpt lat="47.54383" lon="6.67533">
        <ele>435</ele>
        <time>2013-06-09T08:54:11.437Z</time>
      </trkpt>
      <trkpt lat="47.544" lon="6.67526">
        <ele>434</ele>
        <time>2013-06-09T08:54:16.424Z</time>
      </trkpt>
      <trkpt lat="47.54415" lon="6.67519">
        <ele>435</ele>
        <time>2013-06-09T08:54:21.424Z</time>
      </trkpt>
      <trkpt lat="47.54431" lon="6.67516">
        <ele>436</ele>
        <time>2013-06-09T08:54:26.424Z</time>
      </trkpt>
      <trkpt lat="47.54451" lon="6.67511">
        <ele>436</ele>
        <time>2013-06-09T08:54:31.424Z</time>
      </trkpt>
      <trkpt lat="47.54471" lon="6.67512">
        <ele>434</ele>
        <time>2013-06-09T08:54:36.424Z</time>
      </trkpt>
      <trkpt lat="47.54493" lon="6.67511">
        <ele>433</ele>
        <time>2013-06-09T08:54:41.443Z</time>
      </trkpt>
      <trkpt lat="47.54514" lon="6.6751">
        <ele>433</ele>
        <time>2013-06-09T08:54:46.426Z</time>
      </trkpt>
      <trkpt lat="47.5453" lon="6.67503">
        <ele>434</ele>
        <time>2013-06-09T08:54:51.421Z</time>
      </trkpt>
      <trkpt lat="47.54548" lon="6.67504">
        <ele>435</ele>
        <time>2013-06-09T08:54:56.418Z</time>
      </trkpt>
      <trkpt lat="47.54564" lon="6.67503">
        <ele>436</ele>
        <time>2013-06-09T08:55:01.418Z</time>
      </trkpt>
      <trkpt lat="47.54582" lon="6.67506">
        <ele>435</ele>
        <time>2013-06-09T08:55:06.418Z</time>
      </trkpt>
      <trkpt lat="47.54602" lon="6.67508">
        <ele>435</ele>
        <time>2013-06-09T08:55:11.436Z</time>
      </trkpt>
      <trkpt lat="47.5462" lon="6.67514">
        <ele>436</ele>
        <time>2013-06-09T08:55:16.418Z</time>
      </trkpt>
      <trkpt lat="47.54634" lon="6.67516">
        <ele>436</ele>
        <time>2013-06-09T08:55:21.419Z</time>
      </trkpt>
      <trkpt lat="47.54648" lon="6.67523">
        <ele>436</ele>
        <time>2013-06-09T08:55:26.420Z</time>
      </trkpt>
      <trkpt lat="47.54659" lon="6.67525">
        <ele>436</ele>
        <time>2013-06-09T08:55:31.415Z</time>
      </trkpt>
      <trkpt lat="47.54671" lon="6.67526">
        <ele>437</ele>
        <time>2013-06-09T08:55:36.415Z</time>
      </trkpt>
      <trkpt lat="47.54685" lon="6.67527">
        <ele>438</ele>
        <time>2013-06-09T08:55:41.426Z</time>
      </trkpt>
      <trkpt lat="47.54695" lon="6.67531">
        <ele>439</ele>
        <time>2013-06-09T08:55:46.421Z</time>
      </trkpt>
      <trkpt lat="47.54708" lon="6.67534">
        <ele>440</ele>
        <time>2013-06-09T08:55:51.418Z</time>
      </trkpt>
      <trkpt lat="47.54722" lon="6.67535">
        <ele>441</ele>
        <time>2013-06-09T08:55:56.421Z</time>
      </trkpt>
      <trkpt lat="47.54734" lon="6.67537">
        <ele>442</ele>
        <time>2013-06-09T08:56:01.417Z</time>
      </trkpt>
      <trkpt lat="47.54745" lon="6.67538">
        <ele>444</ele>
        <time>2013-06-09T08:56:06.417Z</time>
      </trkpt>
      <trkpt lat="47.54759" lon="6.67538">
        <ele>444</ele>
        <time>2013-06-09T08:56:11.427Z</time>
      </trkpt>
      <trkpt lat="47.54773" lon="6.6754">
        <ele>445</ele>
        <time>2013-06-09T08:56:16.422Z</time>
      </trkpt>
      <trkpt lat="47.54784" lon="6.6754">
        <ele>445</ele>
        <time>2013-06-09T08:56:21.421Z</time>
      </trkpt>
      <trkpt lat="47.54796" lon="6.67542">
        <ele>445</ele>
        <time>2013-06-09T08:56:26.421Z</time>
      </trkpt>
      <trkpt lat="47.54808" lon="6.67541">
        <ele>446</ele>
        <time>2013-06-09T08:56:31.422Z</time>
      </trkpt>
      <trkpt lat="47.54821" lon="6.67545">
        <ele>447</ele>
        <time>2013-06-09T08:56:36.421Z</time>
      </trkpt>
      <trkpt lat="47.54834" lon="6.67545">
        <ele>448</ele>
        <time>2013-06-09T08:56:41.443Z</time>
      </trkpt>
      <trkpt lat="47.54847" lon="6.67546">
        <ele>449</ele>
        <time>2013-06-09T08:56:46.435Z</time>
      </trkpt>
      <trkpt lat="47.54858" lon="6.67548">
        <ele>452</ele>
        <time>2013-06-09T08:56:51.421Z</time>
      </trkpt>
      <trkpt lat="47.54964" lon="6.67561">
        <ele>455</ele>
        <time>2013-06-09T08:57:36.430Z</time>
      </trkpt>
      <trkpt lat="47.54974" lon="6.67561">
        <ele>456</ele>
        <time>2013-06-09T08:57:41.433Z</time>
      </trkpt>
      <trkpt lat="47.54988" lon="6.67561">
        <ele>457</ele>
        <time>2013-06-09T08:57:46.418Z</time>
      </trkpt>
      <trkpt lat="47.54999" lon="6.67559">
        <ele>458</ele>
        <time>2013-06-09T08:57:51.417Z</time>
      </trkpt>
      <trkpt lat="47.55013" lon="6.6756">
        <ele>458</ele>
        <time>2013-06-09T08:57:56.418Z</time>
      </trkpt>
      <trkpt lat="47.55026" lon="6.6756">
        <ele>459</ele>
        <time>2013-06-09T08:58:02.413Z</time>
      </trkpt>
      <trkpt lat="47.55039" lon="6.67561">
        <ele>459</ele>
        <time>2013-06-09T08:58:06.418Z</time>
      </trkpt>
      <trkpt lat="47.5505" lon="6.67564">
        <ele>460</ele>
        <time>2013-06-09T08:58:11.437Z</time>
      </trkpt>
      <trkpt lat="47.55061" lon="6.67562">
        <ele>460</ele>
        <time>2013-06-09T08:58:16.418Z</time>
      </trkpt>
      <trkpt lat="47.55072" lon="6.67564">
        <ele>460</ele>
        <time>2013-06-09T08:58:21.419Z</time>
      </trkpt>
      <trkpt lat="47.55084" lon="6.67564">
        <ele>461</ele>
        <time>2013-06-09T08:58:26.423Z</time>
      </trkpt>
      <trkpt lat="47.55095" lon="6.67563">
        <ele>462</ele>
        <time>2013-06-09T08:58:31.425Z</time>
      </trkpt>
      <trkpt lat="47.55107" lon="6.67563">
        <ele>463</ele>
        <time>2013-06-09T08:58:36.422Z</time>
      </trkpt>
      <trkpt lat="47.55118" lon="6.67565">
        <ele>465</ele>
        <time>2013-06-09T08:58:41.430Z</time>
      </trkpt>
      <trkpt lat="47.55128" lon="6.67565">
        <ele>466</ele>
        <time>2013-06-09T08:58:46.421Z</time>
      </trkpt>
      <trkpt lat="47.55138" lon="6.67569">
        <ele>466</ele>
        <time>2013-06-09T08:58:51.421Z</time>
      </trkpt>
      <trkpt lat="47.55148" lon="6.67568">
        <ele>467</ele>
        <time>2013-06-09T08:58:56.421Z</time>
      </trkpt>
      <trkpt lat="47.5516" lon="6.67569">
        <ele>468</ele>
        <time>2013-06-09T08:59:01.410Z</time>
      </trkpt>
      <trkpt lat="47.55169" lon="6.67571">
        <ele>468</ele>
        <time>2013-06-09T08:59:06.421Z</time>
      </trkpt>
      <trkpt lat="47.5518" lon="6.67572">
        <ele>469</ele>
        <time>2013-06-09T08:59:11.429Z</time>
      </trkpt>
      <trkpt lat="47.55191" lon="6.67577">
        <ele>470</ele>
        <time>2013-06-09T08:59:16.417Z</time>
      </trkpt>
      <trkpt lat="47.55202" lon="6.6758">
        <ele>471</ele>
        <time>2013-06-09T08:59:21.418Z</time>
      </trkpt>
      <trkpt lat="47.55211" lon="6.67581">
        <ele>472</ele>
        <time>2013-06-09T08:59:26.418Z</time>
      </trkpt>
      <trkpt lat="47.5522" lon="6.67581">
        <ele>472</ele>
        <time>2013-06-09T08:59:31.418Z</time>
      </trkpt>
      <trkpt lat="47.55229" lon="6.67579">
        <ele>473</ele>
        <time>2013-06-09T08:59:36.421Z</time>
      </trkpt>
      <trkpt lat="47.55239" lon="6.67582">
        <ele>474</ele>
        <time>2013-06-09T08:59:41.427Z</time>
      </trkpt>
      <trkpt lat="47.5525" lon="6.67586">
        <ele>474</ele>
        <time>2013-06-09T08:59:46.418Z</time>
      </trkpt>
      <trkpt lat="47.55261" lon="6.67587">
        <ele>476</ele>
        <time>2013-06-09T08:59:51.418Z</time>
      </trkpt>
      <trkpt lat="47.55272" lon="6.67589">
        <ele>477</ele>
        <time>2013-06-09T08:59:56.419Z</time>
      </trkpt>
      <trkpt lat="47.55282" lon="6.67589">
        <ele>478</ele>
        <time>2013-06-09T09:00:01.419Z</time>
      </trkpt>
      <trkpt lat="47.55293" lon="6.67593">
        <ele>478</ele>
        <time>2013-06-09T09:00:06.418Z</time>
      </trkpt>
      <trkpt lat="47.55304" lon="6.67598">
        <ele>479</ele>
        <time>2013-06-09T09:00:11.433Z</time>
      </trkpt>
      <trkpt lat="47.55313" lon="6.676">
        <ele>480</ele>
        <time>2013-06-09T09:00:16.418Z</time>
      </trkpt>
      <trkpt lat="47.55323" lon="6.67602">
        <ele>481</ele>
        <time>2013-06-09T09:00:21.417Z</time>
      </trkpt>
      <trkpt lat="47.55332" lon="6.67604">
        <ele>482</ele>
        <time>2013-06-09T09:00:26.420Z</time>
      </trkpt>
      <trkpt lat="47.55342" lon="6.67606">
        <ele>483</ele>
        <time>2013-06-09T09:00:31.418Z</time>
      </trkpt>
      <trkpt lat="47.5535" lon="6.67607">
        <ele>484</ele>
        <time>2013-06-09T09:00:36.417Z</time>
      </trkpt>
      <trkpt lat="47.55359" lon="6.67609">
        <ele>485</ele>
        <time>2013-06-09T09:00:41.435Z</time>
      </trkpt>
      <trkpt lat="47.55369" lon="6.67611">
        <ele>487</ele>
        <time>2013-06-09T09:00:46.421Z</time>
      </trkpt>
      <trkpt lat="47.55379" lon="6.67612">
        <ele>488</ele>
        <time>2013-06-09T09:00:51.422Z</time>
      </trkpt>
      <trkpt lat="47.5539" lon="6.67612">
        <ele>490</ele>
        <time>2013-06-09T09:00:56.422Z</time>
      </trkpt>
      <trkpt lat="47.55398" lon="6.67613">
        <ele>492</ele>
        <time>2013-06-09T09:01:01.419Z</time>
      </trkpt>
      <trkpt lat="47.55408" lon="6.67614">
        <ele>494</ele>
        <time>2013-06-09T09:01:06.418Z</time>
      </trkpt>
      <trkpt lat="47.55419" lon="6.67611">
        <ele>493</ele>
        <time>2013-06-09T09:01:11.432Z</time>
      </trkpt>
      <trkpt lat="47.5543" lon="6.67605">
        <ele>495</ele>
        <time>2013-06-09T09:01:16.421Z</time>
      </trkpt>
      <trkpt lat="47.55442" lon="6.67599">
        <ele>498</ele>
        <time>2013-06-09T09:01:21.421Z</time>
      </trkpt>
      <trkpt lat="47.55454" lon="6.67592">
        <ele>499</ele>
        <time>2013-06-09T09:01:26.422Z</time>
      </trkpt>
      <trkpt lat="47.55464" lon="6.6759">
        <ele>499</ele>
        <time>2013-06-09T09:01:31.405Z</time>
      </trkpt>
      <trkpt lat="47.55483" lon="6.67585">
        <ele>500</ele>
        <time>2013-06-09T09:01:41.442Z</time>
      </trkpt>
      <trkpt lat="47.5549" lon="6.67588">
        <ele>501</ele>
        <time>2013-06-09T09:01:46.431Z</time>
      </trkpt>
      <trkpt lat="47.55498" lon="6.6759">
        <ele>502</ele>
        <time>2013-06-09T09:01:51.427Z</time>
      </trkpt>
      <trkpt lat="47.55503" lon="6.67589">
        <ele>502</ele>
        <time>2013-06-09T09:01:56.425Z</time>
      </trkpt>
      <trkpt lat="47.55504" lon="6.67593">
        <ele>502</ele>
        <time>2013-06-09T09:02:01.422Z</time>
      </trkpt>
      <trkpt lat="47.55504" lon="6.67593">
        <ele>502</ele>
        <time>2013-06-09T09:02:06.423Z</time>
      </trkpt>
      <trkpt lat="47.55504" lon="6.67593">
        <ele>502</ele>
        <time>2013-06-09T09:02:11.434Z</time>
      </trkpt>
      <trkpt lat="47.55504" lon="6.67593">
        <ele>502</ele>
        <time>2013-06-09T09:02:16.422Z</time>
      </trkpt>
      <trkpt lat="47.55502" lon="6.67594">
        <ele>501</ele>
        <time>2013-06-09T09:02:21.422Z</time>
      </trkpt>
      <trkpt lat="47.55502" lon="6.67594">
        <ele>501</ele>
        <time>2013-06-09T09:02:26.419Z</time>
      </trkpt>
      <trkpt lat="47.55502" lon="6.67594">
        <ele>501</ele>
        <time>2013-06-09T09:02:31.419Z</time>
      </trkpt>
      <trkpt lat="47.55501" lon="6.67594">
        <ele>501</ele>
        <time>2013-06-09T09:02:36.419Z</time>
      </trkpt>
      <trkpt lat="47.555" lon="6.67595">
        <ele>502</ele>
        <time>2013-06-09T09:02:41.435Z</time>
      </trkpt>
      <trkpt lat="47.555" lon="6.67595">
        <ele>502</ele>
        <time>2013-06-09T09:02:46.428Z</time>
      </trkpt>
      <trkpt lat="47.55499" lon="6.67598">
        <ele>502</ele>
        <time>2013-06-09T09:02:51.423Z</time>
      </trkpt>
      <trkpt lat="47.55499" lon="6.676">
        <ele>502</ele>
        <time>2013-06-09T09:02:56.425Z</time>
      </trkpt>
      <trkpt lat="47.555" lon="6.67601">
        <ele>503</ele>
        <time>2013-06-09T09:03:01.424Z</time>
      </trkpt>
      <trkpt lat="47.55501" lon="6.67602">
        <ele>504</ele>
        <time>2013-06-09T09:03:06.422Z</time>
      </trkpt>
      <trkpt lat="47.55502" lon="6.67603">
        <ele>505</ele>
        <time>2013-06-09T09:03:11.445Z</time>
      </trkpt>
      <trkpt lat="47.55503" lon="6.67599">
        <ele>502</ele>
        <time>2013-06-09T09:03:16.429Z</time>
      </trkpt>
      <trkpt lat="47.55505" lon="6.67594">
        <ele>499</ele>
        <time>2013-06-09T09:03:21.433Z</time>
      </trkpt>
      <trkpt lat="47.55505" lon="6.67593">
        <ele>499</ele>
        <time>2013-06-09T09:03:26.432Z</time>
      </trkpt>
      <trkpt lat="47.55504" lon="6.67588">
        <ele>498</ele>
        <time>2013-06-09T09:03:31.429Z</time>
      </trkpt>
      <trkpt lat="47.55507" lon="6.67585">
        <ele>498</ele>
        <time>2013-06-09T09:03:36.429Z</time>
      </trkpt>
      <trkpt lat="47.55508" lon="6.67584">
        <ele>498</ele>
        <time>2013-06-09T09:03:41.438Z</time>
      </trkpt>
      <trkpt lat="47.55507" lon="6.67581">
        <ele>498</ele>
        <time>2013-06-09T09:03:46.409Z</time>
      </trkpt>
      <trkpt lat="47.55507" lon="6.67582">
        <ele>498</ele>
        <time>2013-06-09T09:03:51.425Z</time>
      </trkpt>
      <trkpt lat="47.55507" lon="6.67582">
        <ele>498</ele>
        <time>2013-06-09T09:03:56.431Z</time>
      </trkpt>
      <trkpt lat="47.55528" lon="6.67532">
        <ele>505</ele>
        <time>2013-06-09T09:04:31.419Z</time>
      </trkpt>
      <trkpt lat="47.55532" lon="6.67521">
        <ele>506</ele>
        <time>2013-06-09T09:04:36.424Z</time>
      </trkpt>
      <trkpt lat="47.55539" lon="6.67511">
        <ele>507</ele>
        <time>2013-06-09T09:04:41.437Z</time>
      </trkpt>
      <trkpt lat="47.55543" lon="6.67501">
        <ele>507</ele>
        <time>2013-06-09T09:04:46.427Z</time>
      </trkpt>
      <trkpt lat="47.55545" lon="6.67492">
        <ele>507</ele>
        <time>2013-06-09T09:04:51.426Z</time>
      </trkpt>
      <trkpt lat="47.55545" lon="6.67478">
        <ele>507</ele>
        <time>2013-06-09T09:04:57.140Z</time>
      </trkpt>
      <trkpt lat="47.55548" lon="6.67462">
        <ele>506</ele>
        <time>2013-06-09T09:05:01.431Z</time>
      </trkpt>
      <trkpt lat="47.55552" lon="6.67446">
        <ele>507</ele>
        <time>2013-06-09T09:05:06.427Z</time>
      </trkpt>
      <trkpt lat="47.55556" lon="6.67435">
        <ele>507</ele>
        <time>2013-06-09T09:05:11.437Z</time>
      </trkpt>
      <trkpt lat="47.55561" lon="6.6743">
        <ele>508</ele>
        <time>2013-06-09T09:05:16.424Z</time>
      </trkpt>
      <trkpt lat="47.55566" lon="6.67425">
        <ele>509</ele>
        <time>2013-06-09T09:05:21.436Z</time>
      </trkpt>
      <trkpt lat="47.5557" lon="6.67417">
        <ele>509</ele>
        <time>2013-06-09T09:05:26.433Z</time>
      </trkpt>
      <trkpt lat="47.55574" lon="6.67403">
        <ele>508</ele>
        <time>2013-06-09T09:05:31.409Z</time>
      </trkpt>
      <trkpt lat="47.55581" lon="6.67389">
        <ele>509</ele>
        <time>2013-06-09T09:05:41.438Z</time>
      </trkpt>
      <trkpt lat="47.55585" lon="6.67382">
        <ele>510</ele>
        <time>2013-06-09T09:05:46.424Z</time>
      </trkpt>
      <trkpt lat="47.55589" lon="6.67375">
        <ele>511</ele>
        <time>2013-06-09T09:05:51.433Z</time>
      </trkpt>
      <trkpt lat="47.55594" lon="6.67368">
        <ele>512</ele>
        <time>2013-06-09T09:05:56.431Z</time>
      </trkpt>
      <trkpt lat="47.55594" lon="6.67368">
        <ele>512</ele>
        <time>2013-06-09T09:05:56.431Z</time>
      </trkpt>
      <trkpt lat="47.556" lon="6.67353">
        <ele>514</ele>
        <time>2013-06-09T09:06:06.424Z</time>
      </trkpt>
      <trkpt lat="47.55603" lon="6.67346">
        <ele>515</ele>
        <time>2013-06-09T09:06:11.436Z</time>
      </trkpt>
      <trkpt lat="47.55608" lon="6.6734">
        <ele>516</ele>
        <time>2013-06-09T09:06:16.422Z</time>
      </trkpt>
      <trkpt lat="47.55609" lon="6.6733">
        <ele>517</ele>
        <time>2013-06-09T09:06:21.422Z</time>
      </trkpt>
      <trkpt lat="47.55614" lon="6.67324">
        <ele>518</ele>
        <time>2013-06-09T09:06:26.423Z</time>
      </trkpt>
      <trkpt lat="47.55617" lon="6.67314">
        <ele>518</ele>
        <time>2013-06-09T09:06:31.423Z</time>
      </trkpt>
      <trkpt lat="47.55623" lon="6.67307">
        <ele>519</ele>
        <time>2013-06-09T09:06:36.422Z</time>
      </trkpt>
      <trkpt lat="47.55626" lon="6.673">
        <ele>521</ele>
        <time>2013-06-09T09:06:41.439Z</time>
      </trkpt>
      <trkpt lat="47.55627" lon="6.67298">
        <ele>521</ele>
        <time>2013-06-09T09:06:46.422Z</time>
      </trkpt>
      <trkpt lat="47.55632" lon="6.6729">
        <ele>522</ele>
        <time>2013-06-09T09:06:51.428Z</time>
      </trkpt>
      <trkpt lat="47.55637" lon="6.67286">
        <ele>524</ele>
        <time>2013-06-09T09:06:56.431Z</time>
      </trkpt>
      <trkpt lat="47.55641" lon="6.6728">
        <ele>524</ele>
        <time>2013-06-09T09:07:01.416Z</time>
      </trkpt>
      <trkpt lat="47.55644" lon="6.67275">
        <ele>526</ele>
        <time>2013-06-09T09:07:06.424Z</time>
      </trkpt>
      <trkpt lat="47.55649" lon="6.67274">
        <ele>527</ele>
        <time>2013-06-09T09:07:11.435Z</time>
      </trkpt>
      <trkpt lat="47.55656" lon="6.67269">
        <ele>528</ele>
        <time>2013-06-09T09:07:16.425Z</time>
      </trkpt>
      <trkpt lat="47.55664" lon="6.67265">
        <ele>529</ele>
        <time>2013-06-09T09:07:21.426Z</time>
      </trkpt>
      <trkpt lat="47.5567" lon="6.67266">
        <ele>529</ele>
        <time>2013-06-09T09:07:26.432Z</time>
      </trkpt>
      <trkpt lat="47.55674" lon="6.67265">
        <ele>531</ele>
        <time>2013-06-09T09:07:31.424Z</time>
      </trkpt>
      <trkpt lat="47.55682" lon="6.67261">
        <ele>532</ele>
        <time>2013-06-09T09:07:36.434Z</time>
      </trkpt>
      <trkpt lat="47.55692" lon="6.67258">
        <ele>534</ele>
        <time>2013-06-09T09:07:41.443Z</time>
      </trkpt>
      <trkpt lat="47.55699" lon="6.67253">
        <ele>534</ele>
        <time>2013-06-09T09:07:46.425Z</time>
      </trkpt>
      <trkpt lat="47.55703" lon="6.67249">
        <ele>536</ele>
        <time>2013-06-09T09:07:51.425Z</time>
      </trkpt>
      <trkpt lat="47.55707" lon="6.67243">
        <ele>536</ele>
        <time>2013-06-09T09:07:56.426Z</time>
      </trkpt>
      <trkpt lat="47.55713" lon="6.67237">
        <ele>537</ele>
        <time>2013-06-09T09:08:01.425Z</time>
      </trkpt>
      <trkpt lat="47.55716" lon="6.67232">
        <ele>538</ele>
        <time>2013-06-09T09:08:06.425Z</time>
      </trkpt>
      <trkpt lat="47.5572" lon="6.67227">
        <ele>540</ele>
        <time>2013-06-09T09:08:11.435Z</time>
      </trkpt>
      <trkpt lat="47.55725" lon="6.67223">
        <ele>540</ele>
        <time>2013-06-09T09:08:16.432Z</time>
      </trkpt>
      <trkpt lat="47.55729" lon="6.67218">
        <ele>542</ele>
        <time>2013-06-09T09:08:21.424Z</time>
      </trkpt>
      <trkpt lat="47.55735" lon="6.67207">
        <ele>541</ele>
        <time>2013-06-09T09:08:26.434Z</time>
      </trkpt>
      <trkpt lat="47.55738" lon="6.67199">
        <ele>541</ele>
        <time>2013-06-09T09:08:31.425Z</time>
      </trkpt>
      <trkpt lat="47.55737" lon="6.67191">
        <ele>542</ele>
        <time>2013-06-09T09:08:36.424Z</time>
      </trkpt>
      <trkpt lat="47.55735" lon="6.67185">
        <ele>543</ele>
        <time>2013-06-09T09:08:41.442Z</time>
      </trkpt>
      <trkpt lat="47.55732" lon="6.67178">
        <ele>544</ele>
        <time>2013-06-09T09:08:46.427Z</time>
      </trkpt>
      <trkpt lat="47.55734" lon="6.6717">
        <ele>544</ele>
        <time>2013-06-09T09:08:51.428Z</time>
      </trkpt>
      <trkpt lat="47.55738" lon="6.67162">
        <ele>545</ele>
        <time>2013-06-09T09:08:56.431Z</time>
      </trkpt>
      <trkpt lat="47.55739" lon="6.67154">
        <ele>546</ele>
        <time>2013-06-09T09:09:01.424Z</time>
      </trkpt>
      <trkpt lat="47.55742" lon="6.67149">
        <ele>547</ele>
        <time>2013-06-09T09:09:06.426Z</time>
      </trkpt>
      <trkpt lat="47.55745" lon="6.67143">
        <ele>548</ele>
        <time>2013-06-09T09:09:11.439Z</time>
      </trkpt>
      <trkpt lat="47.55746" lon="6.67143">
        <ele>548</ele>
        <time>2013-06-09T09:09:16.429Z</time>
      </trkpt>
      <trkpt lat="47.55749" lon="6.67143">
        <ele>547</ele>
        <time>2013-06-09T09:09:21.434Z</time>
      </trkpt>
      <trkpt lat="47.55753" lon="6.67137">
        <ele>550</ele>
        <time>2013-06-09T09:09:26.429Z</time>
      </trkpt>
      <trkpt lat="47.55753" lon="6.67139">
        <ele>550</ele>
        <time>2013-06-09T09:09:31.429Z</time>
      </trkpt>
      <trkpt lat="47.55754" lon="6.67141">
        <ele>551</ele>
        <time>2013-06-09T09:09:36.431Z</time>
      </trkpt>
      <trkpt lat="47.55753" lon="6.67143">
        <ele>551</ele>
        <time>2013-06-09T09:09:41.427Z</time>
      </trkpt>
      <trkpt lat="47.55753" lon="6.67145">
        <ele>553</ele>
        <time>2013-06-09T09:09:51.430Z</time>
      </trkpt>
      <trkpt lat="47.55753" lon="6.67142">
        <ele>552</ele>
        <time>2013-06-09T09:09:56.427Z</time>
      </trkpt>
      <trkpt lat="47.55751" lon="6.67138">
        <ele>551</ele>
        <time>2013-06-09T09:10:01.426Z</time>
      </trkpt>
      <trkpt lat="47.55753" lon="6.67137">
        <ele>551</ele>
        <time>2013-06-09T09:10:06.428Z</time>
      </trkpt>
      <trkpt lat="47.55752" lon="6.67136">
        <ele>551</ele>
        <time>2013-06-09T09:10:11.434Z</time>
      </trkpt>
      <trkpt lat="47.55751" lon="6.67133">
        <ele>550</ele>
        <time>2013-06-09T09:10:16.424Z</time>
      </trkpt>
      <trkpt lat="47.5575" lon="6.67131">
        <ele>551</ele>
        <time>2013-06-09T09:10:21.416Z</time>
      </trkpt>
      <trkpt lat="47.55745" lon="6.67132">
        <ele>552</ele>
        <time>2013-06-09T09:10:26.430Z</time>
      </trkpt>
      <trkpt lat="47.5575" lon="6.6713">
        <ele>552</ele>
        <time>2013-06-09T09:10:31.429Z</time>
      </trkpt>
      <trkpt lat="47.55753" lon="6.67131">
        <ele>553</ele>
        <time>2013-06-09T09:10:36.429Z</time>
      </trkpt>
      <trkpt lat="47.55753" lon="6.67131">
        <ele>553</ele>
        <time>2013-06-09T09:10:41.448Z</time>
      </trkpt>
      <trkpt lat="47.55757" lon="6.67133">
        <ele>552</ele>
        <time>2013-06-09T09:10:46.428Z</time>
      </trkpt>
      <trkpt lat="47.55757" lon="6.67133">
        <ele>552</ele>
        <time>2013-06-09T09:10:51.427Z</time>
      </trkpt>
      <trkpt lat="47.55757" lon="6.67135">
        <ele>552</ele>
        <time>2013-06-09T09:10:56.430Z</time>
      </trkpt>
      <trkpt lat="47.55758" lon="6.67134">
        <ele>553</ele>
        <time>2013-06-09T09:11:01.432Z</time>
      </trkpt>
      <trkpt lat="47.55758" lon="6.67131">
        <ele>552</ele>
        <time>2013-06-09T09:11:06.429Z</time>
      </trkpt>
      <trkpt lat="47.55765" lon="6.67126">
        <ele>551</ele>
        <time>2013-06-09T09:11:11.443Z</time>
      </trkpt>
      <trkpt lat="47.5577" lon="6.67119">
        <ele>551</ele>
        <time>2013-06-09T09:11:16.429Z</time>
      </trkpt>
      <trkpt lat="47.55773" lon="6.67114">
        <ele>552</ele>
        <time>2013-06-09T09:11:21.428Z</time>
      </trkpt>
      <trkpt lat="47.55779" lon="6.67105">
        <ele>554</ele>
        <time>2013-06-09T09:11:26.429Z</time>
      </trkpt>
      <trkpt lat="47.55787" lon="6.67093">
        <ele>552</ele>
        <time>2013-06-09T09:11:31.429Z</time>
      </trkpt>
      <trkpt lat="47.55792" lon="6.67082">
        <ele>553</ele>
        <time>2013-06-09T09:11:36.427Z</time>
      </trkpt>
      <trkpt lat="47.55794" lon="6.67068">
        <ele>555</ele>
        <time>2013-06-09T09:11:41.442Z</time>
      </trkpt>
      <trkpt lat="47.55791" lon="6.67058">
        <ele>555</ele>
        <time>2013-06-09T09:11:46.429Z</time>
      </trkpt>
      <trkpt lat="47.55784" lon="6.67049">
        <ele>555</ele>
        <time>2013-06-09T09:11:51.430Z</time>
      </trkpt>
      <trkpt lat="47.55775" lon="6.67041">
        <ele>556</ele>
        <time>2013-06-09T09:11:56.429Z</time>
      </trkpt>
      <trkpt lat="47.55768" lon="6.67035">
        <ele>555</ele>
        <time>2013-06-09T09:12:01.435Z</time>
      </trkpt>
      <trkpt lat="47.55759" lon="6.67032">
        <ele>555</ele>
        <time>2013-06-09T09:12:06.429Z</time>
      </trkpt>
      <trkpt lat="47.55752" lon="6.6703">
        <ele>555</ele>
        <time>2013-06-09T09:12:11.443Z</time>
      </trkpt>
      <trkpt lat="47.55748" lon="6.67022">
        <ele>556</ele>
        <time>2013-06-09T09:12:16.433Z</time>
      </trkpt>
      <trkpt lat="47.55739" lon="6.67012">
        <ele>556</ele>
        <time>2013-06-09T09:12:21.432Z</time>
      </trkpt>
      <trkpt lat="47.55728" lon="6.67006">
        <ele>557</ele>
        <time>2013-06-09T09:12:26.432Z</time>
      </trkpt>
      <trkpt lat="47.55722" lon="6.67">
        <ele>558</ele>
        <time>2013-06-09T09:12:31.433Z</time>
      </trkpt>
      <trkpt lat="47.55724" lon="6.66993">
        <ele>558</ele>
        <time>2013-06-09T09:12:36.433Z</time>
      </trkpt>
      <trkpt lat="47.55722" lon="6.66985">
        <ele>558</ele>
        <time>2013-06-09T09:12:41.446Z</time>
      </trkpt>
      <trkpt lat="47.55723" lon="6.6698">
        <ele>558</ele>
        <time>2013-06-09T09:12:46.432Z</time>
      </trkpt>
      <trkpt lat="47.55725" lon="6.66975">
        <ele>559</ele>
        <time>2013-06-09T09:12:51.436Z</time>
      </trkpt>
      <trkpt lat="47.55728" lon="6.66969">
        <ele>558</ele>
        <time>2013-06-09T09:12:56.430Z</time>
      </trkpt>
      <trkpt lat="47.55729" lon="6.66968">
        <ele>560</ele>
        <time>2013-06-09T09:13:01.425Z</time>
      </trkpt>
      <trkpt lat="47.5573" lon="6.66967">
        <ele>560</ele>
        <time>2013-06-09T09:13:06.431Z</time>
      </trkpt>
      <trkpt lat="47.55731" lon="6.66966">
        <ele>560</ele>
        <time>2013-06-09T09:13:11.440Z</time>
      </trkpt>
      <trkpt lat="47.5573" lon="6.66966">
        <ele>560</ele>
        <time>2013-06-09T09:13:16.426Z</time>
      </trkpt>
      <trkpt lat="47.5573" lon="6.66966">
        <ele>560</ele>
        <time>2013-06-09T09:13:21.429Z</time>
      </trkpt>
      <trkpt lat="47.5573" lon="6.66965">
        <ele>560</ele>
        <time>2013-06-09T09:13:26.427Z</time>
      </trkpt>
      <trkpt lat="47.5573" lon="6.66965">
        <ele>560</ele>
        <time>2013-06-09T09:13:31.430Z</time>
      </trkpt>
      <trkpt lat="47.5573" lon="6.66965">
        <ele>560</ele>
        <time>2013-06-09T09:13:36.432Z</time>
      </trkpt>
      <trkpt lat="47.55728" lon="6.66965">
        <ele>560</ele>
        <time>2013-06-09T09:13:41.439Z</time>
      </trkpt>
      <trkpt lat="47.55725" lon="6.66969">
        <ele>565</ele>
        <time>2013-06-09T09:13:46.428Z</time>
      </trkpt>
      <trkpt lat="47.55724" lon="6.66976">
        <ele>564</ele>
        <time>2013-06-09T09:13:51.430Z</time>
      </trkpt>
      <trkpt lat="47.55722" lon="6.66979">
        <ele>563</ele>
        <time>2013-06-09T09:13:56.429Z</time>
      </trkpt>
      <trkpt lat="47.55724" lon="6.66982">
        <ele>562</ele>
        <time>2013-06-09T09:14:01.413Z</time>
      </trkpt>
      <trkpt lat="47.55719" lon="6.66992">
        <ele>562</ele>
        <time>2013-06-09T09:14:11.445Z</time>
      </trkpt>
      <trkpt lat="47.5572" lon="6.66992">
        <ele>563</ele>
        <time>2013-06-09T09:14:16.430Z</time>
      </trkpt>
      <trkpt lat="47.55717" lon="6.66991">
        <ele>564</ele>
        <time>2013-06-09T09:14:21.432Z</time>
      </trkpt>
      <trkpt lat="47.55714" lon="6.6699">
        <ele>565</ele>
        <time>2013-06-09T09:14:26.433Z</time>
      </trkpt>
      <trkpt lat="47.55713" lon="6.6699">
        <ele>566</ele>
        <time>2013-06-09T09:14:31.426Z</time>
      </trkpt>
      <trkpt lat="47.55715" lon="6.66993">
        <ele>567</ele>
        <time>2013-06-09T09:14:36.434Z</time>
      </trkpt>
      <trkpt lat="47.55713" lon="6.66992">
        <ele>567</ele>
        <time>2013-06-09T09:14:41.443Z</time>
      </trkpt>
      <trkpt lat="47.5571" lon="6.66985">
        <ele>567</ele>
        <time>2013-06-09T09:14:46.430Z</time>
      </trkpt>
      <trkpt lat="47.55706" lon="6.66975">
        <ele>567</ele>
        <time>2013-06-09T09:14:51.433Z</time>
      </trkpt>
      <trkpt lat="47.55696" lon="6.66968">
        <ele>567</ele>
        <time>2013-06-09T09:14:56.430Z</time>
      </trkpt>
      <trkpt lat="47.55684" lon="6.66959">
        <ele>568</ele>
        <time>2013-06-09T09:15:01.429Z</time>
      </trkpt>
      <trkpt lat="47.5567" lon="6.6695">
        <ele>568</ele>
        <time>2013-06-09T09:15:06.430Z</time>
      </trkpt>
      <trkpt lat="47.55655" lon="6.66943">
        <ele>568</ele>
        <time>2013-06-09T09:15:11.443Z</time>
      </trkpt>
      <trkpt lat="47.55637" lon="6.6693">
        <ele>568</ele>
        <time>2013-06-09T09:15:16.430Z</time>
      </trkpt>
      <trkpt lat="47.5562" lon="6.6692">
        <ele>568</ele>
        <time>2013-06-09T09:15:21.430Z</time>
      </trkpt>
      <trkpt lat="47.55591" lon="6.66904">
        <ele>567</ele>
        <time>2013-06-09T09:15:26.434Z</time>
      </trkpt>
      <trkpt lat="47.55564" lon="6.66869">
        <ele>566</ele>
        <time>2013-06-09T09:15:31.430Z</time>
      </trkpt>
      <trkpt lat="47.55537" lon="6.66839">
        <ele>565</ele>
        <time>2013-06-09T09:15:36.430Z</time>
      </trkpt>
      <trkpt lat="47.55512" lon="6.66818">
        <ele>564</ele>
        <time>2013-06-09T09:15:41.443Z</time>
      </trkpt>
      <trkpt lat="47.55505" lon="6.668">
        <ele>561</ele>
        <time>2013-06-09T09:15:46.430Z</time>
      </trkpt>
      <trkpt lat="47.55493" lon="6.66786">
        <ele>558</ele>
        <time>2013-06-09T09:15:51.430Z</time>
      </trkpt>
      <trkpt lat="47.55477" lon="6.66765">
        <ele>557</ele>
        <time>2013-06-09T09:15:56.430Z</time>
      </trkpt>
      <trkpt lat="47.55463" lon="6.66739">
        <ele>557</ele>
        <time>2013-06-09T09:16:01.431Z</time>
      </trkpt>
      <trkpt lat="47.55449" lon="6.66711">
        <ele>556</ele>
        <time>2013-06-09T09:16:06.430Z</time>
      </trkpt>
      <trkpt lat="47.55436" lon="6.66685">
        <ele>554</ele>
        <time>2013-06-09T09:16:11.443Z</time>
      </trkpt>
      <trkpt lat="47.55426" lon="6.66662">
        <ele>554</ele>
        <time>2013-06-09T09:16:16.430Z</time>
      </trkpt>
      <trkpt lat="47.5541" lon="6.66645">
        <ele>554</ele>
        <time>2013-06-09T09:16:21.430Z</time>
      </trkpt>
      <trkpt lat="47.55397" lon="6.66628">
        <ele>554</ele>
        <time>2013-06-09T09:16:26.430Z</time>
      </trkpt>
      <trkpt lat="47.55389" lon="6.66603">
        <ele>554</ele>
        <time>2013-06-09T09:16:31.430Z</time>
      </trkpt>
      <trkpt lat="47.55382" lon="6.66579">
        <ele>554</ele>
        <time>2013-06-09T09:16:36.435Z</time>
      </trkpt>
      <trkpt lat="47.55373" lon="6.66557">
        <ele>554</ele>
        <time>2013-06-09T09:16:41.444Z</time>
      </trkpt>
      <trkpt lat="47.5536" lon="6.66542">
        <ele>554</ele>
        <time>2013-06-09T09:16:46.430Z</time>
      </trkpt>
      <trkpt lat="47.5535" lon="6.66526">
        <ele>555</ele>
        <time>2013-06-09T09:16:51.430Z</time>
      </trkpt>
      <trkpt lat="47.55342" lon="6.66513">
        <ele>556</ele>
        <time>2013-06-09T09:16:56.432Z</time>
      </trkpt>
      <trkpt lat="47.55335" lon="6.66502">
        <ele>558</ele>
        <time>2013-06-09T09:17:01.430Z</time>
      </trkpt>
      <trkpt lat="47.55327" lon="6.66493">
        <ele>559</ele>
        <time>2013-06-09T09:17:06.427Z</time>
      </trkpt>
      <trkpt lat="47.55325" lon="6.66485">
        <ele>559</ele>
        <time>2013-06-09T09:17:11.443Z</time>
      </trkpt>
      <trkpt lat="47.55321" lon="6.6647">
        <ele>559</ele>
        <time>2013-06-09T09:17:16.431Z</time>
      </trkpt>
      <trkpt lat="47.55317" lon="6.6646">
        <ele>561</ele>
        <time>2013-06-09T09:17:21.430Z</time>
      </trkpt>
      <trkpt lat="47.5531" lon="6.66446">
        <ele>562</ele>
        <time>2013-06-09T09:17:26.430Z</time>
      </trkpt>
      <trkpt lat="47.55304" lon="6.66434">
        <ele>563</ele>
        <time>2013-06-09T09:17:31.431Z</time>
      </trkpt>
      <trkpt lat="47.553" lon="6.66422">
        <ele>564</ele>
        <time>2013-06-09T09:17:36.431Z</time>
      </trkpt>
      <trkpt lat="47.55293" lon="6.66412">
        <ele>565</ele>
        <time>2013-06-09T09:17:41.448Z</time>
      </trkpt>
      <trkpt lat="47.55286" lon="6.66403">
        <ele>565</ele>
        <time>2013-06-09T09:17:46.430Z</time>
      </trkpt>
      <trkpt lat="47.55277" lon="6.66394">
        <ele>566</ele>
        <time>2013-06-09T09:17:51.432Z</time>
      </trkpt>
      <trkpt lat="47.55273" lon="6.66386">
        <ele>566</ele>
        <time>2013-06-09T09:17:56.578Z</time>
      </trkpt>
      <trkpt lat="47.55268" lon="6.66377">
        <ele>566</ele>
        <time>2013-06-09T09:18:01.534Z</time>
      </trkpt>
      <trkpt lat="47.5526" lon="6.66366">
        <ele>566</ele>
        <time>2013-06-09T09:18:06.531Z</time>
      </trkpt>
      <trkpt lat="47.55254" lon="6.66356">
        <ele>567</ele>
        <time>2013-06-09T09:18:11.530Z</time>
      </trkpt>
      <trkpt lat="47.55254" lon="6.66346">
        <ele>568</ele>
        <time>2013-06-09T09:18:16.543Z</time>
      </trkpt>
      <trkpt lat="47.5525" lon="6.66339">
        <ele>568</ele>
        <time>2013-06-09T09:18:21.531Z</time>
      </trkpt>
      <trkpt lat="47.5524" lon="6.66331">
        <ele>568</ele>
        <time>2013-06-09T09:18:26.531Z</time>
      </trkpt>
      <trkpt lat="47.5523" lon="6.66325">
        <ele>569</ele>
        <time>2013-06-09T09:18:31.529Z</time>
      </trkpt>
      <trkpt lat="47.55222" lon="6.66316">
        <ele>570</ele>
        <time>2013-06-09T09:18:36.530Z</time>
      </trkpt>
      <trkpt lat="47.55213" lon="6.66312">
        <ele>570</ele>
        <time>2013-06-09T09:18:41.538Z</time>
      </trkpt>
      <trkpt lat="47.55203" lon="6.66307">
        <ele>571</ele>
        <time>2013-06-09T09:18:46.537Z</time>
      </trkpt>
      <trkpt lat="47.55191" lon="6.66295">
        <ele>570</ele>
        <time>2013-06-09T09:18:56.528Z</time>
      </trkpt>
      <trkpt lat="47.55184" lon="6.66292">
        <ele>569</ele>
        <time>2013-06-09T09:19:01.528Z</time>
      </trkpt>
      <trkpt lat="47.55175" lon="6.66282">
        <ele>569</ele>
        <time>2013-06-09T09:19:06.528Z</time>
      </trkpt>
      <trkpt lat="47.5517" lon="6.66276">
        <ele>569</ele>
        <time>2013-06-09T09:19:11.528Z</time>
      </trkpt>
      <trkpt lat="47.55164" lon="6.66272">
        <ele>569</ele>
        <time>2013-06-09T09:19:16.539Z</time>
      </trkpt>
      <trkpt lat="47.55158" lon="6.66266">
        <ele>568</ele>
        <time>2013-06-09T09:19:21.528Z</time>
      </trkpt>
      <trkpt lat="47.5515" lon="6.6626">
        <ele>569</ele>
        <time>2013-06-09T09:19:26.528Z</time>
      </trkpt>
      <trkpt lat="47.55139" lon="6.66254">
        <ele>569</ele>
        <time>2013-06-09T09:19:31.527Z</time>
      </trkpt>
      <trkpt lat="47.55126" lon="6.66247">
        <ele>569</ele>
        <time>2013-06-09T09:19:36.532Z</time>
      </trkpt>
      <trkpt lat="47.5512" lon="6.66235">
        <ele>570</ele>
        <time>2013-06-09T09:19:41.528Z</time>
      </trkpt>
      <trkpt lat="47.55111" lon="6.66226">
        <ele>571</ele>
        <time>2013-06-09T09:19:46.546Z</time>
      </trkpt>
      <trkpt lat="47.55101" lon="6.6622">
        <ele>572</ele>
        <time>2013-06-09T09:19:51.527Z</time>
      </trkpt>
      <trkpt lat="47.55092" lon="6.66214">
        <ele>573</ele>
        <time>2013-06-09T09:19:56.528Z</time>
      </trkpt>
      <trkpt lat="47.5501" lon="6.66153">
        <ele>568</ele>
        <time>2013-06-09T09:20:36.527Z</time>
      </trkpt>
      <trkpt lat="47.55003" lon="6.66146">
        <ele>568</ele>
        <time>2013-06-09T09:20:41.527Z</time>
      </trkpt>
      <trkpt lat="47.54997" lon="6.66138">
        <ele>567</ele>
        <time>2013-06-09T09:20:46.546Z</time>
      </trkpt>
      <trkpt lat="47.54989" lon="6.66125">
        <ele>565</ele>
        <time>2013-06-09T09:20:51.537Z</time>
      </trkpt>
      <trkpt lat="47.54978" lon="6.66118">
        <ele>563</ele>
        <time>2013-06-09T09:20:56.528Z</time>
      </trkpt>
      <trkpt lat="47.54969" lon="6.66106">
        <ele>562</ele>
        <time>2013-06-09T09:21:06.531Z</time>
      </trkpt>
      <trkpt lat="47.54966" lon="6.66099">
        <ele>561</ele>
        <time>2013-06-09T09:21:11.533Z</time>
      </trkpt>
      <trkpt lat="47.54963" lon="6.66091">
        <ele>560</ele>
        <time>2013-06-09T09:21:16.539Z</time>
      </trkpt>
      <trkpt lat="47.54958" lon="6.66085">
        <ele>561</ele>
        <time>2013-06-09T09:21:21.531Z</time>
      </trkpt>
      <trkpt lat="47.54953" lon="6.66086">
        <ele>560</ele>
        <time>2013-06-09T09:21:26.528Z</time>
      </trkpt>
      <trkpt lat="47.54951" lon="6.66085">
        <ele>559</ele>
        <time>2013-06-09T09:21:31.528Z</time>
      </trkpt>
      <trkpt lat="47.5495" lon="6.66084">
        <ele>559</ele>
        <time>2013-06-09T09:21:36.529Z</time>
      </trkpt>
      <trkpt lat="47.54948" lon="6.66084">
        <ele>558</ele>
        <time>2013-06-09T09:21:41.528Z</time>
      </trkpt>
      <trkpt lat="47.54947" lon="6.66081">
        <ele>557</ele>
        <time>2013-06-09T09:21:46.539Z</time>
      </trkpt>
      <trkpt lat="47.54946" lon="6.66079">
        <ele>558</ele>
        <time>2013-06-09T09:21:51.536Z</time>
      </trkpt>
      <trkpt lat="47.54947" lon="6.66076">
        <ele>557</ele>
        <time>2013-06-09T09:21:56.526Z</time>
      </trkpt>
      <trkpt lat="47.54942" lon="6.66072">
        <ele>557</ele>
        <time>2013-06-09T09:22:01.508Z</time>
      </trkpt>
      <trkpt lat="47.54936" lon="6.66066">
        <ele>557</ele>
        <time>2013-06-09T09:22:06.528Z</time>
      </trkpt>
      <trkpt lat="47.54927" lon="6.66058">
        <ele>557</ele>
        <time>2013-06-09T09:22:11.526Z</time>
      </trkpt>
      <trkpt lat="47.54917" lon="6.66049">
        <ele>558</ele>
        <time>2013-06-09T09:22:16.537Z</time>
      </trkpt>
      <trkpt lat="47.54907" lon="6.6604">
        <ele>559</ele>
        <time>2013-06-09T09:22:21.528Z</time>
      </trkpt>
      <trkpt lat="47.549" lon="6.6603">
        <ele>560</ele>
        <time>2013-06-09T09:22:26.528Z</time>
      </trkpt>
      <trkpt lat="47.54888" lon="6.66019">
        <ele>559</ele>
        <time>2013-06-09T09:22:31.534Z</time>
      </trkpt>
      <trkpt lat="47.54876" lon="6.66011">
        <ele>559</ele>
        <time>2013-06-09T09:22:36.528Z</time>
      </trkpt>
      <trkpt lat="47.54866" lon="6.66005">
        <ele>559</ele>
        <time>2013-06-09T09:22:41.528Z</time>
      </trkpt>
      <trkpt lat="47.54852" lon="6.66003">
        <ele>558</ele>
        <time>2013-06-09T09:22:46.539Z</time>
      </trkpt>
      <trkpt lat="47.54843" lon="6.65999">
        <ele>558</ele>
        <time>2013-06-09T09:22:51.529Z</time>
      </trkpt>
      <trkpt lat="47.54837" lon="6.66">
        <ele>557</ele>
        <time>2013-06-09T09:22:56.528Z</time>
      </trkpt>
      <trkpt lat="47.54828" lon="6.65993">
        <ele>554</ele>
        <time>2013-06-09T09:23:01.528Z</time>
      </trkpt>
      <trkpt lat="47.54818" lon="6.65992">
        <ele>555</ele>
        <time>2013-06-09T09:23:06.532Z</time>
      </trkpt>
      <trkpt lat="47.54807" lon="6.65985">
        <ele>556</ele>
        <time>2013-06-09T09:23:11.527Z</time>
      </trkpt>
      <trkpt lat="47.54794" lon="6.65974">
        <ele>555</ele>
        <time>2013-06-09T09:23:16.539Z</time>
      </trkpt>
      <trkpt lat="47.54782" lon="6.65969">
        <ele>555</ele>
        <time>2013-06-09T09:23:21.526Z</time>
      </trkpt>
      <trkpt lat="47.54769" lon="6.65963">
        <ele>554</ele>
        <time>2013-06-09T09:23:26.528Z</time>
      </trkpt>
      <trkpt lat="47.54756" lon="6.65952">
        <ele>554</ele>
        <time>2013-06-09T09:23:31.534Z</time>
      </trkpt>
      <trkpt lat="47.54743" lon="6.65948">
        <ele>555</ele>
        <time>2013-06-09T09:23:36.539Z</time>
      </trkpt>
      <trkpt lat="47.54732" lon="6.65952">
        <ele>554</ele>
        <time>2013-06-09T09:23:41.511Z</time>
      </trkpt>
      <trkpt lat="47.54708" lon="6.65926">
        <ele>556</ele>
        <time>2013-06-09T09:23:51.524Z</time>
      </trkpt>
      <trkpt lat="47.54695" lon="6.65919">
        <ele>557</ele>
        <time>2013-06-09T09:23:56.527Z</time>
      </trkpt>
      <trkpt lat="47.54679" lon="6.65914">
        <ele>557</ele>
        <time>2013-06-09T09:24:01.528Z</time>
      </trkpt>
      <trkpt lat="47.54666" lon="6.65909">
        <ele>559</ele>
        <time>2013-06-09T09:24:06.528Z</time>
      </trkpt>
      <trkpt lat="47.54655" lon="6.65904">
        <ele>559</ele>
        <time>2013-06-09T09:24:11.530Z</time>
      </trkpt>
      <trkpt lat="47.54644" lon="6.65899">
        <ele>559</ele>
        <time>2013-06-09T09:24:16.539Z</time>
      </trkpt>
      <trkpt lat="47.54627" lon="6.65889">
        <ele>560</ele>
        <time>2013-06-09T09:24:21.528Z</time>
      </trkpt>
      <trkpt lat="47.54612" lon="6.65883">
        <ele>559</ele>
        <time>2013-06-09T09:24:26.527Z</time>
      </trkpt>
      <trkpt lat="47.54594" lon="6.65874">
        <ele>560</ele>
        <time>2013-06-09T09:24:31.528Z</time>
      </trkpt>
      <trkpt lat="47.54584" lon="6.65867">
        <ele>560</ele>
        <time>2013-06-09T09:24:36.527Z</time>
      </trkpt>
      <trkpt lat="47.54575" lon="6.6586">
        <ele>558</ele>
        <time>2013-06-09T09:24:41.523Z</time>
      </trkpt>
      <trkpt lat="47.5456" lon="6.65847">
        <ele>558</ele>
        <time>2013-06-09T09:24:46.538Z</time>
      </trkpt>
      <trkpt lat="47.54548" lon="6.65833">
        <ele>559</ele>
        <time>2013-06-09T09:24:51.528Z</time>
      </trkpt>
      <trkpt lat="47.54535" lon="6.65822">
        <ele>559</ele>
        <time>2013-06-09T09:24:56.526Z</time>
      </trkpt>
      <trkpt lat="47.54527" lon="6.65811">
        <ele>559</ele>
        <time>2013-06-09T09:25:01.528Z</time>
      </trkpt>
      <trkpt lat="47.54518" lon="6.658">
        <ele>559</ele>
        <time>2013-06-09T09:25:06.524Z</time>
      </trkpt>
      <trkpt lat="47.54507" lon="6.65788">
        <ele>558</ele>
        <time>2013-06-09T09:25:11.531Z</time>
      </trkpt>
      <trkpt lat="47.54497" lon="6.65776">
        <ele>558</ele>
        <time>2013-06-09T09:25:16.541Z</time>
      </trkpt>
      <trkpt lat="47.54487" lon="6.6576">
        <ele>560</ele>
        <time>2013-06-09T09:25:21.527Z</time>
      </trkpt>
      <trkpt lat="47.54476" lon="6.65749">
        <ele>561</ele>
        <time>2013-06-09T09:25:26.526Z</time>
      </trkpt>
      <trkpt lat="47.54468" lon="6.65741">
        <ele>562</ele>
        <time>2013-06-09T09:25:31.540Z</time>
      </trkpt>
      <trkpt lat="47.54453" lon="6.65727">
        <ele>562</ele>
        <time>2013-06-09T09:25:36.525Z</time>
      </trkpt>
      <trkpt lat="47.54443" lon="6.65714">
        <ele>562</ele>
        <time>2013-06-09T09:25:41.538Z</time>
      </trkpt>
      <trkpt lat="47.54431" lon="6.65702">
        <ele>562</ele>
        <time>2013-06-09T09:25:46.540Z</time>
      </trkpt>
      <trkpt lat="47.54415" lon="6.65685">
        <ele>561</ele>
        <time>2013-06-09T09:25:51.522Z</time>
      </trkpt>
      <trkpt lat="47.54398" lon="6.65666">
        <ele>559</ele>
        <time>2013-06-09T09:25:56.526Z</time>
      </trkpt>
      <trkpt lat="47.54385" lon="6.65649">
        <ele>558</ele>
        <time>2013-06-09T09:26:01.526Z</time>
      </trkpt>
      <trkpt lat="47.54367" lon="6.65636">
        <ele>559</ele>
        <time>2013-06-09T09:26:06.525Z</time>
      </trkpt>
      <trkpt lat="47.54351" lon="6.65622">
        <ele>561</ele>
        <time>2013-06-09T09:26:11.526Z</time>
      </trkpt>
      <trkpt lat="47.54337" lon="6.65609">
        <ele>561</ele>
        <time>2013-06-09T09:26:16.543Z</time>
      </trkpt>
      <trkpt lat="47.54328" lon="6.65597">
        <ele>562</ele>
        <time>2013-06-09T09:26:21.528Z</time>
      </trkpt>
      <trkpt lat="47.54313" lon="6.65579">
        <ele>561</ele>
        <time>2013-06-09T09:26:26.535Z</time>
      </trkpt>
      <trkpt lat="47.54299" lon="6.65562">
        <ele>561</ele>
        <time>2013-06-09T09:26:31.533Z</time>
      </trkpt>
      <trkpt lat="47.54285" lon="6.65551">
        <ele>560</ele>
        <time>2013-06-09T09:26:36.533Z</time>
      </trkpt>
      <trkpt lat="47.54274" lon="6.6554">
        <ele>558</ele>
        <time>2013-06-09T09:26:41.525Z</time>
      </trkpt>
      <trkpt lat="47.54262" lon="6.6553">
        <ele>557</ele>
        <time>2013-06-09T09:26:46.537Z</time>
      </trkpt>
      <trkpt lat="47.54251" lon="6.65517">
        <ele>556</ele>
        <time>2013-06-09T09:26:51.525Z</time>
      </trkpt>
      <trkpt lat="47.54245" lon="6.65506">
        <ele>555</ele>
        <time>2013-06-09T09:26:56.526Z</time>
      </trkpt>
      <trkpt lat="47.54244" lon="6.65503">
        <ele>552</ele>
        <time>2013-06-09T09:27:01.527Z</time>
      </trkpt>
      <trkpt lat="47.54245" lon="6.655">
        <ele>552</ele>
        <time>2013-06-09T09:27:06.526Z</time>
      </trkpt>
      <trkpt lat="47.54245" lon="6.65499">
        <ele>552</ele>
        <time>2013-06-09T09:27:11.525Z</time>
      </trkpt>
      <trkpt lat="47.54249" lon="6.65497">
        <ele>552</ele>
        <time>2013-06-09T09:27:16.547Z</time>
      </trkpt>
      <trkpt lat="47.54253" lon="6.65498">
        <ele>552</ele>
        <time>2013-06-09T09:27:21.522Z</time>
      </trkpt>
      <trkpt lat="47.54253" lon="6.655">
        <ele>551</ele>
        <time>2013-06-09T09:27:26.523Z</time>
      </trkpt>
      <trkpt lat="47.54255" lon="6.65498">
        <ele>553</ele>
        <time>2013-06-09T09:27:31.529Z</time>
      </trkpt>
      <trkpt lat="47.54255" lon="6.65498">
        <ele>553</ele>
        <time>2013-06-09T09:27:36.524Z</time>
      </trkpt>
      <trkpt lat="47.54254" lon="6.65497">
        <ele>553</ele>
        <time>2013-06-09T09:27:41.512Z</time>
      </trkpt>
      <trkpt lat="47.54253" lon="6.65495">
        <ele>555</ele>
        <time>2013-06-09T09:27:46.544Z</time>
      </trkpt>
      <trkpt lat="47.54246" lon="6.65491">
        <ele>552</ele>
        <time>2013-06-09T09:27:51.517Z</time>
      </trkpt>
      <trkpt lat="47.54245" lon="6.6549">
        <ele>551</ele>
        <time>2013-06-09T09:27:56.526Z</time>
      </trkpt>
      <trkpt lat="47.54245" lon="6.6549">
        <ele>551</ele>
        <time>2013-06-09T09:28:01.524Z</time>
      </trkpt>
      <trkpt lat="47.54244" lon="6.6549">
        <ele>551</ele>
        <time>2013-06-09T09:28:06.523Z</time>
      </trkpt>
      <trkpt lat="47.54246" lon="6.65489">
        <ele>554</ele>
        <time>2013-06-09T09:28:11.523Z</time>
      </trkpt>
      <trkpt lat="47.54244" lon="6.6549">
        <ele>554</ele>
        <time>2013-06-09T09:28:16.532Z</time>
      </trkpt>
      <trkpt lat="47.54236" lon="6.65485">
        <ele>554</ele>
        <time>2013-06-09T09:28:21.526Z</time>
      </trkpt>
      <trkpt lat="47.54225" lon="6.65475">
        <ele>552</ele>
        <time>2013-06-09T09:28:26.526Z</time>
      </trkpt>
      <trkpt lat="47.54212" lon="6.65467">
        <ele>552</ele>
        <time>2013-06-09T09:28:31.509Z</time>
      </trkpt>
      <trkpt lat="47.54187" lon="6.65443">
        <ele>550</ele>
        <time>2013-06-09T09:28:41.529Z</time>
      </trkpt>
      <trkpt lat="47.54174" lon="6.6543">
        <ele>551</ele>
        <time>2013-06-09T09:28:46.543Z</time>
      </trkpt>
      <trkpt lat="47.54163" lon="6.65415">
        <ele>550</ele>
        <time>2013-06-09T09:28:51.533Z</time>
      </trkpt>
      <trkpt lat="47.54154" lon="6.65399">
        <ele>549</ele>
        <time>2013-06-09T09:28:56.525Z</time>
      </trkpt>
      <trkpt lat="47.54143" lon="6.6538">
        <ele>550</ele>
        <time>2013-06-09T09:29:01.533Z</time>
      </trkpt>
      <trkpt lat="47.54133" lon="6.65367">
        <ele>551</ele>
        <time>2013-06-09T09:29:06.524Z</time>
      </trkpt>
      <trkpt lat="47.54129" lon="6.6536">
        <ele>549</ele>
        <time>2013-06-09T09:29:11.529Z</time>
      </trkpt>
      <trkpt lat="47.54131" lon="6.65357">
        <ele>549</ele>
        <time>2013-06-09T09:29:16.548Z</time>
      </trkpt>
      <trkpt lat="47.54129" lon="6.65352">
        <ele>551</ele>
        <time>2013-06-09T09:29:21.525Z</time>
      </trkpt>
      <trkpt lat="47.54122" lon="6.65344">
        <ele>551</ele>
        <time>2013-06-09T09:29:26.526Z</time>
      </trkpt>
      <trkpt lat="47.54106" lon="6.65329">
        <ele>549</ele>
        <time>2013-06-09T09:29:31.533Z</time>
      </trkpt>
      <trkpt lat="47.54093" lon="6.65304">
        <ele>549</ele>
        <time>2013-06-09T09:29:36.527Z</time>
      </trkpt>
      <trkpt lat="47.54076" lon="6.65279">
        <ele>548</ele>
        <time>2013-06-09T09:29:41.527Z</time>
      </trkpt>
      <trkpt lat="47.54061" lon="6.65254">
        <ele>545</ele>
        <time>2013-06-09T09:29:46.544Z</time>
      </trkpt>
      <trkpt lat="47.54046" lon="6.65232">
        <ele>544</ele>
        <time>2013-06-09T09:29:51.507Z</time>
      </trkpt>
      <trkpt lat="47.54031" lon="6.65206">
        <ele>542</ele>
        <time>2013-06-09T09:29:56.508Z</time>
      </trkpt>
      <trkpt lat="47.53951" lon="6.6509">
        <ele>533</ele>
        <time>2013-06-09T09:30:36.530Z</time>
      </trkpt>
      <trkpt lat="47.53942" lon="6.65079">
        <ele>533</ele>
        <time>2013-06-09T09:30:41.528Z</time>
      </trkpt>
      <trkpt lat="47.5393" lon="6.6507">
        <ele>532</ele>
        <time>2013-06-09T09:30:46.539Z</time>
      </trkpt>
      <trkpt lat="47.53919" lon="6.65063">
        <ele>532</ele>
        <time>2013-06-09T09:30:51.534Z</time>
      </trkpt>
      <trkpt lat="47.5391" lon="6.65056">
        <ele>533</ele>
        <time>2013-06-09T09:30:56.537Z</time>
      </trkpt>
      <trkpt lat="47.5389" lon="6.65043">
        <ele>533</ele>
        <time>2013-06-09T09:31:06.538Z</time>
      </trkpt>
      <trkpt lat="47.53879" lon="6.65033">
        <ele>532</ele>
        <time>2013-06-09T09:31:11.556Z</time>
      </trkpt>
      <trkpt lat="47.53874" lon="6.65021">
        <ele>531</ele>
        <time>2013-06-09T09:31:16.529Z</time>
      </trkpt>
      <trkpt lat="47.53862" lon="6.65014">
        <ele>530</ele>
        <time>2013-06-09T09:31:21.535Z</time>
      </trkpt>
      <trkpt lat="47.53847" lon="6.65009">
        <ele>529</ele>
        <time>2013-06-09T09:31:26.598Z</time>
      </trkpt>
      <trkpt lat="47.53835" lon="6.65004">
        <ele>528</ele>
        <time>2013-06-09T09:31:31.529Z</time>
      </trkpt>
      <trkpt lat="47.5382" lon="6.64994">
        <ele>528</ele>
        <time>2013-06-09T09:31:36.528Z</time>
      </trkpt>
      <trkpt lat="47.53807" lon="6.64984">
        <ele>528</ele>
        <time>2013-06-09T09:31:41.525Z</time>
      </trkpt>
      <trkpt lat="47.53803" lon="6.6498">
        <ele>529</ele>
        <time>2013-06-09T09:31:46.544Z</time>
      </trkpt>
      <trkpt lat="47.53798" lon="6.64978">
        <ele>529</ele>
        <time>2013-06-09T09:31:51.533Z</time>
      </trkpt>
      <trkpt lat="47.53796" lon="6.64973">
        <ele>532</ele>
        <time>2013-06-09T09:31:56.533Z</time>
      </trkpt>
      <trkpt lat="47.5379" lon="6.6497">
        <ele>532</ele>
        <time>2013-06-09T09:32:01.517Z</time>
      </trkpt>
      <trkpt lat="47.53777" lon="6.64967">
        <ele>531</ele>
        <time>2013-06-09T09:32:06.529Z</time>
      </trkpt>
      <trkpt lat="47.53769" lon="6.64958">
        <ele>530</ele>
        <time>2013-06-09T09:32:11.539Z</time>
      </trkpt>
      <trkpt lat="47.5376" lon="6.64948">
        <ele>529</ele>
        <time>2013-06-09T09:32:16.536Z</time>
      </trkpt>
      <trkpt lat="47.53748" lon="6.64941">
        <ele>529</ele>
        <time>2013-06-09T09:32:21.526Z</time>
      </trkpt>
      <trkpt lat="47.5374" lon="6.64931">
        <ele>527</ele>
        <time>2013-06-09T09:32:26.526Z</time>
      </trkpt>
      <trkpt lat="47.53729" lon="6.64922">
        <ele>526</ele>
        <time>2013-06-09T09:32:31.527Z</time>
      </trkpt>
      <trkpt lat="47.53717" lon="6.64915">
        <ele>525</ele>
        <time>2013-06-09T09:32:36.525Z</time>
      </trkpt>
      <trkpt lat="47.53702" lon="6.64908">
        <ele>524</ele>
        <time>2013-06-09T09:32:41.527Z</time>
      </trkpt>
      <trkpt lat="47.53686" lon="6.64898">
        <ele>523</ele>
        <time>2013-06-09T09:32:46.542Z</time>
      </trkpt>
      <trkpt lat="47.53672" lon="6.64891">
        <ele>522</ele>
        <time>2013-06-09T09:32:51.528Z</time>
      </trkpt>
      <trkpt lat="47.53664" lon="6.64882">
        <ele>523</ele>
        <time>2013-06-09T09:32:56.529Z</time>
      </trkpt>
      <trkpt lat="47.53656" lon="6.64875">
        <ele>523</ele>
        <time>2013-06-09T09:33:01.508Z</time>
      </trkpt>
      <trkpt lat="47.53645" lon="6.64874">
        <ele>521</ele>
        <time>2013-06-09T09:33:06.520Z</time>
      </trkpt>
      <trkpt lat="47.53635" lon="6.64873">
        <ele>518</ele>
        <time>2013-06-09T09:33:11.528Z</time>
      </trkpt>
      <trkpt lat="47.53624" lon="6.6487">
        <ele>516</ele>
        <time>2013-06-09T09:33:16.539Z</time>
      </trkpt>
      <trkpt lat="47.53611" lon="6.64864">
        <ele>514</ele>
        <time>2013-06-09T09:33:21.536Z</time>
      </trkpt>
      <trkpt lat="47.53596" lon="6.64858">
        <ele>511</ele>
        <time>2013-06-09T09:33:26.528Z</time>
      </trkpt>
      <trkpt lat="47.53586" lon="6.64854">
        <ele>508</ele>
        <time>2013-06-09T09:33:31.528Z</time>
      </trkpt>
      <trkpt lat="47.5358" lon="6.64857">
        <ele>506</ele>
        <time>2013-06-09T09:33:36.528Z</time>
      </trkpt>
      <trkpt lat="47.53577" lon="6.64862">
        <ele>504</ele>
        <time>2013-06-09T09:33:41.529Z</time>
      </trkpt>
      <trkpt lat="47.53578" lon="6.6486">
        <ele>504</ele>
        <time>2013-06-09T09:33:46.526Z</time>
      </trkpt>
      <trkpt lat="47.53578" lon="6.64861">
        <ele>504</ele>
        <time>2013-06-09T09:33:56.528Z</time>
      </trkpt>
      <trkpt lat="47.53578" lon="6.64862">
        <ele>503</ele>
        <time>2013-06-09T09:34:01.524Z</time>
      </trkpt>
      <trkpt lat="47.53578" lon="6.64862">
        <ele>503</ele>
        <time>2013-06-09T09:34:06.523Z</time>
      </trkpt>
      <trkpt lat="47.53578" lon="6.64862">
        <ele>503</ele>
        <time>2013-06-09T09:34:11.523Z</time>
      </trkpt>
      <trkpt lat="47.53578" lon="6.64866">
        <ele>502</ele>
        <time>2013-06-09T09:34:16.532Z</time>
      </trkpt>
      <trkpt lat="47.5358" lon="6.64872">
        <ele>501</ele>
        <time>2013-06-09T09:34:21.523Z</time>
      </trkpt>
      <trkpt lat="47.53582" lon="6.64875">
        <ele>500</ele>
        <time>2013-06-09T09:34:26.524Z</time>
      </trkpt>
      <trkpt lat="47.53584" lon="6.64879">
        <ele>502</ele>
        <time>2013-06-09T09:34:31.523Z</time>
      </trkpt>
      <trkpt lat="47.53588" lon="6.64882">
        <ele>502</ele>
        <time>2013-06-09T09:34:36.524Z</time>
      </trkpt>
      <trkpt lat="47.53591" lon="6.64884">
        <ele>502</ele>
        <time>2013-06-09T09:34:41.530Z</time>
      </trkpt>
      <trkpt lat="47.53592" lon="6.64885">
        <ele>502</ele>
        <time>2013-06-09T09:34:46.540Z</time>
      </trkpt>
      <trkpt lat="47.53593" lon="6.64888">
        <ele>502</ele>
        <time>2013-06-09T09:34:51.531Z</time>
      </trkpt>
      <trkpt lat="47.53597" lon="6.64891">
        <ele>502</ele>
        <time>2013-06-09T09:34:56.530Z</time>
      </trkpt>
      <trkpt lat="47.53599" lon="6.64893">
        <ele>503</ele>
        <time>2013-06-09T09:35:01.531Z</time>
      </trkpt>
      <trkpt lat="47.536" lon="6.64892">
        <ele>503</ele>
        <time>2013-06-09T09:35:06.528Z</time>
      </trkpt>
      <trkpt lat="47.53604" lon="6.64892">
        <ele>503</ele>
        <time>2013-06-09T09:35:11.528Z</time>
      </trkpt>
      <trkpt lat="47.53609" lon="6.64891">
        <ele>504</ele>
        <time>2013-06-09T09:35:16.530Z</time>
      </trkpt>
      <trkpt lat="47.53613" lon="6.64894">
        <ele>504</ele>
        <time>2013-06-09T09:35:21.528Z</time>
      </trkpt>
      <trkpt lat="47.53617" lon="6.64897">
        <ele>504</ele>
        <time>2013-06-09T09:35:26.528Z</time>
      </trkpt>
      <trkpt lat="47.5362" lon="6.64896">
        <ele>504</ele>
        <time>2013-06-09T09:35:31.535Z</time>
      </trkpt>
      <trkpt lat="47.53622" lon="6.64892">
        <ele>504</ele>
        <time>2013-06-09T09:35:36.535Z</time>
      </trkpt>
      <trkpt lat="47.53627" lon="6.64891">
        <ele>503</ele>
        <time>2013-06-09T09:35:41.529Z</time>
      </trkpt>
      <trkpt lat="47.5363" lon="6.64895">
        <ele>504</ele>
        <time>2013-06-09T09:35:46.538Z</time>
      </trkpt>
      <trkpt lat="47.53632" lon="6.64896">
        <ele>505</ele>
        <time>2013-06-09T09:35:51.529Z</time>
      </trkpt>
      <trkpt lat="47.53635" lon="6.64896">
        <ele>505</ele>
        <time>2013-06-09T09:35:56.528Z</time>
      </trkpt>
      <trkpt lat="47.53638" lon="6.64897">
        <ele>505</ele>
        <time>2013-06-09T09:36:01.529Z</time>
      </trkpt>
      <trkpt lat="47.53639" lon="6.649">
        <ele>505</ele>
        <time>2013-06-09T09:36:06.529Z</time>
      </trkpt>
      <trkpt lat="47.53642" lon="6.649">
        <ele>505</ele>
        <time>2013-06-09T09:36:11.531Z</time>
      </trkpt>
      <trkpt lat="47.53643" lon="6.64903">
        <ele>506</ele>
        <time>2013-06-09T09:36:16.535Z</time>
      </trkpt>
      <trkpt lat="47.53645" lon="6.64904">
        <ele>506</ele>
        <time>2013-06-09T09:36:21.529Z</time>
      </trkpt>
      <trkpt lat="47.53646" lon="6.64906">
        <ele>507</ele>
        <time>2013-06-09T09:36:26.529Z</time>
      </trkpt>
      <trkpt lat="47.53647" lon="6.64907">
        <ele>508</ele>
        <time>2013-06-09T09:36:31.537Z</time>
      </trkpt>
      <trkpt lat="47.53649" lon="6.64912">
        <ele>509</ele>
        <time>2013-06-09T09:36:36.528Z</time>
      </trkpt>
      <trkpt lat="47.53653" lon="6.64916">
        <ele>508</ele>
        <time>2013-06-09T09:36:41.533Z</time>
      </trkpt>
      <trkpt lat="47.53655" lon="6.64924">
        <ele>509</ele>
        <time>2013-06-09T09:36:46.536Z</time>
      </trkpt>
      <trkpt lat="47.53657" lon="6.64931">
        <ele>509</ele>
        <time>2013-06-09T09:36:51.528Z</time>
      </trkpt>
      <trkpt lat="47.53658" lon="6.64936">
        <ele>511</ele>
        <time>2013-06-09T09:36:56.528Z</time>
      </trkpt>
      <trkpt lat="47.53659" lon="6.64938">
        <ele>511</ele>
        <time>2013-06-09T09:37:01.528Z</time>
      </trkpt>
      <trkpt lat="47.53658" lon="6.6494">
        <ele>511</ele>
        <time>2013-06-09T09:37:06.528Z</time>
      </trkpt>
      <trkpt lat="47.53661" lon="6.64939">
        <ele>512</ele>
        <time>2013-06-09T09:37:11.534Z</time>
      </trkpt>
      <trkpt lat="47.5366" lon="6.64935">
        <ele>512</ele>
        <time>2013-06-09T09:37:16.547Z</time>
      </trkpt>
      <trkpt lat="47.53656" lon="6.64935">
        <ele>512</ele>
        <time>2013-06-09T09:37:21.529Z</time>
      </trkpt>
      <trkpt lat="47.5366" lon="6.64932">
        <ele>514</ele>
        <time>2013-06-09T09:37:26.528Z</time>
      </trkpt>
      <trkpt lat="47.53663" lon="6.64931">
        <ele>514</ele>
        <time>2013-06-09T09:37:31.528Z</time>
      </trkpt>
      <trkpt lat="47.53668" lon="6.64933">
        <ele>514</ele>
        <time>2013-06-09T09:37:36.528Z</time>
      </trkpt>
      <trkpt lat="47.53673" lon="6.64937">
        <ele>514</ele>
        <time>2013-06-09T09:37:41.530Z</time>
      </trkpt>
      <trkpt lat="47.53675" lon="6.64943">
        <ele>514</ele>
        <time>2013-06-09T09:37:46.537Z</time>
      </trkpt>
      <trkpt lat="47.53676" lon="6.64948">
        <ele>514</ele>
        <time>2013-06-09T09:37:51.528Z</time>
      </trkpt>
      <trkpt lat="47.5368" lon="6.64954">
        <ele>514</ele>
        <time>2013-06-09T09:37:56.531Z</time>
      </trkpt>
      <trkpt lat="47.53681" lon="6.64964">
        <ele>516</ele>
        <time>2013-06-09T09:38:06.529Z</time>
      </trkpt>
      <trkpt lat="47.53682" lon="6.64972">
        <ele>517</ele>
        <time>2013-06-09T09:38:11.533Z</time>
      </trkpt>
      <trkpt lat="47.53684" lon="6.64983">
        <ele>517</ele>
        <time>2013-06-09T09:38:16.546Z</time>
      </trkpt>
      <trkpt lat="47.53685" lon="6.64993">
        <ele>517</ele>
        <time>2013-06-09T09:38:21.529Z</time>
      </trkpt>
      <trkpt lat="47.53684" lon="6.64997">
        <ele>516</ele>
        <time>2013-06-09T09:38:26.535Z</time>
      </trkpt>
      <trkpt lat="47.53684" lon="6.64994">
        <ele>516</ele>
        <time>2013-06-09T09:38:31.537Z</time>
      </trkpt>
      <trkpt lat="47.53682" lon="6.64993">
        <ele>517</ele>
        <time>2013-06-09T09:38:36.530Z</time>
      </trkpt>
      <trkpt lat="47.53678" lon="6.64997">
        <ele>517</ele>
        <time>2013-06-09T09:38:41.533Z</time>
      </trkpt>
      <trkpt lat="47.53673" lon="6.65005">
        <ele>518</ele>
        <time>2013-06-09T09:38:46.535Z</time>
      </trkpt>
      <trkpt lat="47.53665" lon="6.65015">
        <ele>519</ele>
        <time>2013-06-09T09:38:51.529Z</time>
      </trkpt>
      <trkpt lat="47.5366" lon="6.65023">
        <ele>519</ele>
        <time>2013-06-09T09:38:56.531Z</time>
      </trkpt>
      <trkpt lat="47.53648" lon="6.65031">
        <ele>520</ele>
        <time>2013-06-09T09:39:01.529Z</time>
      </trkpt>
      <trkpt lat="47.53634" lon="6.65037">
        <ele>521</ele>
        <time>2013-06-09T09:39:06.528Z</time>
      </trkpt>
      <trkpt lat="47.53618" lon="6.65048">
        <ele>521</ele>
        <time>2013-06-09T09:39:11.531Z</time>
      </trkpt>
      <trkpt lat="47.53607" lon="6.65057">
        <ele>521</ele>
        <time>2013-06-09T09:39:16.536Z</time>
      </trkpt>
      <trkpt lat="47.53596" lon="6.65055">
        <ele>520</ele>
        <time>2013-06-09T09:39:21.539Z</time>
      </trkpt>
      <trkpt lat="47.53576" lon="6.65044">
        <ele>521</ele>
        <time>2013-06-09T09:39:26.529Z</time>
      </trkpt>
      <trkpt lat="47.53563" lon="6.65054">
        <ele>521</ele>
        <time>2013-06-09T09:39:31.535Z</time>
      </trkpt>
      <trkpt lat="47.53553" lon="6.65071">
        <ele>520</ele>
        <time>2013-06-09T09:39:36.528Z</time>
      </trkpt>
      <trkpt lat="47.53546" lon="6.65086">
        <ele>520</ele>
        <time>2013-06-09T09:39:41.533Z</time>
      </trkpt>
      <trkpt lat="47.53538" lon="6.65105">
        <ele>518</ele>
        <time>2013-06-09T09:39:46.543Z</time>
      </trkpt>
      <trkpt lat="47.53526" lon="6.65122">
        <ele>518</ele>
        <time>2013-06-09T09:39:51.529Z</time>
      </trkpt>
      <trkpt lat="47.53514" lon="6.65142">
        <ele>518</ele>
        <time>2013-06-09T09:39:56.507Z</time>
      </trkpt>
      <trkpt lat="47.53503" lon="6.65159">
        <ele>517</ele>
        <time>2013-06-09T09:40:01.531Z</time>
      </trkpt>
      <trkpt lat="47.53488" lon="6.65178">
        <ele>517</ele>
        <time>2013-06-09T09:40:06.529Z</time>
      </trkpt>
      <trkpt lat="47.53475" lon="6.65197">
        <ele>516</ele>
        <time>2013-06-09T09:40:12.090Z</time>
      </trkpt>
      <trkpt lat="47.53456" lon="6.65216">
        <ele>516</ele>
        <time>2013-06-09T09:40:16.535Z</time>
      </trkpt>
      <trkpt lat="47.53438" lon="6.65222">
        <ele>515</ele>
        <time>2013-06-09T09:40:21.533Z</time>
      </trkpt>
      <trkpt lat="47.53426" lon="6.6521">
        <ele>514</ele>
        <time>2013-06-09T09:40:26.529Z</time>
      </trkpt>
      <trkpt lat="47.53407" lon="6.6519">
        <ele>514</ele>
        <time>2013-06-09T09:40:31.538Z</time>
      </trkpt>
      <trkpt lat="47.53387" lon="6.65164">
        <ele>513</ele>
        <time>2013-06-09T09:40:36.531Z</time>
      </trkpt>
      <trkpt lat="47.53365" lon="6.65139">
        <ele>513</ele>
        <time>2013-06-09T09:40:41.533Z</time>
      </trkpt>
      <trkpt lat="47.53342" lon="6.65113">
        <ele>512</ele>
        <time>2013-06-09T09:40:46.536Z</time>
      </trkpt>
      <trkpt lat="47.53314" lon="6.6508">
        <ele>511</ele>
        <time>2013-06-09T09:40:51.529Z</time>
      </trkpt>
      <trkpt lat="47.53287" lon="6.65046">
        <ele>509</ele>
        <time>2013-06-09T09:40:56.532Z</time>
      </trkpt>
      <trkpt lat="47.53266" lon="6.65021">
        <ele>508</ele>
        <time>2013-06-09T09:41:01.528Z</time>
      </trkpt>
      <trkpt lat="47.5325" lon="6.65008">
        <ele>506</ele>
        <time>2013-06-09T09:41:06.528Z</time>
      </trkpt>
      <trkpt lat="47.53235" lon="6.6501">
        <ele>506</ele>
        <time>2013-06-09T09:41:11.535Z</time>
      </trkpt>
      <trkpt lat="47.53209" lon="6.65008">
        <ele>504</ele>
        <time>2013-06-09T09:41:16.533Z</time>
      </trkpt>
      <trkpt lat="47.5318" lon="6.64999">
        <ele>501</ele>
        <time>2013-06-09T09:41:21.526Z</time>
      </trkpt>
      <trkpt lat="47.53169" lon="6.65002">
        <ele>501</ele>
        <time>2013-06-09T09:41:26.529Z</time>
      </trkpt>
      <trkpt lat="47.53165" lon="6.65019">
        <ele>498</ele>
        <time>2013-06-09T09:41:31.531Z</time>
      </trkpt>
      <trkpt lat="47.53154" lon="6.65031">
        <ele>496</ele>
        <time>2013-06-09T09:41:36.531Z</time>
      </trkpt>
      <trkpt lat="47.53131" lon="6.65027">
        <ele>494</ele>
        <time>2013-06-09T09:41:41.538Z</time>
      </trkpt>
      <trkpt lat="47.53111" lon="6.65031">
        <ele>493</ele>
        <time>2013-06-09T09:41:46.535Z</time>
      </trkpt>
      <trkpt lat="47.53092" lon="6.65034">
        <ele>492</ele>
        <time>2013-06-09T09:41:51.534Z</time>
      </trkpt>
      <trkpt lat="47.53075" lon="6.65048">
        <ele>491</ele>
        <time>2013-06-09T09:41:56.531Z</time>
      </trkpt>
      <trkpt lat="47.53054" lon="6.65058">
        <ele>490</ele>
        <time>2013-06-09T09:42:01.529Z</time>
      </trkpt>
      <trkpt lat="47.53033" lon="6.65071">
        <ele>490</ele>
        <time>2013-06-09T09:42:06.528Z</time>
      </trkpt>
      <trkpt lat="47.53002" lon="6.65091">
        <ele>489</ele>
        <time>2013-06-09T09:42:11.528Z</time>
      </trkpt>
      <trkpt lat="47.52967" lon="6.65097">
        <ele>488</ele>
        <time>2013-06-09T09:42:16.530Z</time>
      </trkpt>
      <trkpt lat="47.52938" lon="6.65105">
        <ele>486</ele>
        <time>2013-06-09T09:42:21.527Z</time>
      </trkpt>
      <trkpt lat="47.52905" lon="6.65116">
        <ele>484</ele>
        <time>2013-06-09T09:42:26.527Z</time>
      </trkpt>
      <trkpt lat="47.52875" lon="6.65131">
        <ele>482</ele>
        <time>2013-06-09T09:42:31.538Z</time>
      </trkpt>
      <trkpt lat="47.5285" lon="6.65161">
        <ele>480</ele>
        <time>2013-06-09T09:42:36.527Z</time>
      </trkpt>
      <trkpt lat="47.52827" lon="6.65179">
        <ele>477</ele>
        <time>2013-06-09T09:42:41.531Z</time>
      </trkpt>
      <trkpt lat="47.52803" lon="6.65206">
        <ele>473</ele>
        <time>2013-06-09T09:42:46.531Z</time>
      </trkpt>
      <trkpt lat="47.52778" lon="6.65223">
        <ele>468</ele>
        <time>2013-06-09T09:42:51.528Z</time>
      </trkpt>
      <trkpt lat="47.52757" lon="6.65212">
        <ele>466</ele>
        <time>2013-06-09T09:42:56.510Z</time>
      </trkpt>
      <trkpt lat="47.52738" lon="6.65198">
        <ele>459</ele>
        <time>2013-06-09T09:43:06.531Z</time>
      </trkpt>
      <trkpt lat="47.52726" lon="6.65211">
        <ele>456</ele>
        <time>2013-06-09T09:43:11.534Z</time>
      </trkpt>
      <trkpt lat="47.52706" lon="6.65234">
        <ele>453</ele>
        <time>2013-06-09T09:43:16.536Z</time>
      </trkpt>
      <trkpt lat="47.52692" lon="6.65259">
        <ele>448</ele>
        <time>2013-06-09T09:43:21.528Z</time>
      </trkpt>
      <trkpt lat="47.52674" lon="6.65284">
        <ele>444</ele>
        <time>2013-06-09T09:43:26.531Z</time>
      </trkpt>
      <trkpt lat="47.52648" lon="6.65304">
        <ele>442</ele>
        <time>2013-06-09T09:43:31.534Z</time>
      </trkpt>
      <trkpt lat="47.52624" lon="6.6533">
        <ele>441</ele>
        <time>2013-06-09T09:43:36.534Z</time>
      </trkpt>
      <trkpt lat="47.52601" lon="6.65361">
        <ele>439</ele>
        <time>2013-06-09T09:43:41.545Z</time>
      </trkpt>
      <trkpt lat="47.52582" lon="6.65399">
        <ele>436</ele>
        <time>2013-06-09T09:43:46.552Z</time>
      </trkpt>
      <trkpt lat="47.52566" lon="6.65444">
        <ele>432</ele>
        <time>2013-06-09T09:43:51.535Z</time>
      </trkpt>
      <trkpt lat="47.52552" lon="6.6549">
        <ele>430</ele>
        <time>2013-06-09T09:43:56.532Z</time>
      </trkpt>
      <trkpt lat="47.52534" lon="6.65535">
        <ele>427</ele>
        <time>2013-06-09T09:44:01.532Z</time>
      </trkpt>
      <trkpt lat="47.52513" lon="6.65578">
        <ele>425</ele>
        <time>2013-06-09T09:44:06.529Z</time>
      </trkpt>
      <trkpt lat="47.52493" lon="6.65622">
        <ele>424</ele>
        <time>2013-06-09T09:44:11.538Z</time>
      </trkpt>
      <trkpt lat="47.52474" lon="6.65663">
        <ele>423</ele>
        <time>2013-06-09T09:44:16.544Z</time>
      </trkpt>
      <trkpt lat="47.52456" lon="6.657">
        <ele>422</ele>
        <time>2013-06-09T09:44:21.529Z</time>
      </trkpt>
      <trkpt lat="47.52441" lon="6.65733">
        <ele>421</ele>
        <time>2013-06-09T09:44:26.528Z</time>
      </trkpt>
      <trkpt lat="47.52425" lon="6.65768">
        <ele>421</ele>
        <time>2013-06-09T09:44:31.527Z</time>
      </trkpt>
      <trkpt lat="47.52408" lon="6.658">
        <ele>421</ele>
        <time>2013-06-09T09:44:36.527Z</time>
      </trkpt>
      <trkpt lat="47.52392" lon="6.6583">
        <ele>421</ele>
        <time>2013-06-09T09:44:41.533Z</time>
      </trkpt>
      <trkpt lat="47.52378" lon="6.65858">
        <ele>421</ele>
        <time>2013-06-09T09:44:46.545Z</time>
      </trkpt>
      <trkpt lat="47.52364" lon="6.65885">
        <ele>421</ele>
        <time>2013-06-09T09:44:51.527Z</time>
      </trkpt>
      <trkpt lat="47.52349" lon="6.65909">
        <ele>421</ele>
        <time>2013-06-09T09:44:56.529Z</time>
      </trkpt>
      <trkpt lat="47.52324" lon="6.65957">
        <ele>422</ele>
        <time>2013-06-09T09:45:06.528Z</time>
      </trkpt>
      <trkpt lat="47.52313" lon="6.6598">
        <ele>422</ele>
        <time>2013-06-09T09:45:11.528Z</time>
      </trkpt>
      <trkpt lat="47.52301" lon="6.66002">
        <ele>422</ele>
        <time>2013-06-09T09:45:16.545Z</time>
      </trkpt>
      <trkpt lat="47.5229" lon="6.66026">
        <ele>422</ele>
        <time>2013-06-09T09:45:22.090Z</time>
      </trkpt>
      <trkpt lat="47.52278" lon="6.66048">
        <ele>423</ele>
        <time>2013-06-09T09:45:26.526Z</time>
      </trkpt>
      <trkpt lat="47.52265" lon="6.66068">
        <ele>424</ele>
        <time>2013-06-09T09:45:31.529Z</time>
      </trkpt>
      <trkpt lat="47.52256" lon="6.66083">
        <ele>425</ele>
        <time>2013-06-09T09:45:36.529Z</time>
      </trkpt>
      <trkpt lat="47.52252" lon="6.66084">
        <ele>425</ele>
        <time>2013-06-09T09:45:41.533Z</time>
      </trkpt>
      <trkpt lat="47.52253" lon="6.66095">
        <ele>425</ele>
        <time>2013-06-09T09:45:46.546Z</time>
      </trkpt>
      <trkpt lat="47.5225" lon="6.66114">
        <ele>425</ele>
        <time>2013-06-09T09:45:51.526Z</time>
      </trkpt>
      <trkpt lat="47.5224" lon="6.66132">
        <ele>425</ele>
        <time>2013-06-09T09:45:56.526Z</time>
      </trkpt>
      <trkpt lat="47.52229" lon="6.66147">
        <ele>425</ele>
        <time>2013-06-09T09:46:01.527Z</time>
      </trkpt>
      <trkpt lat="47.52217" lon="6.66165">
        <ele>425</ele>
        <time>2013-06-09T09:46:06.527Z</time>
      </trkpt>
      <trkpt lat="47.52203" lon="6.66179">
        <ele>426</ele>
        <time>2013-06-09T09:46:11.535Z</time>
      </trkpt>
      <trkpt lat="47.52192" lon="6.66195">
        <ele>427</ele>
        <time>2013-06-09T09:46:16.531Z</time>
      </trkpt>
      <trkpt lat="47.52181" lon="6.66213">
        <ele>428</ele>
        <time>2013-06-09T09:46:21.527Z</time>
      </trkpt>
      <trkpt lat="47.52171" lon="6.66229">
        <ele>428</ele>
        <time>2013-06-09T09:46:26.529Z</time>
      </trkpt>
      <trkpt lat="47.5216" lon="6.66243">
        <ele>429</ele>
        <time>2013-06-09T09:46:31.532Z</time>
      </trkpt>
      <trkpt lat="47.52148" lon="6.66258">
        <ele>429</ele>
        <time>2013-06-09T09:46:36.528Z</time>
      </trkpt>
      <trkpt lat="47.52134" lon="6.66278">
        <ele>429</ele>
        <time>2013-06-09T09:46:41.536Z</time>
      </trkpt>
      <trkpt lat="47.52117" lon="6.663">
        <ele>429</ele>
        <time>2013-06-09T09:46:46.535Z</time>
      </trkpt>
      <trkpt lat="47.52104" lon="6.66329">
        <ele>430</ele>
        <time>2013-06-09T09:46:51.534Z</time>
      </trkpt>
      <trkpt lat="47.52106" lon="6.66364">
        <ele>429</ele>
        <time>2013-06-09T09:46:56.531Z</time>
      </trkpt>
      <trkpt lat="47.5211" lon="6.66396">
        <ele>428</ele>
        <time>2013-06-09T09:47:01.526Z</time>
      </trkpt>
      <trkpt lat="47.52115" lon="6.66427">
        <ele>428</ele>
        <time>2013-06-09T09:47:06.526Z</time>
      </trkpt>
      <trkpt lat="47.52115" lon="6.66462">
        <ele>428</ele>
        <time>2013-06-09T09:47:11.532Z</time>
      </trkpt>
      <trkpt lat="47.52114" lon="6.66493">
        <ele>428</ele>
        <time>2013-06-09T09:47:16.535Z</time>
      </trkpt>
      <trkpt lat="47.52113" lon="6.66523">
        <ele>428</ele>
        <time>2013-06-09T09:47:21.532Z</time>
      </trkpt>
      <trkpt lat="47.52112" lon="6.66552">
        <ele>428</ele>
        <time>2013-06-09T09:47:26.535Z</time>
      </trkpt>
      <trkpt lat="47.52111" lon="6.66581">
        <ele>429</ele>
        <time>2013-06-09T09:47:31.529Z</time>
      </trkpt>
      <trkpt lat="47.52111" lon="6.6661">
        <ele>429</ele>
        <time>2013-06-09T09:47:36.511Z</time>
      </trkpt>
      <trkpt lat="47.52111" lon="6.66673">
        <ele>429</ele>
        <time>2013-06-09T09:47:46.535Z</time>
      </trkpt>
      <trkpt lat="47.52111" lon="6.66708">
        <ele>429</ele>
        <time>2013-06-09T09:47:51.529Z</time>
      </trkpt>
      <trkpt lat="47.52111" lon="6.66744">
        <ele>429</ele>
        <time>2013-06-09T09:47:56.538Z</time>
      </trkpt>
      <trkpt lat="47.52109" lon="6.66782">
        <ele>429</ele>
        <time>2013-06-09T09:48:01.536Z</time>
      </trkpt>
      <trkpt lat="47.52109" lon="6.66821">
        <ele>429</ele>
        <time>2013-06-09T09:48:06.528Z</time>
      </trkpt>
      <trkpt lat="47.5211" lon="6.66864">
        <ele>429</ele>
        <time>2013-06-09T09:48:11.544Z</time>
      </trkpt>
      <trkpt lat="47.52111" lon="6.66904">
        <ele>429</ele>
        <time>2013-06-09T09:48:16.531Z</time>
      </trkpt>
      <trkpt lat="47.52112" lon="6.66948">
        <ele>428</ele>
        <time>2013-06-09T09:48:21.518Z</time>
      </trkpt>
      <trkpt lat="47.52116" lon="6.6699">
        <ele>427</ele>
        <time>2013-06-09T09:48:26.526Z</time>
      </trkpt>
      <trkpt lat="47.52124" lon="6.67033">
        <ele>427</ele>
        <time>2013-06-09T09:48:31.536Z</time>
      </trkpt>
      <trkpt lat="47.52134" lon="6.67076">
        <ele>426</ele>
        <time>2013-06-09T09:48:36.526Z</time>
      </trkpt>
      <trkpt lat="47.52142" lon="6.67119">
        <ele>425</ele>
        <time>2013-06-09T09:48:41.530Z</time>
      </trkpt>
      <trkpt lat="47.5215" lon="6.67161">
        <ele>423</ele>
        <time>2013-06-09T09:48:46.530Z</time>
      </trkpt>
      <trkpt lat="47.52158" lon="6.67201">
        <ele>423</ele>
        <time>2013-06-09T09:48:51.533Z</time>
      </trkpt>
      <trkpt lat="47.52165" lon="6.6724">
        <ele>424</ele>
        <time>2013-06-09T09:48:56.526Z</time>
      </trkpt>
      <trkpt lat="47.5217" lon="6.67279">
        <ele>423</ele>
        <time>2013-06-09T09:49:01.535Z</time>
      </trkpt>
      <trkpt lat="47.52172" lon="6.6732">
        <ele>423</ele>
        <time>2013-06-09T09:49:06.529Z</time>
      </trkpt>
      <trkpt lat="47.52176" lon="6.67364">
        <ele>423</ele>
        <time>2013-06-09T09:49:11.534Z</time>
      </trkpt>
      <trkpt lat="47.52187" lon="6.67406">
        <ele>422</ele>
        <time>2013-06-09T09:49:16.533Z</time>
      </trkpt>
      <trkpt lat="47.522" lon="6.67441">
        <ele>422</ele>
        <time>2013-06-09T09:49:21.536Z</time>
      </trkpt>
      <trkpt lat="47.52208" lon="6.67476">
        <ele>423</ele>
        <time>2013-06-09T09:49:26.535Z</time>
      </trkpt>
      <trkpt lat="47.52208" lon="6.67513">
        <ele>423</ele>
        <time>2013-06-09T09:49:31.536Z</time>
      </trkpt>
      <trkpt lat="47.52206" lon="6.67551">
        <ele>423</ele>
        <time>2013-06-09T09:49:36.529Z</time>
      </trkpt>
      <trkpt lat="47.52206" lon="6.67591">
        <ele>423</ele>
        <time>2013-06-09T09:49:41.537Z</time>
      </trkpt>
      <trkpt lat="47.52204" lon="6.67633">
        <ele>423</ele>
        <time>2013-06-09T09:49:46.539Z</time>
      </trkpt>
      <trkpt lat="47.52203" lon="6.67677">
        <ele>422</ele>
        <time>2013-06-09T09:49:51.529Z</time>
      </trkpt>
      <trkpt lat="47.52201" lon="6.67724">
        <ele>421</ele>
        <time>2013-06-09T09:49:56.528Z</time>
      </trkpt>
      <trkpt lat="47.52198" lon="6.67772">
        <ele>420</ele>
        <time>2013-06-09T09:50:01.529Z</time>
      </trkpt>
      <trkpt lat="47.52194" lon="6.67822">
        <ele>419</ele>
        <time>2013-06-09T09:50:06.529Z</time>
      </trkpt>
      <trkpt lat="47.5219" lon="6.67869">
        <ele>418</ele>
        <time>2013-06-09T09:50:11.536Z</time>
      </trkpt>
      <trkpt lat="47.52187" lon="6.67916">
        <ele>418</ele>
        <time>2013-06-09T09:50:16.532Z</time>
      </trkpt>
      <trkpt lat="47.52184" lon="6.67963">
        <ele>416</ele>
        <time>2013-06-09T09:50:21.529Z</time>
      </trkpt>
      <trkpt lat="47.5218" lon="6.6801">
        <ele>415</ele>
        <time>2013-06-09T09:50:26.529Z</time>
      </trkpt>
      <trkpt lat="47.52177" lon="6.68054">
        <ele>415</ele>
        <time>2013-06-09T09:50:31.536Z</time>
      </trkpt>
      <trkpt lat="47.52173" lon="6.68096">
        <ele>415</ele>
        <time>2013-06-09T09:50:36.529Z</time>
      </trkpt>
      <trkpt lat="47.52169" lon="6.68128">
        <ele>415</ele>
        <time>2013-06-09T09:50:41.531Z</time>
      </trkpt>
      <trkpt lat="47.52161" lon="6.68151">
        <ele>415</ele>
        <time>2013-06-09T09:50:46.532Z</time>
      </trkpt>
      <trkpt lat="47.52161" lon="6.68185">
        <ele>415</ele>
        <time>2013-06-09T09:50:51.529Z</time>
      </trkpt>
      <trkpt lat="47.52164" lon="6.68225">
        <ele>414</ele>
        <time>2013-06-09T09:50:56.524Z</time>
      </trkpt>
      <trkpt lat="47.52174" lon="6.68266">
        <ele>413</ele>
        <time>2013-06-09T09:51:01.527Z</time>
      </trkpt>
      <trkpt lat="47.52183" lon="6.68305">
        <ele>412</ele>
        <time>2013-06-09T09:51:06.524Z</time>
      </trkpt>
      <trkpt lat="47.52192" lon="6.6834">
        <ele>412</ele>
        <time>2013-06-09T09:51:11.533Z</time>
      </trkpt>
      <trkpt lat="47.52198" lon="6.68372">
        <ele>412</ele>
        <time>2013-06-09T09:51:16.529Z</time>
      </trkpt>
      <trkpt lat="47.52203" lon="6.68404">
        <ele>412</ele>
        <time>2013-06-09T09:51:21.525Z</time>
      </trkpt>
      <trkpt lat="47.5221" lon="6.68439">
        <ele>411</ele>
        <time>2013-06-09T09:51:26.525Z</time>
      </trkpt>
      <trkpt lat="47.52216" lon="6.68473">
        <ele>411</ele>
        <time>2013-06-09T09:51:31.534Z</time>
      </trkpt>
      <trkpt lat="47.52223" lon="6.68503">
        <ele>410</ele>
        <time>2013-06-09T09:51:36.527Z</time>
      </trkpt>
      <trkpt lat="47.5223" lon="6.68532">
        <ele>410</ele>
        <time>2013-06-09T09:51:41.533Z</time>
      </trkpt>
      <trkpt lat="47.52241" lon="6.68555">
        <ele>411</ele>
        <time>2013-06-09T09:51:46.533Z</time>
      </trkpt>
      <trkpt lat="47.52256" lon="6.6857">
        <ele>411</ele>
        <time>2013-06-09T09:51:51.536Z</time>
      </trkpt>
      <trkpt lat="47.52271" lon="6.68576">
        <ele>412</ele>
        <time>2013-06-09T09:51:56.538Z</time>
      </trkpt>
      <trkpt lat="47.52284" lon="6.68576">
        <ele>412</ele>
        <time>2013-06-09T09:52:01.511Z</time>
      </trkpt>
      <trkpt lat="47.52296" lon="6.68572">
        <ele>413</ele>
        <time>2013-06-09T09:52:06.515Z</time>
      </trkpt>
      <trkpt lat="47.52318" lon="6.68565">
        <ele>415</ele>
        <time>2013-06-09T09:52:16.530Z</time>
      </trkpt>
      <trkpt lat="47.52334" lon="6.6856">
        <ele>416</ele>
        <time>2013-06-09T09:52:21.526Z</time>
      </trkpt>
      <trkpt lat="47.52346" lon="6.68555">
        <ele>417</ele>
        <time>2013-06-09T09:52:26.536Z</time>
      </trkpt>
      <trkpt lat="47.52357" lon="6.68553">
        <ele>418</ele>
        <time>2013-06-09T09:52:31.526Z</time>
      </trkpt>
      <trkpt lat="47.52364" lon="6.68557">
        <ele>420</ele>
        <time>2013-06-09T09:52:36.527Z</time>
      </trkpt>
      <trkpt lat="47.52372" lon="6.68568">
        <ele>420</ele>
        <time>2013-06-09T09:52:41.544Z</time>
      </trkpt>
      <trkpt lat="47.52375" lon="6.68584">
        <ele>420</ele>
        <time>2013-06-09T09:52:46.526Z</time>
      </trkpt>
      <trkpt lat="47.52372" lon="6.68596">
        <ele>420</ele>
        <time>2013-06-09T09:52:51.525Z</time>
      </trkpt>
      <trkpt lat="47.52366" lon="6.68613">
        <ele>420</ele>
        <time>2013-06-09T09:52:56.525Z</time>
      </trkpt>
      <trkpt lat="47.5236" lon="6.68628">
        <ele>421</ele>
        <time>2013-06-09T09:53:01.526Z</time>
      </trkpt>
      <trkpt lat="47.52354" lon="6.68647">
        <ele>422</ele>
        <time>2013-06-09T09:53:06.526Z</time>
      </trkpt>
      <trkpt lat="47.52349" lon="6.68666">
        <ele>422</ele>
        <time>2013-06-09T09:53:11.539Z</time>
      </trkpt>
      <trkpt lat="47.52349" lon="6.68688">
        <ele>422</ele>
        <time>2013-06-09T09:53:16.540Z</time>
      </trkpt>
      <trkpt lat="47.52354" lon="6.68707">
        <ele>422</ele>
        <time>2013-06-09T09:53:21.527Z</time>
      </trkpt>
      <trkpt lat="47.52361" lon="6.68729">
        <ele>422</ele>
        <time>2013-06-09T09:53:26.527Z</time>
      </trkpt>
      <trkpt lat="47.52367" lon="6.68751">
        <ele>422</ele>
        <time>2013-06-09T09:53:31.528Z</time>
      </trkpt>
      <trkpt lat="47.52374" lon="6.68774">
        <ele>422</ele>
        <time>2013-06-09T09:53:36.528Z</time>
      </trkpt>
      <trkpt lat="47.52381" lon="6.68797">
        <ele>422</ele>
        <time>2013-06-09T09:53:41.552Z</time>
      </trkpt>
      <trkpt lat="47.5239" lon="6.68819">
        <ele>422</ele>
        <time>2013-06-09T09:53:46.531Z</time>
      </trkpt>
      <trkpt lat="47.52402" lon="6.6884">
        <ele>422</ele>
        <time>2013-06-09T09:53:51.528Z</time>
      </trkpt>
      <trkpt lat="47.52417" lon="6.68865">
        <ele>422</ele>
        <time>2013-06-09T09:53:56.522Z</time>
      </trkpt>
      <trkpt lat="47.52436" lon="6.68898">
        <ele>422</ele>
        <time>2013-06-09T09:54:01.531Z</time>
      </trkpt>
      <trkpt lat="47.52457" lon="6.68937">
        <ele>422</ele>
        <time>2013-06-09T09:54:06.525Z</time>
      </trkpt>
      <trkpt lat="47.52482" lon="6.68974">
        <ele>419</ele>
        <time>2013-06-09T09:54:11.532Z</time>
      </trkpt>
      <trkpt lat="47.52508" lon="6.69007">
        <ele>417</ele>
        <time>2013-06-09T09:54:16.531Z</time>
      </trkpt>
      <trkpt lat="47.52535" lon="6.69043">
        <ele>415</ele>
        <time>2013-06-09T09:54:21.536Z</time>
      </trkpt>
      <trkpt lat="47.52561" lon="6.69082">
        <ele>413</ele>
        <time>2013-06-09T09:54:26.534Z</time>
      </trkpt>
      <trkpt lat="47.52576" lon="6.69132">
        <ele>410</ele>
        <time>2013-06-09T09:54:31.533Z</time>
      </trkpt>
      <trkpt lat="47.52586" lon="6.69183">
        <ele>408</ele>
        <time>2013-06-09T09:54:36.524Z</time>
      </trkpt>
      <trkpt lat="47.52591" lon="6.69234">
        <ele>407</ele>
        <time>2013-06-09T09:54:41.528Z</time>
      </trkpt>
      <trkpt lat="47.52595" lon="6.69284">
        <ele>406</ele>
        <time>2013-06-09T09:54:46.536Z</time>
      </trkpt>
      <trkpt lat="47.52598" lon="6.6933">
        <ele>404</ele>
        <time>2013-06-09T09:54:51.535Z</time>
      </trkpt>
      <trkpt lat="47.52594" lon="6.69378">
        <ele>403</ele>
        <time>2013-06-09T09:54:56.534Z</time>
      </trkpt>
      <trkpt lat="47.52596" lon="6.6943">
        <ele>402</ele>
        <time>2013-06-09T09:55:01.527Z</time>
      </trkpt>
      <trkpt lat="47.526" lon="6.69468">
        <ele>400</ele>
        <time>2013-06-09T09:55:06.529Z</time>
      </trkpt>
      <trkpt lat="47.52607" lon="6.6948">
        <ele>399</ele>
        <time>2013-06-09T09:55:11.539Z</time>
      </trkpt>
      <trkpt lat="47.52626" lon="6.69486">
        <ele>398</ele>
        <time>2013-06-09T09:55:16.533Z</time>
      </trkpt>
      <trkpt lat="47.52632" lon="6.69502">
        <ele>398</ele>
        <time>2013-06-09T09:55:21.534Z</time>
      </trkpt>
      <trkpt lat="47.52627" lon="6.69534">
        <ele>398</ele>
        <time>2013-06-09T09:55:26.525Z</time>
      </trkpt>
      <trkpt lat="47.52624" lon="6.69569">
        <ele>397</ele>
        <time>2013-06-09T09:55:31.528Z</time>
      </trkpt>
      <trkpt lat="47.52621" lon="6.69604">
        <ele>397</ele>
        <time>2013-06-09T09:55:36.528Z</time>
      </trkpt>
      <trkpt lat="47.52621" lon="6.69642">
        <ele>397</ele>
        <time>2013-06-09T09:55:41.534Z</time>
      </trkpt>
      <trkpt lat="47.52621" lon="6.69672">
        <ele>397</ele>
        <time>2013-06-09T09:55:46.539Z</time>
      </trkpt>
      <trkpt lat="47.52619" lon="6.69697">
        <ele>397</ele>
        <time>2013-06-09T09:55:51.534Z</time>
      </trkpt>
      <trkpt lat="47.52608" lon="6.69712">
        <ele>398</ele>
        <time>2013-06-09T09:55:56.533Z</time>
      </trkpt>
      <trkpt lat="47.52588" lon="6.6972">
        <ele>397</ele>
        <time>2013-06-09T09:56:01.534Z</time>
      </trkpt>
      <trkpt lat="47.52568" lon="6.69717">
        <ele>396</ele>
        <time>2013-06-09T09:56:06.526Z</time>
      </trkpt>
      <trkpt lat="47.52548" lon="6.69705">
        <ele>395</ele>
        <time>2013-06-09T09:56:11.532Z</time>
      </trkpt>
      <trkpt lat="47.52527" lon="6.69695">
        <ele>395</ele>
        <time>2013-06-09T09:56:16.526Z</time>
      </trkpt>
      <trkpt lat="47.52505" lon="6.69686">
        <ele>397</ele>
        <time>2013-06-09T09:56:21.524Z</time>
      </trkpt>
      <trkpt lat="47.52482" lon="6.69682">
        <ele>397</ele>
        <time>2013-06-09T09:56:26.533Z</time>
      </trkpt>
      <trkpt lat="47.52459" lon="6.69686">
        <ele>398</ele>
        <time>2013-06-09T09:56:31.531Z</time>
      </trkpt>
      <trkpt lat="47.52437" lon="6.69694">
        <ele>398</ele>
        <time>2013-06-09T09:56:36.509Z</time>
      </trkpt>
      <trkpt lat="47.52395" lon="6.69707">
        <ele>398</ele>
        <time>2013-06-09T09:56:46.534Z</time>
      </trkpt>
      <trkpt lat="47.52376" lon="6.69717">
        <ele>399</ele>
        <time>2013-06-09T09:56:51.536Z</time>
      </trkpt>
      <trkpt lat="47.52357" lon="6.69738">
        <ele>398</ele>
        <time>2013-06-09T09:56:56.534Z</time>
      </trkpt>
      <trkpt lat="47.52341" lon="6.69765">
        <ele>396</ele>
        <time>2013-06-09T09:57:01.527Z</time>
      </trkpt>
      <trkpt lat="47.5233" lon="6.69791">
        <ele>396</ele>
        <time>2013-06-09T09:57:06.527Z</time>
      </trkpt>
      <trkpt lat="47.52318" lon="6.69818">
        <ele>396</ele>
        <time>2013-06-09T09:57:11.539Z</time>
      </trkpt>
      <trkpt lat="47.52305" lon="6.69848">
        <ele>397</ele>
        <time>2013-06-09T09:57:16.527Z</time>
      </trkpt>
      <trkpt lat="47.5229" lon="6.69878">
        <ele>397</ele>
        <time>2013-06-09T09:57:21.528Z</time>
      </trkpt>
      <trkpt lat="47.52276" lon="6.69911">
        <ele>398</ele>
        <time>2013-06-09T09:57:26.527Z</time>
      </trkpt>
      <trkpt lat="47.5226" lon="6.69951">
        <ele>397</ele>
        <time>2013-06-09T09:57:31.539Z</time>
      </trkpt>
      <trkpt lat="47.52242" lon="6.69996">
        <ele>396</ele>
        <time>2013-06-09T09:57:36.527Z</time>
      </trkpt>
      <trkpt lat="47.52227" lon="6.70042">
        <ele>396</ele>
        <time>2013-06-09T09:57:41.546Z</time>
      </trkpt>
      <trkpt lat="47.52216" lon="6.70085">
        <ele>395</ele>
        <time>2013-06-09T09:57:46.527Z</time>
      </trkpt>
      <trkpt lat="47.52206" lon="6.70124">
        <ele>396</ele>
        <time>2013-06-09T09:57:51.528Z</time>
      </trkpt>
      <trkpt lat="47.52194" lon="6.70158">
        <ele>396</ele>
        <time>2013-06-09T09:57:56.524Z</time>
      </trkpt>
      <trkpt lat="47.52187" lon="6.70188">
        <ele>396</ele>
        <time>2013-06-09T09:58:01.525Z</time>
      </trkpt>
      <trkpt lat="47.52181" lon="6.70214">
        <ele>397</ele>
        <time>2013-06-09T09:58:06.525Z</time>
      </trkpt>
      <trkpt lat="47.52173" lon="6.7024">
        <ele>398</ele>
        <time>2013-06-09T09:58:11.531Z</time>
      </trkpt>
      <trkpt lat="47.52166" lon="6.70267">
        <ele>399</ele>
        <time>2013-06-09T09:58:16.531Z</time>
      </trkpt>
      <trkpt lat="47.52157" lon="6.70295">
        <ele>399</ele>
        <time>2013-06-09T09:58:21.531Z</time>
      </trkpt>
      <trkpt lat="47.52149" lon="6.70322">
        <ele>401</ele>
        <time>2013-06-09T09:58:26.531Z</time>
      </trkpt>
      <trkpt lat="47.52142" lon="6.70352">
        <ele>402</ele>
        <time>2013-06-09T09:58:31.529Z</time>
      </trkpt>
      <trkpt lat="47.52134" lon="6.70379">
        <ele>403</ele>
        <time>2013-06-09T09:58:36.527Z</time>
      </trkpt>
      <trkpt lat="47.52127" lon="6.70404">
        <ele>404</ele>
        <time>2013-06-09T09:58:41.536Z</time>
      </trkpt>
      <trkpt lat="47.52117" lon="6.7043">
        <ele>405</ele>
        <time>2013-06-09T09:58:46.528Z</time>
      </trkpt>
      <trkpt lat="47.5211" lon="6.70454">
        <ele>405</ele>
        <time>2013-06-09T09:58:51.528Z</time>
      </trkpt>
      <trkpt lat="47.52104" lon="6.70479">
        <ele>406</ele>
        <time>2013-06-09T09:58:56.527Z</time>
      </trkpt>
      <trkpt lat="47.52095" lon="6.70505">
        <ele>406</ele>
        <time>2013-06-09T09:59:01.535Z</time>
      </trkpt>
      <trkpt lat="47.52087" lon="6.70532">
        <ele>407</ele>
        <time>2013-06-09T09:59:06.527Z</time>
      </trkpt>
      <trkpt lat="47.52078" lon="6.70559">
        <ele>407</ele>
        <time>2013-06-09T09:59:11.535Z</time>
      </trkpt>
      <trkpt lat="47.5207" lon="6.70587">
        <ele>407</ele>
        <time>2013-06-09T09:59:16.525Z</time>
      </trkpt>
      <trkpt lat="47.52062" lon="6.70611">
        <ele>407</ele>
        <time>2013-06-09T09:59:21.525Z</time>
      </trkpt>
      <trkpt lat="47.52051" lon="6.7064">
        <ele>406</ele>
        <time>2013-06-09T09:59:26.527Z</time>
      </trkpt>
      <trkpt lat="47.52043" lon="6.70667">
        <ele>405</ele>
        <time>2013-06-09T09:59:31.525Z</time>
      </trkpt>
      <trkpt lat="47.52036" lon="6.70692">
        <ele>405</ele>
        <time>2013-06-09T09:59:36.525Z</time>
      </trkpt>
      <trkpt lat="47.52029" lon="6.7072">
        <ele>405</ele>
        <time>2013-06-09T09:59:41.544Z</time>
      </trkpt>
      <trkpt lat="47.52021" lon="6.70748">
        <ele>406</ele>
        <time>2013-06-09T09:59:46.527Z</time>
      </trkpt>
      <trkpt lat="47.52012" lon="6.70778">
        <ele>406</ele>
        <time>2013-06-09T09:59:51.529Z</time>
      </trkpt>
      <trkpt lat="47.52002" lon="6.70807">
        <ele>407</ele>
        <time>2013-06-09T09:59:56.534Z</time>
      </trkpt>
      <trkpt lat="47.51994" lon="6.70833">
        <ele>407</ele>
        <time>2013-06-09T10:00:01.534Z</time>
      </trkpt>
      <trkpt lat="47.51988" lon="6.70856">
        <ele>408</ele>
        <time>2013-06-09T10:00:06.537Z</time>
      </trkpt>
      <trkpt lat="47.51984" lon="6.7087">
        <ele>409</ele>
        <time>2013-06-09T10:00:11.536Z</time>
      </trkpt>
      <trkpt lat="47.51981" lon="6.7088">
        <ele>410</ele>
        <time>2013-06-09T10:00:16.525Z</time>
      </trkpt>
      <trkpt lat="47.51981" lon="6.70891">
        <ele>410</ele>
        <time>2013-06-09T10:00:21.525Z</time>
      </trkpt>
      <trkpt lat="47.51986" lon="6.70906">
        <ele>410</ele>
        <time>2013-06-09T10:00:26.527Z</time>
      </trkpt>
      <trkpt lat="47.5199" lon="6.70923">
        <ele>409</ele>
        <time>2013-06-09T10:00:31.524Z</time>
      </trkpt>
      <trkpt lat="47.51997" lon="6.70936">
        <ele>410</ele>
        <time>2013-06-09T10:00:36.527Z</time>
      </trkpt>
      <trkpt lat="47.52006" lon="6.70947">
        <ele>411</ele>
        <time>2013-06-09T10:00:41.536Z</time>
      </trkpt>
      <trkpt lat="47.52014" lon="6.70955">
        <ele>412</ele>
        <time>2013-06-09T10:00:46.530Z</time>
      </trkpt>
      <trkpt lat="47.52021" lon="6.70961">
        <ele>413</ele>
        <time>2013-06-09T10:00:51.528Z</time>
      </trkpt>
      <trkpt lat="47.52029" lon="6.70969">
        <ele>413</ele>
        <time>2013-06-09T10:00:56.527Z</time>
      </trkpt>
      <trkpt lat="47.52041" lon="6.70995">
        <ele>413</ele>
        <time>2013-06-09T10:01:06.529Z</time>
      </trkpt>
      <trkpt lat="47.52039" lon="6.71003">
        <ele>414</ele>
        <time>2013-06-09T10:01:11.549Z</time>
      </trkpt>
      <trkpt lat="47.52028" lon="6.70996">
        <ele>415</ele>
        <time>2013-06-09T10:01:16.524Z</time>
      </trkpt>
      <trkpt lat="47.52018" lon="6.7099">
        <ele>415</ele>
        <time>2013-06-09T10:01:21.524Z</time>
      </trkpt>
      <trkpt lat="47.52007" lon="6.70985">
        <ele>417</ele>
        <time>2013-06-09T10:01:26.526Z</time>
      </trkpt>
      <trkpt lat="47.51996" lon="6.70981">
        <ele>418</ele>
        <time>2013-06-09T10:01:31.530Z</time>
      </trkpt>
      <trkpt lat="47.51987" lon="6.7098">
        <ele>419</ele>
        <time>2013-06-09T10:01:36.527Z</time>
      </trkpt>
      <trkpt lat="47.51979" lon="6.70982">
        <ele>419</ele>
        <time>2013-06-09T10:01:41.542Z</time>
      </trkpt>
      <trkpt lat="47.51971" lon="6.70984">
        <ele>419</ele>
        <time>2013-06-09T10:01:46.534Z</time>
      </trkpt>
      <trkpt lat="47.51963" lon="6.70985">
        <ele>419</ele>
        <time>2013-06-09T10:01:51.535Z</time>
      </trkpt>
      <trkpt lat="47.51956" lon="6.7099">
        <ele>419</ele>
        <time>2013-06-09T10:01:56.536Z</time>
      </trkpt>
      <trkpt lat="47.51951" lon="6.70992">
        <ele>420</ele>
        <time>2013-06-09T10:02:01.525Z</time>
      </trkpt>
      <trkpt lat="47.51945" lon="6.70992">
        <ele>420</ele>
        <time>2013-06-09T10:02:06.525Z</time>
      </trkpt>
      <trkpt lat="47.51939" lon="6.70991">
        <ele>421</ele>
        <time>2013-06-09T10:02:11.535Z</time>
      </trkpt>
      <trkpt lat="47.51933" lon="6.70991">
        <ele>424</ele>
        <time>2013-06-09T10:02:16.528Z</time>
      </trkpt>
      <trkpt lat="47.51926" lon="6.7099">
        <ele>426</ele>
        <time>2013-06-09T10:02:21.530Z</time>
      </trkpt>
      <trkpt lat="47.51918" lon="6.7099">
        <ele>428</ele>
        <time>2013-06-09T10:02:26.527Z</time>
      </trkpt>
      <trkpt lat="47.51911" lon="6.70989">
        <ele>430</ele>
        <time>2013-06-09T10:02:31.526Z</time>
      </trkpt>
      <trkpt lat="47.51904" lon="6.70989">
        <ele>432</ele>
        <time>2013-06-09T10:02:36.526Z</time>
      </trkpt>
      <trkpt lat="47.51897" lon="6.70989">
        <ele>432</ele>
        <time>2013-06-09T10:02:41.543Z</time>
      </trkpt>
      <trkpt lat="47.5189" lon="6.70989">
        <ele>434</ele>
        <time>2013-06-09T10:02:46.526Z</time>
      </trkpt>
      <trkpt lat="47.51881" lon="6.70987">
        <ele>436</ele>
        <time>2013-06-09T10:02:51.504Z</time>
      </trkpt>
      <trkpt lat="47.51873" lon="6.70986">
        <ele>438</ele>
        <time>2013-06-09T10:02:56.518Z</time>
      </trkpt>
      <trkpt lat="47.51866" lon="6.70989">
        <ele>439</ele>
        <time>2013-06-09T10:03:01.647Z</time>
      </trkpt>
      <trkpt lat="47.51861" lon="6.70992">
        <ele>440</ele>
        <time>2013-06-09T10:03:06.531Z</time>
      </trkpt>
      <trkpt lat="47.51855" lon="6.70994">
        <ele>441</ele>
        <time>2013-06-09T10:03:11.547Z</time>
      </trkpt>
      <trkpt lat="47.51848" lon="6.70999">
        <ele>443</ele>
        <time>2013-06-09T10:03:16.527Z</time>
      </trkpt>
      <trkpt lat="47.5184" lon="6.71002">
        <ele>446</ele>
        <time>2013-06-09T10:03:21.527Z</time>
      </trkpt>
      <trkpt lat="47.51831" lon="6.71006">
        <ele>448</ele>
        <time>2013-06-09T10:03:26.527Z</time>
      </trkpt>
      <trkpt lat="47.51826" lon="6.71007">
        <ele>449</ele>
        <time>2013-06-09T10:03:31.526Z</time>
      </trkpt>
      <trkpt lat="47.5182" lon="6.71007">
        <ele>450</ele>
        <time>2013-06-09T10:03:36.527Z</time>
      </trkpt>
      <trkpt lat="47.51814" lon="6.71007">
        <ele>450</ele>
        <time>2013-06-09T10:03:41.537Z</time>
      </trkpt>
      <trkpt lat="47.51806" lon="6.71008">
        <ele>450</ele>
        <time>2013-06-09T10:03:46.526Z</time>
      </trkpt>
      <trkpt lat="47.51798" lon="6.71009">
        <ele>451</ele>
        <time>2013-06-09T10:03:51.526Z</time>
      </trkpt>
      <trkpt lat="47.51792" lon="6.7101">
        <ele>452</ele>
        <time>2013-06-09T10:03:56.527Z</time>
      </trkpt>
      <trkpt lat="47.51785" lon="6.71011">
        <ele>452</ele>
        <time>2013-06-09T10:04:01.527Z</time>
      </trkpt>
      <trkpt lat="47.5178" lon="6.71013">
        <ele>452</ele>
        <time>2013-06-09T10:04:06.528Z</time>
      </trkpt>
      <trkpt lat="47.51772" lon="6.71015">
        <ele>452</ele>
        <time>2013-06-09T10:04:11.547Z</time>
      </trkpt>
      <trkpt lat="47.51763" lon="6.71015">
        <ele>452</ele>
        <time>2013-06-09T10:04:16.526Z</time>
      </trkpt>
      <trkpt lat="47.51754" lon="6.71013">
        <ele>454</ele>
        <time>2013-06-09T10:04:21.526Z</time>
      </trkpt>
      <trkpt lat="47.51747" lon="6.71014">
        <ele>455</ele>
        <time>2013-06-09T10:04:26.531Z</time>
      </trkpt>
      <trkpt lat="47.51739" lon="6.71017">
        <ele>455</ele>
        <time>2013-06-09T10:04:31.531Z</time>
      </trkpt>
      <trkpt lat="47.51732" lon="6.71021">
        <ele>455</ele>
        <time>2013-06-09T10:04:36.528Z</time>
      </trkpt>
      <trkpt lat="47.51725" lon="6.71022">
        <ele>455</ele>
        <time>2013-06-09T10:04:41.547Z</time>
      </trkpt>
      <trkpt lat="47.51719" lon="6.71025">
        <ele>455</ele>
        <time>2013-06-09T10:04:46.530Z</time>
      </trkpt>
      <trkpt lat="47.51713" lon="6.71025">
        <ele>456</ele>
        <time>2013-06-09T10:04:51.506Z</time>
      </trkpt>
      <trkpt lat="47.51706" lon="6.71022">
        <ele>456</ele>
        <time>2013-06-09T10:04:56.524Z</time>
      </trkpt>
      <trkpt lat="47.51698" lon="6.71019">
        <ele>458</ele>
        <time>2013-06-09T10:05:01.516Z</time>
      </trkpt>
      <trkpt lat="47.51687" lon="6.71016">
        <ele>458</ele>
        <time>2013-06-09T10:05:06.520Z</time>
      </trkpt>
      <trkpt lat="47.51678" lon="6.71011">
        <ele>460</ele>
        <time>2013-06-09T10:05:11.536Z</time>
      </trkpt>
      <trkpt lat="47.5167" lon="6.71008">
        <ele>461</ele>
        <time>2013-06-09T10:05:16.524Z</time>
      </trkpt>
      <trkpt lat="47.51663" lon="6.71007">
        <ele>461</ele>
        <time>2013-06-09T10:05:21.527Z</time>
      </trkpt>
      <trkpt lat="47.51654" lon="6.71004">
        <ele>462</ele>
        <time>2013-06-09T10:05:26.527Z</time>
      </trkpt>
      <trkpt lat="47.51642" lon="6.70997">
        <ele>461</ele>
        <time>2013-06-09T10:05:31.528Z</time>
      </trkpt>
      <trkpt lat="47.51631" lon="6.70991">
        <ele>460</ele>
        <time>2013-06-09T10:05:36.527Z</time>
      </trkpt>
      <trkpt lat="47.5162" lon="6.70987">
        <ele>460</ele>
        <time>2013-06-09T10:05:41.546Z</time>
      </trkpt>
      <trkpt lat="47.5161" lon="6.70985">
        <ele>461</ele>
        <time>2013-06-09T10:05:46.536Z</time>
      </trkpt>
      <trkpt lat="47.51602" lon="6.70983">
        <ele>461</ele>
        <time>2013-06-09T10:05:51.532Z</time>
      </trkpt>
      <trkpt lat="47.51535" lon="6.70959">
        <ele>475</ele>
        <time>2013-06-09T10:06:36.529Z</time>
      </trkpt>
      <trkpt lat="47.51527" lon="6.70955">
        <ele>476</ele>
        <time>2013-06-09T10:06:41.544Z</time>
      </trkpt>
      <trkpt lat="47.5152" lon="6.70952">
        <ele>477</ele>
        <time>2013-06-09T10:06:46.527Z</time>
      </trkpt>
      <trkpt lat="47.51513" lon="6.70949">
        <ele>478</ele>
        <time>2013-06-09T10:06:51.527Z</time>
      </trkpt>
      <trkpt lat="47.51506" lon="6.70947">
        <ele>480</ele>
        <time>2013-06-09T10:06:56.527Z</time>
      </trkpt>
      <trkpt lat="47.51477" lon="6.70937">
        <ele>484</ele>
        <time>2013-06-09T10:07:12.585Z</time>
      </trkpt>
      <trkpt lat="47.51466" lon="6.70936">
        <ele>485</ele>
        <time>2013-06-09T10:07:16.529Z</time>
      </trkpt>
      <trkpt lat="47.51459" lon="6.70932">
        <ele>485</ele>
        <time>2013-06-09T10:07:21.527Z</time>
      </trkpt>
      <trkpt lat="47.51451" lon="6.70929">
        <ele>486</ele>
        <time>2013-06-09T10:07:26.527Z</time>
      </trkpt>
      <trkpt lat="47.51443" lon="6.70927">
        <ele>489</ele>
        <time>2013-06-09T10:07:31.527Z</time>
      </trkpt>
      <trkpt lat="47.51436" lon="6.70924">
        <ele>490</ele>
        <time>2013-06-09T10:07:36.527Z</time>
      </trkpt>
      <trkpt lat="47.5143" lon="6.70922">
        <ele>489</ele>
        <time>2013-06-09T10:07:41.537Z</time>
      </trkpt>
      <trkpt lat="47.51423" lon="6.70919">
        <ele>489</ele>
        <time>2013-06-09T10:07:46.527Z</time>
      </trkpt>
      <trkpt lat="47.51418" lon="6.70918">
        <ele>490</ele>
        <time>2013-06-09T10:07:51.527Z</time>
      </trkpt>
      <trkpt lat="47.51409" lon="6.70912">
        <ele>491</ele>
        <time>2013-06-09T10:07:56.527Z</time>
      </trkpt>
      <trkpt lat="47.51401" lon="6.7091">
        <ele>492</ele>
        <time>2013-06-09T10:08:01.514Z</time>
      </trkpt>
      <trkpt lat="47.51392" lon="6.70909">
        <ele>493</ele>
        <time>2013-06-09T10:08:06.536Z</time>
      </trkpt>
      <trkpt lat="47.51384" lon="6.70906">
        <ele>494</ele>
        <time>2013-06-09T10:08:11.544Z</time>
      </trkpt>
      <trkpt lat="47.51378" lon="6.70903">
        <ele>497</ele>
        <time>2013-06-09T10:08:16.529Z</time>
      </trkpt>
      <trkpt lat="47.51369" lon="6.70901">
        <ele>498</ele>
        <time>2013-06-09T10:08:21.526Z</time>
      </trkpt>
      <trkpt lat="47.51361" lon="6.70899">
        <ele>499</ele>
        <time>2013-06-09T10:08:26.509Z</time>
      </trkpt>
      <trkpt lat="47.51349" lon="6.70895">
        <ele>500</ele>
        <time>2013-06-09T10:08:36.527Z</time>
      </trkpt>
      <trkpt lat="47.51342" lon="6.70891">
        <ele>501</ele>
        <time>2013-06-09T10:08:41.537Z</time>
      </trkpt>
      <trkpt lat="47.51334" lon="6.70888">
        <ele>503</ele>
        <time>2013-06-09T10:08:46.527Z</time>
      </trkpt>
      <trkpt lat="47.51324" lon="6.70886">
        <ele>503</ele>
        <time>2013-06-09T10:08:51.527Z</time>
      </trkpt>
      <trkpt lat="47.51319" lon="6.70885">
        <ele>503</ele>
        <time>2013-06-09T10:08:56.526Z</time>
      </trkpt>
      <trkpt lat="47.51281" lon="6.70892">
        <ele>514</ele>
        <time>2013-06-09T10:09:31.518Z</time>
      </trkpt>
      <trkpt lat="47.51281" lon="6.70892">
        <ele>514</ele>
        <time>2013-06-09T10:09:36.528Z</time>
      </trkpt>
      <trkpt lat="47.5128" lon="6.70893">
        <ele>515</ele>
        <time>2013-06-09T10:09:41.547Z</time>
      </trkpt>
      <trkpt lat="47.5128" lon="6.70893">
        <ele>515</ele>
        <time>2013-06-09T10:09:46.530Z</time>
      </trkpt>
      <trkpt lat="47.51279" lon="6.70893">
        <ele>515</ele>
        <time>2013-06-09T10:09:51.534Z</time>
      </trkpt>
      <trkpt lat="47.51278" lon="6.70893">
        <ele>516</ele>
        <time>2013-06-09T10:09:56.534Z</time>
      </trkpt>
      <trkpt lat="47.51281" lon="6.70895">
        <ele>514</ele>
        <time>2013-06-09T10:10:06.528Z</time>
      </trkpt>
      <trkpt lat="47.5128" lon="6.70895">
        <ele>514</ele>
        <time>2013-06-09T10:10:11.544Z</time>
      </trkpt>
      <trkpt lat="47.51281" lon="6.70895">
        <ele>515</ele>
        <time>2013-06-09T10:10:16.528Z</time>
      </trkpt>
      <trkpt lat="47.5128" lon="6.70895">
        <ele>514</ele>
        <time>2013-06-09T10:10:21.529Z</time>
      </trkpt>
      <trkpt lat="47.51279" lon="6.70898">
        <ele>514</ele>
        <time>2013-06-09T10:10:26.534Z</time>
      </trkpt>
      <trkpt lat="47.51281" lon="6.70901">
        <ele>514</ele>
        <time>2013-06-09T10:10:31.524Z</time>
      </trkpt>
      <trkpt lat="47.51281" lon="6.70907">
        <ele>514</ele>
        <time>2013-06-09T10:10:36.527Z</time>
      </trkpt>
      <trkpt lat="47.51281" lon="6.70909">
        <ele>514</ele>
        <time>2013-06-09T10:10:41.545Z</time>
      </trkpt>
      <trkpt lat="47.51281" lon="6.70907">
        <ele>516</ele>
        <time>2013-06-09T10:10:46.534Z</time>
      </trkpt>
      <trkpt lat="47.51282" lon="6.70901">
        <ele>516</ele>
        <time>2013-06-09T10:10:51.527Z</time>
      </trkpt>
      <trkpt lat="47.51283" lon="6.70898">
        <ele>515</ele>
        <time>2013-06-09T10:10:56.528Z</time>
      </trkpt>
      <trkpt lat="47.5128" lon="6.709">
        <ele>518</ele>
        <time>2013-06-09T10:11:31.519Z</time>
      </trkpt>
      <trkpt lat="47.51279" lon="6.70903">
        <ele>517</ele>
        <time>2013-06-09T10:11:36.518Z</time>
      </trkpt>
      <trkpt lat="47.51283" lon="6.70905">
        <ele>515</ele>
        <time>2013-06-09T10:11:41.548Z</time>
      </trkpt>
      <trkpt lat="47.51285" lon="6.70905">
        <ele>515</ele>
        <time>2013-06-09T10:11:46.530Z</time>
      </trkpt>
      <trkpt lat="47.51283" lon="6.70908">
        <ele>515</ele>
        <time>2013-06-09T10:11:51.528Z</time>
      </trkpt>
      <trkpt lat="47.51281" lon="6.70907">
        <ele>515</ele>
        <time>2013-06-09T10:11:56.534Z</time>
      </trkpt>
      <trkpt lat="47.51282" lon="6.70905">
        <ele>516</ele>
        <time>2013-06-09T10:12:01.525Z</time>
      </trkpt>
      <trkpt lat="47.5128" lon="6.70905">
        <ele>517</ele>
        <time>2013-06-09T10:12:06.524Z</time>
      </trkpt>
      <trkpt lat="47.5128" lon="6.70905">
        <ele>516</ele>
        <time>2013-06-09T10:12:11.520Z</time>
      </trkpt>
      <trkpt lat="47.5128" lon="6.70905">
        <ele>517</ele>
        <time>2013-06-09T10:12:21.524Z</time>
      </trkpt>
      <trkpt lat="47.5128" lon="6.70906">
        <ele>516</ele>
        <time>2013-06-09T10:12:26.525Z</time>
      </trkpt>
      <trkpt lat="47.5128" lon="6.70905">
        <ele>516</ele>
        <time>2013-06-09T10:12:31.525Z</time>
      </trkpt>
      <trkpt lat="47.5128" lon="6.70905">
        <ele>516</ele>
        <time>2013-06-09T10:12:36.525Z</time>
      </trkpt>
      <trkpt lat="47.5128" lon="6.70905">
        <ele>516</ele>
        <time>2013-06-09T10:12:41.537Z</time>
      </trkpt>
      <trkpt lat="47.51279" lon="6.70904">
        <ele>516</ele>
        <time>2013-06-09T10:12:46.525Z</time>
      </trkpt>
      <trkpt lat="47.51277" lon="6.70901">
        <ele>516</ele>
        <time>2013-06-09T10:12:51.527Z</time>
      </trkpt>
      <trkpt lat="47.51273" lon="6.70899">
        <ele>515</ele>
        <time>2013-06-09T10:12:56.534Z</time>
      </trkpt>
      <trkpt lat="47.51273" lon="6.70899">
        <ele>515</ele>
        <time>2013-06-09T10:12:56.534Z</time>
      </trkpt>
      <trkpt lat="47.51269" lon="6.70909">
        <ele>515</ele>
        <time>2013-06-09T10:13:06.527Z</time>
      </trkpt>
      <trkpt lat="47.51265" lon="6.70917">
        <ele>515</ele>
        <time>2013-06-09T10:13:11.540Z</time>
      </trkpt>
      <trkpt lat="47.51265" lon="6.70927">
        <ele>514</ele>
        <time>2013-06-09T10:13:16.530Z</time>
      </trkpt>
      <trkpt lat="47.51265" lon="6.70939">
        <ele>513</ele>
        <time>2013-06-09T10:13:21.529Z</time>
      </trkpt>
      <trkpt lat="47.51268" lon="6.70951">
        <ele>511</ele>
        <time>2013-06-09T10:13:26.530Z</time>
      </trkpt>
      <trkpt lat="47.51269" lon="6.70962">
        <ele>509</ele>
        <time>2013-06-09T10:13:31.530Z</time>
      </trkpt>
      <trkpt lat="47.51265" lon="6.70978">
        <ele>508</ele>
        <time>2013-06-09T10:13:36.530Z</time>
      </trkpt>
      <trkpt lat="47.51265" lon="6.70992">
        <ele>507</ele>
        <time>2013-06-09T10:13:41.540Z</time>
      </trkpt>
      <trkpt lat="47.51263" lon="6.71005">
        <ele>507</ele>
        <time>2013-06-09T10:13:46.540Z</time>
      </trkpt>
      <trkpt lat="47.51262" lon="6.71017">
        <ele>506</ele>
        <time>2013-06-09T10:13:51.522Z</time>
      </trkpt>
      <trkpt lat="47.51259" lon="6.71031">
        <ele>505</ele>
        <time>2013-06-09T10:13:56.534Z</time>
      </trkpt>
      <trkpt lat="47.5126" lon="6.71043">
        <ele>503</ele>
        <time>2013-06-09T10:14:01.529Z</time>
      </trkpt>
      <trkpt lat="47.51263" lon="6.71047">
        <ele>504</ele>
        <time>2013-06-09T10:14:06.521Z</time>
      </trkpt>
      <trkpt lat="47.51261" lon="6.71051">
        <ele>506</ele>
        <time>2013-06-09T10:14:11.540Z</time>
      </trkpt>
      <trkpt lat="47.51261" lon="6.71058">
        <ele>505</ele>
        <time>2013-06-09T10:14:16.529Z</time>
      </trkpt>
      <trkpt lat="47.51261" lon="6.71072">
        <ele>504</ele>
        <time>2013-06-09T10:14:21.529Z</time>
      </trkpt>
      <trkpt lat="47.5126" lon="6.7109">
        <ele>503</ele>
        <time>2013-06-09T10:14:26.536Z</time>
      </trkpt>
      <trkpt lat="47.51258" lon="6.7111">
        <ele>504</ele>
        <time>2013-06-09T10:14:31.530Z</time>
      </trkpt>
      <trkpt lat="47.51255" lon="6.71133">
        <ele>503</ele>
        <time>2013-06-09T10:14:36.530Z</time>
      </trkpt>
      <trkpt lat="47.51255" lon="6.71156">
        <ele>502</ele>
        <time>2013-06-09T10:14:41.540Z</time>
      </trkpt>
      <trkpt lat="47.51256" lon="6.71178">
        <ele>501</ele>
        <time>2013-06-09T10:14:47.303Z</time>
      </trkpt>
      <trkpt lat="47.51251" lon="6.71205">
        <ele>500</ele>
        <time>2013-06-09T10:14:51.542Z</time>
      </trkpt>
      <trkpt lat="47.51249" lon="6.71235">
        <ele>501</ele>
        <time>2013-06-09T10:14:56.538Z</time>
      </trkpt>
      <trkpt lat="47.51226" lon="6.71449">
        <ele>504</ele>
        <time>2013-06-09T10:15:36.530Z</time>
      </trkpt>
      <trkpt lat="47.51227" lon="6.71454">
        <ele>504</ele>
        <time>2013-06-09T10:15:41.540Z</time>
      </trkpt>
      <trkpt lat="47.51229" lon="6.71462">
        <ele>504</ele>
        <time>2013-06-09T10:15:46.539Z</time>
      </trkpt>
      <trkpt lat="47.51231" lon="6.71478">
        <ele>504</ele>
        <time>2013-06-09T10:15:51.542Z</time>
      </trkpt>
      <trkpt lat="47.51231" lon="6.71489">
        <ele>505</ele>
        <time>2013-06-09T10:15:56.536Z</time>
      </trkpt>
      <trkpt lat="47.51225" lon="6.71502">
        <ele>505</ele>
        <time>2013-06-09T10:16:01.526Z</time>
      </trkpt>
      <trkpt lat="47.51219" lon="6.71527">
        <ele>504</ele>
        <time>2013-06-09T10:16:06.527Z</time>
      </trkpt>
      <trkpt lat="47.51218" lon="6.71553">
        <ele>503</ele>
        <time>2013-06-09T10:16:11.538Z</time>
      </trkpt>
      <trkpt lat="47.51211" lon="6.71575">
        <ele>503</ele>
        <time>2013-06-09T10:16:16.527Z</time>
      </trkpt>
      <trkpt lat="47.51209" lon="6.71597">
        <ele>503</ele>
        <time>2013-06-09T10:16:21.527Z</time>
      </trkpt>
      <trkpt lat="47.5121" lon="6.71615">
        <ele>503</ele>
        <time>2013-06-09T10:16:26.533Z</time>
      </trkpt>
      <trkpt lat="47.51217" lon="6.71634">
        <ele>501</ele>
        <time>2013-06-09T10:16:31.530Z</time>
      </trkpt>
      <trkpt lat="47.51213" lon="6.7166">
        <ele>501</ele>
        <time>2013-06-09T10:16:36.530Z</time>
      </trkpt>
      <trkpt lat="47.51212" lon="6.71687">
        <ele>501</ele>
        <time>2013-06-09T10:16:41.540Z</time>
      </trkpt>
      <trkpt lat="47.51211" lon="6.71706">
        <ele>502</ele>
        <time>2013-06-09T10:16:46.540Z</time>
      </trkpt>
      <trkpt lat="47.51213" lon="6.71732">
        <ele>502</ele>
        <time>2013-06-09T10:16:51.539Z</time>
      </trkpt>
      <trkpt lat="47.51214" lon="6.71754">
        <ele>502</ele>
        <time>2013-06-09T10:16:56.530Z</time>
      </trkpt>
      <trkpt lat="47.51216" lon="6.71771">
        <ele>501</ele>
        <time>2013-06-09T10:17:01.536Z</time>
      </trkpt>
      <trkpt lat="47.51215" lon="6.71798">
        <ele>501</ele>
        <time>2013-06-09T10:17:06.530Z</time>
      </trkpt>
      <trkpt lat="47.5122" lon="6.71822">
        <ele>502</ele>
        <time>2013-06-09T10:17:11.541Z</time>
      </trkpt>
      <trkpt lat="47.51227" lon="6.71847">
        <ele>500</ele>
        <time>2013-06-09T10:17:16.536Z</time>
      </trkpt>
      <trkpt lat="47.51227" lon="6.71875">
        <ele>499</ele>
        <time>2013-06-09T10:17:21.530Z</time>
      </trkpt>
      <trkpt lat="47.51233" lon="6.71901">
        <ele>499</ele>
        <time>2013-06-09T10:17:26.537Z</time>
      </trkpt>
      <trkpt lat="47.5124" lon="6.7193">
        <ele>498</ele>
        <time>2013-06-09T10:17:31.530Z</time>
      </trkpt>
      <trkpt lat="47.51238" lon="6.71958">
        <ele>496</ele>
        <time>2013-06-09T10:17:36.527Z</time>
      </trkpt>
      <trkpt lat="47.51234" lon="6.72002">
        <ele>494</ele>
        <time>2013-06-09T10:17:41.545Z</time>
      </trkpt>
      <trkpt lat="47.51231" lon="6.72038">
        <ele>496</ele>
        <time>2013-06-09T10:17:46.530Z</time>
      </trkpt>
      <trkpt lat="47.51231" lon="6.72069">
        <ele>496</ele>
        <time>2013-06-09T10:17:51.539Z</time>
      </trkpt>
      <trkpt lat="47.51236" lon="6.72156">
        <ele>493</ele>
        <time>2013-06-09T10:18:06.527Z</time>
      </trkpt>
      <trkpt lat="47.51234" lon="6.72181">
        <ele>492</ele>
        <time>2013-06-09T10:18:11.537Z</time>
      </trkpt>
      <trkpt lat="47.51235" lon="6.72202">
        <ele>492</ele>
        <time>2013-06-09T10:18:16.530Z</time>
      </trkpt>
      <trkpt lat="47.51231" lon="6.72228">
        <ele>493</ele>
        <time>2013-06-09T10:18:21.530Z</time>
      </trkpt>
      <trkpt lat="47.51231" lon="6.72259">
        <ele>491</ele>
        <time>2013-06-09T10:18:26.530Z</time>
      </trkpt>
      <trkpt lat="47.51233" lon="6.72284">
        <ele>492</ele>
        <time>2013-06-09T10:18:31.530Z</time>
      </trkpt>
      <trkpt lat="47.51234" lon="6.72314">
        <ele>492</ele>
        <time>2013-06-09T10:18:36.533Z</time>
      </trkpt>
      <trkpt lat="47.5123" lon="6.72344">
        <ele>490</ele>
        <time>2013-06-09T10:18:41.537Z</time>
      </trkpt>
      <trkpt lat="47.51228" lon="6.72373">
        <ele>488</ele>
        <time>2013-06-09T10:18:46.537Z</time>
      </trkpt>
      <trkpt lat="47.5122" lon="6.72406">
        <ele>487</ele>
        <time>2013-06-09T10:18:51.537Z</time>
      </trkpt>
      <trkpt lat="47.5121" lon="6.72435">
        <ele>486</ele>
        <time>2013-06-09T10:18:56.537Z</time>
      </trkpt>
      <trkpt lat="47.512" lon="6.7246">
        <ele>485</ele>
        <time>2013-06-09T10:19:01.539Z</time>
      </trkpt>
      <trkpt lat="47.51193" lon="6.72479">
        <ele>484</ele>
        <time>2013-06-09T10:19:06.530Z</time>
      </trkpt>
      <trkpt lat="47.51188" lon="6.72491">
        <ele>484</ele>
        <time>2013-06-09T10:19:11.539Z</time>
      </trkpt>
      <trkpt lat="47.51188" lon="6.72496">
        <ele>484</ele>
        <time>2013-06-09T10:19:16.527Z</time>
      </trkpt>
      <trkpt lat="47.51187" lon="6.72495">
        <ele>484</ele>
        <time>2013-06-09T10:19:21.530Z</time>
      </trkpt>
      <trkpt lat="47.51186" lon="6.72497">
        <ele>487</ele>
        <time>2013-06-09T10:19:26.539Z</time>
      </trkpt>
      <trkpt lat="47.51181" lon="6.72513">
        <ele>484</ele>
        <time>2013-06-09T10:19:31.531Z</time>
      </trkpt>
      <trkpt lat="47.51171" lon="6.72535">
        <ele>484</ele>
        <time>2013-06-09T10:19:36.528Z</time>
      </trkpt>
      <trkpt lat="47.51172" lon="6.72549">
        <ele>484</ele>
        <time>2013-06-09T10:19:41.544Z</time>
      </trkpt>
      <trkpt lat="47.51184" lon="6.72552">
        <ele>486</ele>
        <time>2013-06-09T10:19:46.538Z</time>
      </trkpt>
      <trkpt lat="47.51197" lon="6.72564">
        <ele>487</ele>
        <time>2013-06-09T10:19:51.530Z</time>
      </trkpt>
      <trkpt lat="47.51209" lon="6.72568">
        <ele>487</ele>
        <time>2013-06-09T10:19:56.539Z</time>
      </trkpt>
      <trkpt lat="47.51226" lon="6.72573">
        <ele>488</ele>
        <time>2013-06-09T10:20:01.527Z</time>
      </trkpt>
      <trkpt lat="47.51243" lon="6.72577">
        <ele>487</ele>
        <time>2013-06-09T10:20:06.527Z</time>
      </trkpt>
      <trkpt lat="47.51261" lon="6.7258">
        <ele>488</ele>
        <time>2013-06-09T10:20:11.538Z</time>
      </trkpt>
      <trkpt lat="47.51277" lon="6.72585">
        <ele>488</ele>
        <time>2013-06-09T10:20:16.527Z</time>
      </trkpt>
      <trkpt lat="47.51294" lon="6.72592">
        <ele>489</ele>
        <time>2013-06-09T10:20:21.527Z</time>
      </trkpt>
      <trkpt lat="47.51312" lon="6.726">
        <ele>489</ele>
        <time>2013-06-09T10:20:26.527Z</time>
      </trkpt>
      <trkpt lat="47.51328" lon="6.72612">
        <ele>490</ele>
        <time>2013-06-09T10:20:31.528Z</time>
      </trkpt>
      <trkpt lat="47.51342" lon="6.72628">
        <ele>490</ele>
        <time>2013-06-09T10:20:36.528Z</time>
      </trkpt>
      <trkpt lat="47.51353" lon="6.72639">
        <ele>490</ele>
        <time>2013-06-09T10:20:41.544Z</time>
      </trkpt>
      <trkpt lat="47.51363" lon="6.72653">
        <ele>490</ele>
        <time>2013-06-09T10:20:46.537Z</time>
      </trkpt>
      <trkpt lat="47.51362" lon="6.72671">
        <ele>488</ele>
        <time>2013-06-09T10:20:51.534Z</time>
      </trkpt>
      <trkpt lat="47.51369" lon="6.7269">
        <ele>487</ele>
        <time>2013-06-09T10:20:56.511Z</time>
      </trkpt>
      <trkpt lat="47.51395" lon="6.7272">
        <ele>485</ele>
        <time>2013-06-09T10:21:06.527Z</time>
      </trkpt>
      <trkpt lat="47.51399" lon="6.72713">
        <ele>484</ele>
        <time>2013-06-09T10:21:11.538Z</time>
      </trkpt>
      <trkpt lat="47.51398" lon="6.72718">
        <ele>482</ele>
        <time>2013-06-09T10:21:16.528Z</time>
      </trkpt>
      <trkpt lat="47.514" lon="6.72734">
        <ele>480</ele>
        <time>2013-06-09T10:21:21.527Z</time>
      </trkpt>
      <trkpt lat="47.51406" lon="6.72754">
        <ele>479</ele>
        <time>2013-06-09T10:21:26.527Z</time>
      </trkpt>
      <trkpt lat="47.5141" lon="6.7278">
        <ele>477</ele>
        <time>2013-06-09T10:21:31.528Z</time>
      </trkpt>
      <trkpt lat="47.51411" lon="6.72803">
        <ele>475</ele>
        <time>2013-06-09T10:21:36.527Z</time>
      </trkpt>
      <trkpt lat="47.51409" lon="6.72822">
        <ele>475</ele>
        <time>2013-06-09T10:21:41.537Z</time>
      </trkpt>
      <trkpt lat="47.51414" lon="6.72836">
        <ele>475</ele>
        <time>2013-06-09T10:21:46.528Z</time>
      </trkpt>
      <trkpt lat="47.51418" lon="6.72844">
        <ele>476</ele>
        <time>2013-06-09T10:21:51.539Z</time>
      </trkpt>
      <trkpt lat="47.51422" lon="6.72855">
        <ele>477</ele>
        <time>2013-06-09T10:21:56.527Z</time>
      </trkpt>
      <trkpt lat="47.51426" lon="6.72877">
        <ele>478</ele>
        <time>2013-06-09T10:22:01.540Z</time>
      </trkpt>
      <trkpt lat="47.5143" lon="6.72897">
        <ele>478</ele>
        <time>2013-06-09T10:22:06.512Z</time>
      </trkpt>
      <trkpt lat="47.51435" lon="6.72916">
        <ele>479</ele>
        <time>2013-06-09T10:22:11.538Z</time>
      </trkpt>
      <trkpt lat="47.51442" lon="6.72933">
        <ele>479</ele>
        <time>2013-06-09T10:22:16.528Z</time>
      </trkpt>
      <trkpt lat="47.51451" lon="6.72951">
        <ele>479</ele>
        <time>2013-06-09T10:22:21.527Z</time>
      </trkpt>
      <trkpt lat="47.51456" lon="6.72965">
        <ele>478</ele>
        <time>2013-06-09T10:22:26.527Z</time>
      </trkpt>
      <trkpt lat="47.51456" lon="6.72981">
        <ele>478</ele>
        <time>2013-06-09T10:22:31.535Z</time>
      </trkpt>
      <trkpt lat="47.51454" lon="6.73004">
        <ele>477</ele>
        <time>2013-06-09T10:22:36.528Z</time>
      </trkpt>
      <trkpt lat="47.51453" lon="6.73033">
        <ele>476</ele>
        <time>2013-06-09T10:22:41.547Z</time>
      </trkpt>
      <trkpt lat="47.51458" lon="6.73067">
        <ele>476</ele>
        <time>2013-06-09T10:22:46.537Z</time>
      </trkpt>
      <trkpt lat="47.51462" lon="6.73093">
        <ele>476</ele>
        <time>2013-06-09T10:22:51.537Z</time>
      </trkpt>
      <trkpt lat="47.5147" lon="6.73116">
        <ele>476</ele>
        <time>2013-06-09T10:22:56.537Z</time>
      </trkpt>
      <trkpt lat="47.51478" lon="6.73136">
        <ele>475</ele>
        <time>2013-06-09T10:23:01.530Z</time>
      </trkpt>
      <trkpt lat="47.51481" lon="6.7316">
        <ele>475</ele>
        <time>2013-06-09T10:23:06.528Z</time>
      </trkpt>
      <trkpt lat="47.51476" lon="6.73184">
        <ele>474</ele>
        <time>2013-06-09T10:23:11.541Z</time>
      </trkpt>
      <trkpt lat="47.51471" lon="6.73216">
        <ele>473</ele>
        <time>2013-06-09T10:23:16.533Z</time>
      </trkpt>
      <trkpt lat="47.51469" lon="6.7325">
        <ele>470</ele>
        <time>2013-06-09T10:23:21.542Z</time>
      </trkpt>
      <trkpt lat="47.51469" lon="6.73273">
        <ele>468</ele>
        <time>2013-06-09T10:23:26.523Z</time>
      </trkpt>
      <trkpt lat="47.51467" lon="6.73299">
        <ele>466</ele>
        <time>2013-06-09T10:23:31.523Z</time>
      </trkpt>
      <trkpt lat="47.51466" lon="6.73326">
        <ele>464</ele>
        <time>2013-06-09T10:23:36.530Z</time>
      </trkpt>
      <trkpt lat="47.51455" lon="6.73349">
        <ele>463</ele>
        <time>2013-06-09T10:23:41.541Z</time>
      </trkpt>
      <trkpt lat="47.5145" lon="6.73382">
        <ele>462</ele>
        <time>2013-06-09T10:23:46.532Z</time>
      </trkpt>
      <trkpt lat="47.51443" lon="6.73406">
        <ele>462</ele>
        <time>2013-06-09T10:23:51.531Z</time>
      </trkpt>
      <trkpt lat="47.51443" lon="6.73409">
        <ele>462</ele>
        <time>2013-06-09T10:23:56.531Z</time>
      </trkpt>
      <trkpt lat="47.51412" lon="6.73593">
        <ele>462</ele>
        <time>2013-06-09T10:24:36.530Z</time>
      </trkpt>
      <trkpt lat="47.51411" lon="6.73614">
        <ele>462</ele>
        <time>2013-06-09T10:24:41.533Z</time>
      </trkpt>
      <trkpt lat="47.5141" lon="6.7364">
        <ele>463</ele>
        <time>2013-06-09T10:24:46.519Z</time>
      </trkpt>
      <trkpt lat="47.51411" lon="6.73661">
        <ele>462</ele>
        <time>2013-06-09T10:24:51.529Z</time>
      </trkpt>
      <trkpt lat="47.51412" lon="6.73688">
        <ele>462</ele>
        <time>2013-06-09T10:24:56.529Z</time>
      </trkpt>
      <trkpt lat="47.51416" lon="6.73743">
        <ele>460</ele>
        <time>2013-06-09T10:25:06.535Z</time>
      </trkpt>
      <trkpt lat="47.5142" lon="6.73771">
        <ele>459</ele>
        <time>2013-06-09T10:25:11.541Z</time>
      </trkpt>
      <trkpt lat="47.51424" lon="6.73796">
        <ele>458</ele>
        <time>2013-06-09T10:25:16.529Z</time>
      </trkpt>
      <trkpt lat="47.5143" lon="6.73821">
        <ele>452</ele>
        <time>2013-06-09T10:25:21.534Z</time>
      </trkpt>
      <trkpt lat="47.51437" lon="6.7385">
        <ele>452</ele>
        <time>2013-06-09T10:25:26.529Z</time>
      </trkpt>
      <trkpt lat="47.51441" lon="6.73879">
        <ele>453</ele>
        <time>2013-06-09T10:25:31.531Z</time>
      </trkpt>
      <trkpt lat="47.51442" lon="6.73901">
        <ele>454</ele>
        <time>2013-06-09T10:25:36.531Z</time>
      </trkpt>
      <trkpt lat="47.51444" lon="6.73924">
        <ele>456</ele>
        <time>2013-06-09T10:25:41.539Z</time>
      </trkpt>
      <trkpt lat="47.51446" lon="6.73949">
        <ele>455</ele>
        <time>2013-06-09T10:25:46.538Z</time>
      </trkpt>
      <trkpt lat="47.5145" lon="6.73968">
        <ele>453</ele>
        <time>2013-06-09T10:25:51.541Z</time>
      </trkpt>
      <trkpt lat="47.51447" lon="6.73996">
        <ele>452</ele>
        <time>2013-06-09T10:25:56.535Z</time>
      </trkpt>
      <trkpt lat="47.51442" lon="6.74017">
        <ele>452</ele>
        <time>2013-06-09T10:26:01.511Z</time>
      </trkpt>
      <trkpt lat="47.51441" lon="6.74034">
        <ele>451</ele>
        <time>2013-06-09T10:26:06.528Z</time>
      </trkpt>
      <trkpt lat="47.51437" lon="6.74053">
        <ele>450</ele>
        <time>2013-06-09T10:26:11.539Z</time>
      </trkpt>
      <trkpt lat="47.51429" lon="6.74062">
        <ele>448</ele>
        <time>2013-06-09T10:26:16.528Z</time>
      </trkpt>
      <trkpt lat="47.5142" lon="6.74071">
        <ele>447</ele>
        <time>2013-06-09T10:26:21.528Z</time>
      </trkpt>
      <trkpt lat="47.51416" lon="6.74085">
        <ele>445</ele>
        <time>2013-06-09T10:26:26.535Z</time>
      </trkpt>
      <trkpt lat="47.51411" lon="6.741">
        <ele>443</ele>
        <time>2013-06-09T10:26:31.537Z</time>
      </trkpt>
      <trkpt lat="47.51406" lon="6.74113">
        <ele>444</ele>
        <time>2013-06-09T10:26:36.535Z</time>
      </trkpt>
      <trkpt lat="47.514" lon="6.7412">
        <ele>444</ele>
        <time>2013-06-09T10:26:41.548Z</time>
      </trkpt>
      <trkpt lat="47.51396" lon="6.74123">
        <ele>445</ele>
        <time>2013-06-09T10:26:46.529Z</time>
      </trkpt>
      <trkpt lat="47.51395" lon="6.74124">
        <ele>446</ele>
        <time>2013-06-09T10:26:51.530Z</time>
      </trkpt>
      <trkpt lat="47.51396" lon="6.74128">
        <ele>447</ele>
        <time>2013-06-09T10:26:56.540Z</time>
      </trkpt>
      <trkpt lat="47.51401" lon="6.74124">
        <ele>448</ele>
        <time>2013-06-09T10:27:01.530Z</time>
      </trkpt>
      <trkpt lat="47.51408" lon="6.74125">
        <ele>447</ele>
        <time>2013-06-09T10:27:06.528Z</time>
      </trkpt>
      <trkpt lat="47.51405" lon="6.74133">
        <ele>446</ele>
        <time>2013-06-09T10:27:11.541Z</time>
      </trkpt>
      <trkpt lat="47.51401" lon="6.74144">
        <ele>447</ele>
        <time>2013-06-09T10:27:16.528Z</time>
      </trkpt>
      <trkpt lat="47.51396" lon="6.74152">
        <ele>447</ele>
        <time>2013-06-09T10:27:21.528Z</time>
      </trkpt>
      <trkpt lat="47.51392" lon="6.74163">
        <ele>446</ele>
        <time>2013-06-09T10:27:26.531Z</time>
      </trkpt>
      <trkpt lat="47.51389" lon="6.74173">
        <ele>446</ele>
        <time>2013-06-09T10:27:31.534Z</time>
      </trkpt>
      <trkpt lat="47.51386" lon="6.74181">
        <ele>444</ele>
        <time>2013-06-09T10:27:36.531Z</time>
      </trkpt>
      <trkpt lat="47.51382" lon="6.74193">
        <ele>444</ele>
        <time>2013-06-09T10:27:41.541Z</time>
      </trkpt>
      <trkpt lat="47.51379" lon="6.74204">
        <ele>443</ele>
        <time>2013-06-09T10:27:46.542Z</time>
      </trkpt>
      <trkpt lat="47.51375" lon="6.74215">
        <ele>443</ele>
        <time>2013-06-09T10:27:51.545Z</time>
      </trkpt>
      <trkpt lat="47.5137" lon="6.7423">
        <ele>443</ele>
        <time>2013-06-09T10:27:56.542Z</time>
      </trkpt>
      <trkpt lat="47.51365" lon="6.7424">
        <ele>442</ele>
        <time>2013-06-09T10:28:01.530Z</time>
      </trkpt>
      <trkpt lat="47.51361" lon="6.74251">
        <ele>442</ele>
        <time>2013-06-09T10:28:06.513Z</time>
      </trkpt>
      <trkpt lat="47.51356" lon="6.7427">
        <ele>442</ele>
        <time>2013-06-09T10:28:16.528Z</time>
      </trkpt>
      <trkpt lat="47.51353" lon="6.7428">
        <ele>442</ele>
        <time>2013-06-09T10:28:21.528Z</time>
      </trkpt>
      <trkpt lat="47.51347" lon="6.74288">
        <ele>442</ele>
        <time>2013-06-09T10:28:26.537Z</time>
      </trkpt>
      <trkpt lat="47.51346" lon="6.74298">
        <ele>442</ele>
        <time>2013-06-09T10:28:31.538Z</time>
      </trkpt>
      <trkpt lat="47.51342" lon="6.74308">
        <ele>443</ele>
        <time>2013-06-09T10:28:36.545Z</time>
      </trkpt>
      <trkpt lat="47.51337" lon="6.74317">
        <ele>444</ele>
        <time>2013-06-09T10:28:41.544Z</time>
      </trkpt>
      <trkpt lat="47.51333" lon="6.74327">
        <ele>444</ele>
        <time>2013-06-09T10:28:46.533Z</time>
      </trkpt>
      <trkpt lat="47.51331" lon="6.74337">
        <ele>443</ele>
        <time>2013-06-09T10:28:51.533Z</time>
      </trkpt>
      <trkpt lat="47.51331" lon="6.74356">
        <ele>442</ele>
        <time>2013-06-09T10:28:56.533Z</time>
      </trkpt>
      <trkpt lat="47.51325" lon="6.74373">
        <ele>441</ele>
        <time>2013-06-09T10:29:01.532Z</time>
      </trkpt>
      <trkpt lat="47.51319" lon="6.74383">
        <ele>442</ele>
        <time>2013-06-09T10:29:06.530Z</time>
      </trkpt>
      <trkpt lat="47.51313" lon="6.74393">
        <ele>442</ele>
        <time>2013-06-09T10:29:11.543Z</time>
      </trkpt>
      <trkpt lat="47.51305" lon="6.74406">
        <ele>443</ele>
        <time>2013-06-09T10:29:16.533Z</time>
      </trkpt>
      <trkpt lat="47.51302" lon="6.74419">
        <ele>442</ele>
        <time>2013-06-09T10:29:21.530Z</time>
      </trkpt>
      <trkpt lat="47.51309" lon="6.74436">
        <ele>439</ele>
        <time>2013-06-09T10:29:26.533Z</time>
      </trkpt>
      <trkpt lat="47.51312" lon="6.74458">
        <ele>437</ele>
        <time>2013-06-09T10:29:31.536Z</time>
      </trkpt>
      <trkpt lat="47.51313" lon="6.74472">
        <ele>436</ele>
        <time>2013-06-09T10:29:36.535Z</time>
      </trkpt>
      <trkpt lat="47.51308" lon="6.74486">
        <ele>436</ele>
        <time>2013-06-09T10:29:41.545Z</time>
      </trkpt>
      <trkpt lat="47.51301" lon="6.74499">
        <ele>437</ele>
        <time>2013-06-09T10:29:46.533Z</time>
      </trkpt>
      <trkpt lat="47.51291" lon="6.74511">
        <ele>436</ele>
        <time>2013-06-09T10:29:51.533Z</time>
      </trkpt>
      <trkpt lat="47.51283" lon="6.74522">
        <ele>435</ele>
        <time>2013-06-09T10:29:56.533Z</time>
      </trkpt>
      <trkpt lat="47.51277" lon="6.74528">
        <ele>435</ele>
        <time>2013-06-09T10:30:01.566Z</time>
      </trkpt>
      <trkpt lat="47.51274" lon="6.74531">
        <ele>436</ele>
        <time>2013-06-09T10:30:06.526Z</time>
      </trkpt>
      <trkpt lat="47.51273" lon="6.74536">
        <ele>435</ele>
        <time>2013-06-09T10:30:11.547Z</time>
      </trkpt>
      <trkpt lat="47.51271" lon="6.74539">
        <ele>434</ele>
        <time>2013-06-09T10:30:16.534Z</time>
      </trkpt>
      <trkpt lat="47.51262" lon="6.74546">
        <ele>434</ele>
        <time>2013-06-09T10:30:21.533Z</time>
      </trkpt>
      <trkpt lat="47.51252" lon="6.74556">
        <ele>433</ele>
        <time>2013-06-09T10:30:26.540Z</time>
      </trkpt>
      <trkpt lat="47.51239" lon="6.7457">
        <ele>432</ele>
        <time>2013-06-09T10:30:31.540Z</time>
      </trkpt>
      <trkpt lat="47.51228" lon="6.7458">
        <ele>432</ele>
        <time>2013-06-09T10:30:36.525Z</time>
      </trkpt>
      <trkpt lat="47.51216" lon="6.74585">
        <ele>431</ele>
        <time>2013-06-09T10:30:41.543Z</time>
      </trkpt>
      <trkpt lat="47.51209" lon="6.74599">
        <ele>431</ele>
        <time>2013-06-09T10:30:46.540Z</time>
      </trkpt>
      <trkpt lat="47.51201" lon="6.74618">
        <ele>429</ele>
        <time>2013-06-09T10:30:51.542Z</time>
      </trkpt>
      <trkpt lat="47.51192" lon="6.74634">
        <ele>428</ele>
        <time>2013-06-09T10:30:56.537Z</time>
      </trkpt>
      <trkpt lat="47.51183" lon="6.74643">
        <ele>426</ele>
        <time>2013-06-09T10:31:01.531Z</time>
      </trkpt>
      <trkpt lat="47.51168" lon="6.7466">
        <ele>425</ele>
        <time>2013-06-09T10:31:06.531Z</time>
      </trkpt>
      <trkpt lat="47.51156" lon="6.74682">
        <ele>424</ele>
        <time>2013-06-09T10:31:11.541Z</time>
      </trkpt>
      <trkpt lat="47.51151" lon="6.74701">
        <ele>424</ele>
        <time>2013-06-09T10:31:16.531Z</time>
      </trkpt>
      <trkpt lat="47.51148" lon="6.74719">
        <ele>422</ele>
        <time>2013-06-09T10:31:21.531Z</time>
      </trkpt>
      <trkpt lat="47.5115" lon="6.74742">
        <ele>420</ele>
        <time>2013-06-09T10:31:26.540Z</time>
      </trkpt>
      <trkpt lat="47.51149" lon="6.74759">
        <ele>418</ele>
        <time>2013-06-09T10:31:31.531Z</time>
      </trkpt>
      <trkpt lat="47.51148" lon="6.74776">
        <ele>416</ele>
        <time>2013-06-09T10:31:36.531Z</time>
      </trkpt>
      <trkpt lat="47.51142" lon="6.74779">
        <ele>415</ele>
        <time>2013-06-09T10:31:41.541Z</time>
      </trkpt>
      <trkpt lat="47.5113" lon="6.7478">
        <ele>413</ele>
        <time>2013-06-09T10:31:46.531Z</time>
      </trkpt>
      <trkpt lat="47.51122" lon="6.74784">
        <ele>412</ele>
        <time>2013-06-09T10:31:51.531Z</time>
      </trkpt>
      <trkpt lat="47.51112" lon="6.74786">
        <ele>413</ele>
        <time>2013-06-09T10:31:56.534Z</time>
      </trkpt>
      <trkpt lat="47.511" lon="6.7478">
        <ele>412</ele>
        <time>2013-06-09T10:32:01.531Z</time>
      </trkpt>
      <trkpt lat="47.51084" lon="6.74778">
        <ele>411</ele>
        <time>2013-06-09T10:32:06.536Z</time>
      </trkpt>
      <trkpt lat="47.51079" lon="6.74784">
        <ele>410</ele>
        <time>2013-06-09T10:32:11.541Z</time>
      </trkpt>
      <trkpt lat="47.51071" lon="6.74794">
        <ele>409</ele>
        <time>2013-06-09T10:32:16.540Z</time>
      </trkpt>
      <trkpt lat="47.51059" lon="6.74807">
        <ele>408</ele>
        <time>2013-06-09T10:32:21.530Z</time>
      </trkpt>
      <trkpt lat="47.51053" lon="6.74814">
        <ele>408</ele>
        <time>2013-06-09T10:32:26.513Z</time>
      </trkpt>
      <trkpt lat="47.51048" lon="6.74823">
        <ele>410</ele>
        <time>2013-06-09T10:32:36.531Z</time>
      </trkpt>
      <trkpt lat="47.51043" lon="6.74827">
        <ele>410</ele>
        <time>2013-06-09T10:32:41.541Z</time>
      </trkpt>
      <trkpt lat="47.5104" lon="6.7483">
        <ele>412</ele>
        <time>2013-06-09T10:32:46.541Z</time>
      </trkpt>
      <trkpt lat="47.51035" lon="6.74831">
        <ele>411</ele>
        <time>2013-06-09T10:32:51.531Z</time>
      </trkpt>
      <trkpt lat="47.5103" lon="6.74836">
        <ele>410</ele>
        <time>2013-06-09T10:32:56.540Z</time>
      </trkpt>
      <trkpt lat="47.51026" lon="6.74838">
        <ele>410</ele>
        <time>2013-06-09T10:33:01.531Z</time>
      </trkpt>
      <trkpt lat="47.51019" lon="6.74841">
        <ele>409</ele>
        <time>2013-06-09T10:33:06.530Z</time>
      </trkpt>
      <trkpt lat="47.51011" lon="6.74851">
        <ele>408</ele>
        <time>2013-06-09T10:33:11.544Z</time>
      </trkpt>
      <trkpt lat="47.51004" lon="6.74865">
        <ele>407</ele>
        <time>2013-06-09T10:33:16.538Z</time>
      </trkpt>
      <trkpt lat="47.50995" lon="6.74878">
        <ele>405</ele>
        <time>2013-06-09T10:33:21.530Z</time>
      </trkpt>
      <trkpt lat="47.50984" lon="6.74892">
        <ele>405</ele>
        <time>2013-06-09T10:33:26.531Z</time>
      </trkpt>
      <trkpt lat="47.50972" lon="6.74905">
        <ele>404</ele>
        <time>2013-06-09T10:33:31.531Z</time>
      </trkpt>
      <trkpt lat="47.5096" lon="6.74915">
        <ele>404</ele>
        <time>2013-06-09T10:33:36.538Z</time>
      </trkpt>
      <trkpt lat="47.50949" lon="6.74923">
        <ele>403</ele>
        <time>2013-06-09T10:33:41.541Z</time>
      </trkpt>
      <trkpt lat="47.50939" lon="6.74929">
        <ele>402</ele>
        <time>2013-06-09T10:33:46.531Z</time>
      </trkpt>
      <trkpt lat="47.5093" lon="6.74935">
        <ele>402</ele>
        <time>2013-06-09T10:33:51.537Z</time>
      </trkpt>
      <trkpt lat="47.50922" lon="6.74941">
        <ele>402</ele>
        <time>2013-06-09T10:33:56.540Z</time>
      </trkpt>
      <trkpt lat="47.50914" lon="6.74945">
        <ele>401</ele>
        <time>2013-06-09T10:34:01.522Z</time>
      </trkpt>
      <trkpt lat="47.50905" lon="6.7495">
        <ele>400</ele>
        <time>2013-06-09T10:34:06.533Z</time>
      </trkpt>
      <trkpt lat="47.50897" lon="6.74959">
        <ele>400</ele>
        <time>2013-06-09T10:34:11.544Z</time>
      </trkpt>
      <trkpt lat="47.50898" lon="6.74974">
        <ele>399</ele>
        <time>2013-06-09T10:34:16.531Z</time>
      </trkpt>
      <trkpt lat="47.50896" lon="6.74981">
        <ele>398</ele>
        <time>2013-06-09T10:34:21.531Z</time>
      </trkpt>
      <trkpt lat="47.50891" lon="6.74983">
        <ele>398</ele>
        <time>2013-06-09T10:34:26.531Z</time>
      </trkpt>
      <trkpt lat="47.50888" lon="6.7498">
        <ele>398</ele>
        <time>2013-06-09T10:34:31.528Z</time>
      </trkpt>
      <trkpt lat="47.50887" lon="6.74982">
        <ele>399</ele>
        <time>2013-06-09T10:34:36.532Z</time>
      </trkpt>
      <trkpt lat="47.50887" lon="6.74984">
        <ele>400</ele>
        <time>2013-06-09T10:34:41.541Z</time>
      </trkpt>
      <trkpt lat="47.5089" lon="6.74992">
        <ele>400</ele>
        <time>2013-06-09T10:34:46.537Z</time>
      </trkpt>
      <trkpt lat="47.5089" lon="6.74997">
        <ele>402</ele>
        <time>2013-06-09T10:34:51.538Z</time>
      </trkpt>
      <trkpt lat="47.50891" lon="6.75">
        <ele>403</ele>
        <time>2013-06-09T10:34:56.540Z</time>
      </trkpt>
      <trkpt lat="47.50855" lon="6.75097">
        <ele>394</ele>
        <time>2013-06-09T10:35:31.510Z</time>
      </trkpt>
      <trkpt lat="47.50852" lon="6.7511">
        <ele>393</ele>
        <time>2013-06-09T10:35:36.523Z</time>
      </trkpt>
      <trkpt lat="47.50854" lon="6.75121">
        <ele>394</ele>
        <time>2013-06-09T10:35:41.544Z</time>
      </trkpt>
      <trkpt lat="47.50856" lon="6.75139">
        <ele>393</ele>
        <time>2013-06-09T10:35:46.533Z</time>
      </trkpt>
      <trkpt lat="47.50859" lon="6.75159">
        <ele>392</ele>
        <time>2013-06-09T10:35:51.533Z</time>
      </trkpt>
      <trkpt lat="47.50861" lon="6.75176">
        <ele>391</ele>
        <time>2013-06-09T10:35:56.536Z</time>
      </trkpt>
      <trkpt lat="47.50865" lon="6.75196">
        <ele>389</ele>
        <time>2013-06-09T10:36:01.532Z</time>
      </trkpt>
      <trkpt lat="47.50875" lon="6.75221">
        <ele>385</ele>
        <time>2013-06-09T10:36:06.537Z</time>
      </trkpt>
      <trkpt lat="47.50893" lon="6.75222">
        <ele>383</ele>
        <time>2013-06-09T10:36:11.544Z</time>
      </trkpt>
      <trkpt lat="47.50911" lon="6.75216">
        <ele>382</ele>
        <time>2013-06-09T10:36:16.531Z</time>
      </trkpt>
      <trkpt lat="47.5093" lon="6.75205">
        <ele>382</ele>
        <time>2013-06-09T10:36:21.514Z</time>
      </trkpt>
      <trkpt lat="47.50965" lon="6.75224">
        <ele>380</ele>
        <time>2013-06-09T10:36:31.534Z</time>
      </trkpt>
      <trkpt lat="47.50979" lon="6.75243">
        <ele>380</ele>
        <time>2013-06-09T10:36:36.534Z</time>
      </trkpt>
      <trkpt lat="47.50991" lon="6.75261">
        <ele>380</ele>
        <time>2013-06-09T10:36:41.546Z</time>
      </trkpt>
      <trkpt lat="47.51003" lon="6.75276">
        <ele>380</ele>
        <time>2013-06-09T10:36:46.533Z</time>
      </trkpt>
      <trkpt lat="47.51014" lon="6.7529">
        <ele>379</ele>
        <time>2013-06-09T10:36:51.537Z</time>
      </trkpt>
      <trkpt lat="47.51014" lon="6.75307">
        <ele>379</ele>
        <time>2013-06-09T10:36:56.538Z</time>
      </trkpt>
      <trkpt lat="47.50995" lon="6.75346">
        <ele>378</ele>
        <time>2013-06-09T10:37:06.831Z</time>
      </trkpt>
      <trkpt lat="47.5099" lon="6.75365">
        <ele>378</ele>
        <time>2013-06-09T10:37:11.545Z</time>
      </trkpt>
      <trkpt lat="47.51" lon="6.75375">
        <ele>377</ele>
        <time>2013-06-09T10:37:16.536Z</time>
      </trkpt>
      <trkpt lat="47.51012" lon="6.75379">
        <ele>377</ele>
        <time>2013-06-09T10:37:21.529Z</time>
      </trkpt>
      <trkpt lat="47.51019" lon="6.75384">
        <ele>377</ele>
        <time>2013-06-09T10:37:26.529Z</time>
      </trkpt>
      <trkpt lat="47.51027" lon="6.75384">
        <ele>377</ele>
        <time>2013-06-09T10:37:31.530Z</time>
      </trkpt>
      <trkpt lat="47.51035" lon="6.75386">
        <ele>378</ele>
        <time>2013-06-09T10:37:36.531Z</time>
      </trkpt>
      <trkpt lat="47.51041" lon="6.75391">
        <ele>380</ele>
        <time>2013-06-09T10:37:41.544Z</time>
      </trkpt>
      <trkpt lat="47.51046" lon="6.75403">
        <ele>382</ele>
        <time>2013-06-09T10:37:46.530Z</time>
      </trkpt>
      <trkpt lat="47.51051" lon="6.75416">
        <ele>383</ele>
        <time>2013-06-09T10:37:51.530Z</time>
      </trkpt>
      <trkpt lat="47.51056" lon="6.75432">
        <ele>384</ele>
        <time>2013-06-09T10:37:56.531Z</time>
      </trkpt>
      <trkpt lat="47.51064" lon="6.75447">
        <ele>384</ele>
        <time>2013-06-09T10:38:01.537Z</time>
      </trkpt>
      <trkpt lat="47.51071" lon="6.75464">
        <ele>384</ele>
        <time>2013-06-09T10:38:06.534Z</time>
      </trkpt>
      <trkpt lat="47.51075" lon="6.75482">
        <ele>386</ele>
        <time>2013-06-09T10:38:11.538Z</time>
      </trkpt>
      <trkpt lat="47.5108" lon="6.75499">
        <ele>388</ele>
        <time>2013-06-09T10:38:16.536Z</time>
      </trkpt>
      <trkpt lat="47.51089" lon="6.75516">
        <ele>390</ele>
        <time>2013-06-09T10:38:21.524Z</time>
      </trkpt>
      <trkpt lat="47.51097" lon="6.75532">
        <ele>391</ele>
        <time>2013-06-09T10:38:26.528Z</time>
      </trkpt>
      <trkpt lat="47.51105" lon="6.75549">
        <ele>391</ele>
        <time>2013-06-09T10:38:31.512Z</time>
      </trkpt>
      <trkpt lat="47.51116" lon="6.75584">
        <ele>393</ele>
        <time>2013-06-09T10:38:41.539Z</time>
      </trkpt>
      <trkpt lat="47.51121" lon="6.75603">
        <ele>394</ele>
        <time>2013-06-09T10:38:46.528Z</time>
      </trkpt>
      <trkpt lat="47.51127" lon="6.75621">
        <ele>395</ele>
        <time>2013-06-09T10:38:51.529Z</time>
      </trkpt>
      <trkpt lat="47.51132" lon="6.75639">
        <ele>395</ele>
        <time>2013-06-09T10:38:56.528Z</time>
      </trkpt>
      <trkpt lat="47.51177" lon="6.75755">
        <ele>401</ele>
        <time>2013-06-09T10:39:31.513Z</time>
      </trkpt>
      <trkpt lat="47.51177" lon="6.75771">
        <ele>399</ele>
        <time>2013-06-09T10:39:36.520Z</time>
      </trkpt>
      <trkpt lat="47.51181" lon="6.75785">
        <ele>398</ele>
        <time>2013-06-09T10:39:41.538Z</time>
      </trkpt>
      <trkpt lat="47.51185" lon="6.75798">
        <ele>398</ele>
        <time>2013-06-09T10:39:46.537Z</time>
      </trkpt>
      <trkpt lat="47.51189" lon="6.75814">
        <ele>399</ele>
        <time>2013-06-09T10:39:51.537Z</time>
      </trkpt>
      <trkpt lat="47.5119" lon="6.75831">
        <ele>399</ele>
        <time>2013-06-09T10:39:56.535Z</time>
      </trkpt>
      <trkpt lat="47.51199" lon="6.75857">
        <ele>399</ele>
        <time>2013-06-09T10:40:06.540Z</time>
      </trkpt>
      <trkpt lat="47.51204" lon="6.75871">
        <ele>397</ele>
        <time>2013-06-09T10:40:11.546Z</time>
      </trkpt>
      <trkpt lat="47.51209" lon="6.75885">
        <ele>395</ele>
        <time>2013-06-09T10:40:16.529Z</time>
      </trkpt>
      <trkpt lat="47.51213" lon="6.75901">
        <ele>395</ele>
        <time>2013-06-09T10:40:21.529Z</time>
      </trkpt>
      <trkpt lat="47.51217" lon="6.75918">
        <ele>396</ele>
        <time>2013-06-09T10:40:26.535Z</time>
      </trkpt>
      <trkpt lat="47.51221" lon="6.75934">
        <ele>397</ele>
        <time>2013-06-09T10:40:31.536Z</time>
      </trkpt>
      <trkpt lat="47.51223" lon="6.75949">
        <ele>399</ele>
        <time>2013-06-09T10:40:36.536Z</time>
      </trkpt>
      <trkpt lat="47.51227" lon="6.75962">
        <ele>399</ele>
        <time>2013-06-09T10:40:41.539Z</time>
      </trkpt>
      <trkpt lat="47.51229" lon="6.75975">
        <ele>400</ele>
        <time>2013-06-09T10:40:46.529Z</time>
      </trkpt>
      <trkpt lat="47.51233" lon="6.75992">
        <ele>400</ele>
        <time>2013-06-09T10:40:51.537Z</time>
      </trkpt>
      <trkpt lat="47.51235" lon="6.76006">
        <ele>400</ele>
        <time>2013-06-09T10:40:56.533Z</time>
      </trkpt>
      <trkpt lat="47.51238" lon="6.76022">
        <ele>401</ele>
        <time>2013-06-09T10:41:01.530Z</time>
      </trkpt>
      <trkpt lat="47.51237" lon="6.76035">
        <ele>400</ele>
        <time>2013-06-09T10:41:06.530Z</time>
      </trkpt>
      <trkpt lat="47.5124" lon="6.76051">
        <ele>400</ele>
        <time>2013-06-09T10:41:11.538Z</time>
      </trkpt>
      <trkpt lat="47.51244" lon="6.76072">
        <ele>401</ele>
        <time>2013-06-09T10:41:16.531Z</time>
      </trkpt>
      <trkpt lat="47.51245" lon="6.76092">
        <ele>403</ele>
        <time>2013-06-09T10:41:21.528Z</time>
      </trkpt>
      <trkpt lat="47.51245" lon="6.7611">
        <ele>404</ele>
        <time>2013-06-09T10:41:26.529Z</time>
      </trkpt>
      <trkpt lat="47.51244" lon="6.76126">
        <ele>403</ele>
        <time>2013-06-09T10:41:31.529Z</time>
      </trkpt>
      <trkpt lat="47.51246" lon="6.76144">
        <ele>403</ele>
        <time>2013-06-09T10:41:36.529Z</time>
      </trkpt>
      <trkpt lat="47.51248" lon="6.76159">
        <ele>403</ele>
        <time>2013-06-09T10:41:41.539Z</time>
      </trkpt>
      <trkpt lat="47.51247" lon="6.76172">
        <ele>403</ele>
        <time>2013-06-09T10:41:46.529Z</time>
      </trkpt>
      <trkpt lat="47.5125" lon="6.7619">
        <ele>403</ele>
        <time>2013-06-09T10:41:51.531Z</time>
      </trkpt>
      <trkpt lat="47.51256" lon="6.76202">
        <ele>405</ele>
        <time>2013-06-09T10:41:56.529Z</time>
      </trkpt>
      <trkpt lat="47.51263" lon="6.76214">
        <ele>405</ele>
        <time>2013-06-09T10:42:01.528Z</time>
      </trkpt>
      <trkpt lat="47.5127" lon="6.76228">
        <ele>406</ele>
        <time>2013-06-09T10:42:06.528Z</time>
      </trkpt>
      <trkpt lat="47.51274" lon="6.76242">
        <ele>406</ele>
        <time>2013-06-09T10:42:11.541Z</time>
      </trkpt>
      <trkpt lat="47.51278" lon="6.76257">
        <ele>406</ele>
        <time>2013-06-09T10:42:16.528Z</time>
      </trkpt>
      <trkpt lat="47.51284" lon="6.76269">
        <ele>407</ele>
        <time>2013-06-09T10:42:21.529Z</time>
      </trkpt>
      <trkpt lat="47.51291" lon="6.76283">
        <ele>407</ele>
        <time>2013-06-09T10:42:26.536Z</time>
      </trkpt>
      <trkpt lat="47.51297" lon="6.76297">
        <ele>407</ele>
        <time>2013-06-09T10:42:31.529Z</time>
      </trkpt>
      <trkpt lat="47.51302" lon="6.76311">
        <ele>407</ele>
        <time>2013-06-09T10:42:36.540Z</time>
      </trkpt>
      <trkpt lat="47.51308" lon="6.76324">
        <ele>408</ele>
        <time>2013-06-09T10:42:41.538Z</time>
      </trkpt>
      <trkpt lat="47.51312" lon="6.76338">
        <ele>409</ele>
        <time>2013-06-09T10:42:46.531Z</time>
      </trkpt>
      <trkpt lat="47.51318" lon="6.76347">
        <ele>410</ele>
        <time>2013-06-09T10:42:51.531Z</time>
      </trkpt>
      <trkpt lat="47.51322" lon="6.76359">
        <ele>410</ele>
        <time>2013-06-09T10:42:56.531Z</time>
      </trkpt>
      <trkpt lat="47.51327" lon="6.76373">
        <ele>410</ele>
        <time>2013-06-09T10:43:01.528Z</time>
      </trkpt>
      <trkpt lat="47.51332" lon="6.76384">
        <ele>411</ele>
        <time>2013-06-09T10:43:06.532Z</time>
      </trkpt>
      <trkpt lat="47.51338" lon="6.76398">
        <ele>412</ele>
        <time>2013-06-09T10:43:11.545Z</time>
      </trkpt>
      <trkpt lat="47.51342" lon="6.76413">
        <ele>412</ele>
        <time>2013-06-09T10:43:16.536Z</time>
      </trkpt>
      <trkpt lat="47.51345" lon="6.76427">
        <ele>414</ele>
        <time>2013-06-09T10:43:21.532Z</time>
      </trkpt>
      <trkpt lat="47.51351" lon="6.76441">
        <ele>415</ele>
        <time>2013-06-09T10:43:26.528Z</time>
      </trkpt>
      <trkpt lat="47.51359" lon="6.76445">
        <ele>415</ele>
        <time>2013-06-09T10:43:31.534Z</time>
      </trkpt>
      <trkpt lat="47.51366" lon="6.76446">
        <ele>417</ele>
        <time>2013-06-09T10:43:36.528Z</time>
      </trkpt>
      <trkpt lat="47.5137" lon="6.76446">
        <ele>417</ele>
        <time>2013-06-09T10:43:41.549Z</time>
      </trkpt>
      <trkpt lat="47.51375" lon="6.76445">
        <ele>418</ele>
        <time>2013-06-09T10:43:46.509Z</time>
      </trkpt>
      <trkpt lat="47.5139" lon="6.76433">
        <ele>413</ele>
        <time>2013-06-09T10:43:56.528Z</time>
      </trkpt>
      <trkpt lat="47.51398" lon="6.76426">
        <ele>410</ele>
        <time>2013-06-09T10:44:01.529Z</time>
      </trkpt>
      <trkpt lat="47.51401" lon="6.76424">
        <ele>408</ele>
        <time>2013-06-09T10:44:06.531Z</time>
      </trkpt>
      <trkpt lat="47.51407" lon="6.76424">
        <ele>409</ele>
        <time>2013-06-09T10:44:11.538Z</time>
      </trkpt>
      <trkpt lat="47.51411" lon="6.76424">
        <ele>410</ele>
        <time>2013-06-09T10:44:16.536Z</time>
      </trkpt>
      <trkpt lat="47.51413" lon="6.76417">
        <ele>409</ele>
        <time>2013-06-09T10:44:21.528Z</time>
      </trkpt>
      <trkpt lat="47.51417" lon="6.76414">
        <ele>410</ele>
        <time>2013-06-09T10:44:26.538Z</time>
      </trkpt>
      <trkpt lat="47.5142" lon="6.7641">
        <ele>409</ele>
        <time>2013-06-09T10:44:31.536Z</time>
      </trkpt>
      <trkpt lat="47.51424" lon="6.7641">
        <ele>411</ele>
        <time>2013-06-09T10:44:36.535Z</time>
      </trkpt>
      <trkpt lat="47.51429" lon="6.76409">
        <ele>414</ele>
        <time>2013-06-09T10:44:41.548Z</time>
      </trkpt>
      <trkpt lat="47.51429" lon="6.7641">
        <ele>415</ele>
        <time>2013-06-09T10:44:46.529Z</time>
      </trkpt>
      <trkpt lat="47.5143" lon="6.76411">
        <ele>417</ele>
        <time>2013-06-09T10:44:51.528Z</time>
      </trkpt>
      <trkpt lat="47.51434" lon="6.76413">
        <ele>419</ele>
        <time>2013-06-09T10:44:56.529Z</time>
      </trkpt>
      <trkpt lat="47.51441" lon="6.76415">
        <ele>421</ele>
        <time>2013-06-09T10:45:01.530Z</time>
      </trkpt>
      <trkpt lat="47.51445" lon="6.76412">
        <ele>422</ele>
        <time>2013-06-09T10:45:06.520Z</time>
      </trkpt>
      <trkpt lat="47.51449" lon="6.76409">
        <ele>422</ele>
        <time>2013-06-09T10:45:11.540Z</time>
      </trkpt>
      <trkpt lat="47.51454" lon="6.76406">
        <ele>424</ele>
        <time>2013-06-09T10:45:16.538Z</time>
      </trkpt>
      <trkpt lat="47.51461" lon="6.76403">
        <ele>424</ele>
        <time>2013-06-09T10:45:21.529Z</time>
      </trkpt>
      <trkpt lat="47.51468" lon="6.76399">
        <ele>426</ele>
        <time>2013-06-09T10:45:26.638Z</time>
      </trkpt>
      <trkpt lat="47.51472" lon="6.76395">
        <ele>428</ele>
        <time>2013-06-09T10:45:31.637Z</time>
      </trkpt>
      <trkpt lat="47.51479" lon="6.76394">
        <ele>429</ele>
        <time>2013-06-09T10:45:36.529Z</time>
      </trkpt>
      <trkpt lat="47.51487" lon="6.76392">
        <ele>429</ele>
        <time>2013-06-09T10:45:41.672Z</time>
      </trkpt>
      <trkpt lat="47.51493" lon="6.76392">
        <ele>428</ele>
        <time>2013-06-09T10:45:46.646Z</time>
      </trkpt>
      <trkpt lat="47.51498" lon="6.76393">
        <ele>430</ele>
        <time>2013-06-09T10:45:51.629Z</time>
      </trkpt>
      <trkpt lat="47.515" lon="6.76394">
        <ele>429</ele>
        <time>2013-06-09T10:45:56.629Z</time>
      </trkpt>
      <trkpt lat="47.51502" lon="6.76397">
        <ele>428</ele>
        <time>2013-06-09T10:46:01.635Z</time>
      </trkpt>
      <trkpt lat="47.51509" lon="6.76398">
        <ele>429</ele>
        <time>2013-06-09T10:46:06.629Z</time>
      </trkpt>
      <trkpt lat="47.51516" lon="6.76399">
        <ele>429</ele>
        <time>2013-06-09T10:46:11.629Z</time>
      </trkpt>
      <trkpt lat="47.5152" lon="6.76396">
        <ele>427</ele>
        <time>2013-06-09T10:46:16.649Z</time>
      </trkpt>
      <trkpt lat="47.51524" lon="6.76392">
        <ele>426</ele>
        <time>2013-06-09T10:46:21.631Z</time>
      </trkpt>
      <trkpt lat="47.51528" lon="6.76384">
        <ele>426</ele>
        <time>2013-06-09T10:46:26.631Z</time>
      </trkpt>
      <trkpt lat="47.51531" lon="6.7638">
        <ele>427</ele>
        <time>2013-06-09T10:46:31.640Z</time>
      </trkpt>
      <trkpt lat="47.5153" lon="6.76378">
        <ele>428</ele>
        <time>2013-06-09T10:46:36.641Z</time>
      </trkpt>
      <trkpt lat="47.51531" lon="6.76372">
        <ele>429</ele>
        <time>2013-06-09T10:46:41.629Z</time>
      </trkpt>
      <trkpt lat="47.51538" lon="6.76369">
        <ele>432</ele>
        <time>2013-06-09T10:46:46.645Z</time>
      </trkpt>
      <trkpt lat="47.51546" lon="6.76366">
        <ele>433</ele>
        <time>2013-06-09T10:46:51.628Z</time>
      </trkpt>
      <trkpt lat="47.51554" lon="6.76366">
        <ele>434</ele>
        <time>2013-06-09T10:46:56.629Z</time>
      </trkpt>
      <trkpt lat="47.51559" lon="6.76367">
        <ele>434</ele>
        <time>2013-06-09T10:47:01.629Z</time>
      </trkpt>
      <trkpt lat="47.51562" lon="6.76366">
        <ele>435</ele>
        <time>2013-06-09T10:47:06.629Z</time>
      </trkpt>
      <trkpt lat="47.51568" lon="6.76367">
        <ele>438</ele>
        <time>2013-06-09T10:47:11.629Z</time>
      </trkpt>
      <trkpt lat="47.5157" lon="6.76367">
        <ele>439</ele>
        <time>2013-06-09T10:47:16.649Z</time>
      </trkpt>
      <trkpt lat="47.51575" lon="6.76362">
        <ele>437</ele>
        <time>2013-06-09T10:47:21.636Z</time>
      </trkpt>
      <trkpt lat="47.51579" lon="6.76356">
        <ele>437</ele>
        <time>2013-06-09T10:47:26.636Z</time>
      </trkpt>
      <trkpt lat="47.51581" lon="6.7635">
        <ele>435</ele>
        <time>2013-06-09T10:47:31.636Z</time>
      </trkpt>
      <trkpt lat="47.51588" lon="6.76349">
        <ele>435</ele>
        <time>2013-06-09T10:47:36.641Z</time>
      </trkpt>
      <trkpt lat="47.51593" lon="6.76346">
        <ele>435</ele>
        <time>2013-06-09T10:47:41.636Z</time>
      </trkpt>
      <trkpt lat="47.51597" lon="6.76347">
        <ele>433</ele>
        <time>2013-06-09T10:47:46.648Z</time>
      </trkpt>
      <trkpt lat="47.51603" lon="6.7635">
        <ele>434</ele>
        <time>2013-06-09T10:47:51.639Z</time>
      </trkpt>
      <trkpt lat="47.51604" lon="6.76353">
        <ele>432</ele>
        <time>2013-06-09T10:47:56.643Z</time>
      </trkpt>
      <trkpt lat="47.51605" lon="6.76353">
        <ele>433</ele>
        <time>2013-06-09T10:48:01.641Z</time>
      </trkpt>
      <trkpt lat="47.51605" lon="6.76354">
        <ele>434</ele>
        <time>2013-06-09T10:48:06.628Z</time>
      </trkpt>
      <trkpt lat="47.51605" lon="6.76353">
        <ele>435</ele>
        <time>2013-06-09T10:48:11.630Z</time>
      </trkpt>
      <trkpt lat="47.51611" lon="6.76355">
        <ele>436</ele>
        <time>2013-06-09T10:48:16.644Z</time>
      </trkpt>
      <trkpt lat="47.51617" lon="6.76356">
        <ele>436</ele>
        <time>2013-06-09T10:48:21.633Z</time>
      </trkpt>
      <trkpt lat="47.51619" lon="6.76358">
        <ele>435</ele>
        <time>2013-06-09T10:48:26.638Z</time>
      </trkpt>
      <trkpt lat="47.51622" lon="6.76358">
        <ele>436</ele>
        <time>2013-06-09T10:48:31.640Z</time>
      </trkpt>
      <trkpt lat="47.51628" lon="6.76358">
        <ele>435</ele>
        <time>2013-06-09T10:48:36.628Z</time>
      </trkpt>
      <trkpt lat="47.51634" lon="6.76355">
        <ele>435</ele>
        <time>2013-06-09T10:48:41.629Z</time>
      </trkpt>
      <trkpt lat="47.51635" lon="6.76353">
        <ele>435</ele>
        <time>2013-06-09T10:48:46.644Z</time>
      </trkpt>
      <trkpt lat="47.51638" lon="6.76351">
        <ele>434</ele>
        <time>2013-06-09T10:48:51.635Z</time>
      </trkpt>
      <trkpt lat="47.51641" lon="6.7635">
        <ele>434</ele>
        <time>2013-06-09T10:48:56.636Z</time>
      </trkpt>
      <trkpt lat="47.51646" lon="6.76347">
        <ele>433</ele>
        <time>2013-06-09T10:49:01.617Z</time>
      </trkpt>
      <trkpt lat="47.51655" lon="6.76343">
        <ele>433</ele>
        <time>2013-06-09T10:49:11.632Z</time>
      </trkpt>
      <trkpt lat="47.51653" lon="6.76344">
        <ele>431</ele>
        <time>2013-06-09T10:49:16.644Z</time>
      </trkpt>
      <trkpt lat="47.51654" lon="6.76344">
        <ele>431</ele>
        <time>2013-06-09T10:49:21.632Z</time>
      </trkpt>
      <trkpt lat="47.51657" lon="6.76341">
        <ele>430</ele>
        <time>2013-06-09T10:49:26.634Z</time>
      </trkpt>
      <trkpt lat="47.51663" lon="6.76332">
        <ele>429</ele>
        <time>2013-06-09T10:49:31.637Z</time>
      </trkpt>
      <trkpt lat="47.51669" lon="6.76331">
        <ele>431</ele>
        <time>2013-06-09T10:49:36.639Z</time>
      </trkpt>
      <trkpt lat="47.51676" lon="6.76328">
        <ele>432</ele>
        <time>2013-06-09T10:49:41.634Z</time>
      </trkpt>
      <trkpt lat="47.51686" lon="6.76324">
        <ele>433</ele>
        <time>2013-06-09T10:49:46.642Z</time>
      </trkpt>
      <trkpt lat="47.51695" lon="6.76322">
        <ele>433</ele>
        <time>2013-06-09T10:49:51.635Z</time>
      </trkpt>
      <trkpt lat="47.51703" lon="6.76321">
        <ele>432</ele>
        <time>2013-06-09T10:49:56.622Z</time>
      </trkpt>
      <trkpt lat="47.51709" lon="6.76317">
        <ele>432</ele>
        <time>2013-06-09T10:50:01.638Z</time>
      </trkpt>
      <trkpt lat="47.5172" lon="6.76313">
        <ele>433</ele>
        <time>2013-06-09T10:50:06.631Z</time>
      </trkpt>
      <trkpt lat="47.51727" lon="6.76313">
        <ele>434</ele>
        <time>2013-06-09T10:50:11.631Z</time>
      </trkpt>
      <trkpt lat="47.51728" lon="6.76314">
        <ele>434</ele>
        <time>2013-06-09T10:50:16.641Z</time>
      </trkpt>
      <trkpt lat="47.5173" lon="6.76316">
        <ele>436</ele>
        <time>2013-06-09T10:50:21.631Z</time>
      </trkpt>
      <trkpt lat="47.51731" lon="6.76315">
        <ele>435</ele>
        <time>2013-06-09T10:50:26.632Z</time>
      </trkpt>
      <trkpt lat="47.51734" lon="6.76314">
        <ele>437</ele>
        <time>2013-06-09T10:50:31.632Z</time>
      </trkpt>
      <trkpt lat="47.51736" lon="6.76308">
        <ele>437</ele>
        <time>2013-06-09T10:50:36.631Z</time>
      </trkpt>
      <trkpt lat="47.51739" lon="6.76306">
        <ele>436</ele>
        <time>2013-06-09T10:50:41.644Z</time>
      </trkpt>
      <trkpt lat="47.51745" lon="6.76308">
        <ele>438</ele>
        <time>2013-06-09T10:50:46.640Z</time>
      </trkpt>
      <trkpt lat="47.51748" lon="6.76308">
        <ele>440</ele>
        <time>2013-06-09T10:50:51.633Z</time>
      </trkpt>
      <trkpt lat="47.51752" lon="6.76302">
        <ele>439</ele>
        <time>2013-06-09T10:50:56.631Z</time>
      </trkpt>
      <trkpt lat="47.5176" lon="6.76298">
        <ele>437</ele>
        <time>2013-06-09T10:51:01.634Z</time>
      </trkpt>
      <trkpt lat="47.51769" lon="6.76295">
        <ele>435</ele>
        <time>2013-06-09T10:51:06.631Z</time>
      </trkpt>
      <trkpt lat="47.51782" lon="6.76297">
        <ele>434</ele>
        <time>2013-06-09T10:51:11.633Z</time>
      </trkpt>
      <trkpt lat="47.51786" lon="6.76309">
        <ele>433</ele>
        <time>2013-06-09T10:51:16.646Z</time>
      </trkpt>
      <trkpt lat="47.51779" lon="6.76327">
        <ele>432</ele>
        <time>2013-06-09T10:51:21.639Z</time>
      </trkpt>
      <trkpt lat="47.51777" lon="6.76341">
        <ele>430</ele>
        <time>2013-06-09T10:51:26.632Z</time>
      </trkpt>
      <trkpt lat="47.51793" lon="6.76352">
        <ele>430</ele>
        <time>2013-06-09T10:51:31.640Z</time>
      </trkpt>
      <trkpt lat="47.51807" lon="6.76359">
        <ele>431</ele>
        <time>2013-06-09T10:51:36.631Z</time>
      </trkpt>
      <trkpt lat="47.51819" lon="6.76364">
        <ele>432</ele>
        <time>2013-06-09T10:51:41.632Z</time>
      </trkpt>
      <trkpt lat="47.51834" lon="6.76371">
        <ele>433</ele>
        <time>2013-06-09T10:51:46.639Z</time>
      </trkpt>
      <trkpt lat="47.51847" lon="6.76373">
        <ele>433</ele>
        <time>2013-06-09T10:51:51.631Z</time>
      </trkpt>
      <trkpt lat="47.51861" lon="6.76365">
        <ele>433</ele>
        <time>2013-06-09T10:51:56.628Z</time>
      </trkpt>
      <trkpt lat="47.51872" lon="6.76365">
        <ele>432</ele>
        <time>2013-06-09T10:52:01.632Z</time>
      </trkpt>
      <trkpt lat="47.51884" lon="6.76367">
        <ele>431</ele>
        <time>2013-06-09T10:52:06.629Z</time>
      </trkpt>
      <trkpt lat="47.51894" lon="6.76364">
        <ele>432</ele>
        <time>2013-06-09T10:52:11.631Z</time>
      </trkpt>
      <trkpt lat="47.51901" lon="6.76361">
        <ele>432</ele>
        <time>2013-06-09T10:52:16.636Z</time>
      </trkpt>
      <trkpt lat="47.51911" lon="6.76362">
        <ele>432</ele>
        <time>2013-06-09T10:52:21.630Z</time>
      </trkpt>
      <trkpt lat="47.51919" lon="6.76364">
        <ele>431</ele>
        <time>2013-06-09T10:52:26.632Z</time>
      </trkpt>
      <trkpt lat="47.51927" lon="6.76361">
        <ele>431</ele>
        <time>2013-06-09T10:52:31.640Z</time>
      </trkpt>
      <trkpt lat="47.51938" lon="6.76363">
        <ele>431</ele>
        <time>2013-06-09T10:52:36.640Z</time>
      </trkpt>
      <trkpt lat="47.51949" lon="6.76378">
        <ele>432</ele>
        <time>2013-06-09T10:52:41.631Z</time>
      </trkpt>
      <trkpt lat="47.51955" lon="6.76396">
        <ele>431</ele>
        <time>2013-06-09T10:52:46.639Z</time>
      </trkpt>
      <trkpt lat="47.51948" lon="6.76414">
        <ele>431</ele>
        <time>2013-06-09T10:52:51.633Z</time>
      </trkpt>
      <trkpt lat="47.5194" lon="6.76438">
        <ele>431</ele>
        <time>2013-06-09T10:52:56.635Z</time>
      </trkpt>
      <trkpt lat="47.51932" lon="6.76466">
        <ele>431</ele>
        <time>2013-06-09T10:53:01.633Z</time>
      </trkpt>
      <trkpt lat="47.51921" lon="6.76499">
        <ele>429</ele>
        <time>2013-06-09T10:53:06.631Z</time>
      </trkpt>
      <trkpt lat="47.51909" lon="6.76535">
        <ele>428</ele>
        <time>2013-06-09T10:53:11.631Z</time>
      </trkpt>
      <trkpt lat="47.51896" lon="6.76572">
        <ele>427</ele>
        <time>2013-06-09T10:53:16.643Z</time>
      </trkpt>
      <trkpt lat="47.51884" lon="6.7661">
        <ele>426</ele>
        <time>2013-06-09T10:53:21.631Z</time>
      </trkpt>
      <trkpt lat="47.51877" lon="6.76647">
        <ele>426</ele>
        <time>2013-06-09T10:53:26.632Z</time>
      </trkpt>
      <trkpt lat="47.51871" lon="6.7668">
        <ele>425</ele>
        <time>2013-06-09T10:53:31.640Z</time>
      </trkpt>
      <trkpt lat="47.51866" lon="6.76713">
        <ele>424</ele>
        <time>2013-06-09T10:53:36.638Z</time>
      </trkpt>
      <trkpt lat="47.51858" lon="6.76749">
        <ele>424</ele>
        <time>2013-06-09T10:53:41.631Z</time>
      </trkpt>
      <trkpt lat="47.51851" lon="6.76787">
        <ele>423</ele>
        <time>2013-06-09T10:53:46.645Z</time>
      </trkpt>
      <trkpt lat="47.51845" lon="6.76827">
        <ele>422</ele>
        <time>2013-06-09T10:53:51.634Z</time>
      </trkpt>
      <trkpt lat="47.51837" lon="6.76869">
        <ele>421</ele>
        <time>2013-06-09T10:53:56.637Z</time>
      </trkpt>
      <trkpt lat="47.51831" lon="6.76906">
        <ele>420</ele>
        <time>2013-06-09T10:54:01.638Z</time>
      </trkpt>
      <trkpt lat="47.51827" lon="6.76937">
        <ele>420</ele>
        <time>2013-06-09T10:54:06.632Z</time>
      </trkpt>
      <trkpt lat="47.51821" lon="6.76965">
        <ele>419</ele>
        <time>2013-06-09T10:54:11.630Z</time>
      </trkpt>
      <trkpt lat="47.51816" lon="6.76995">
        <ele>419</ele>
        <time>2013-06-09T10:54:16.641Z</time>
      </trkpt>
      <trkpt lat="47.5181" lon="6.7702">
        <ele>419</ele>
        <time>2013-06-09T10:54:21.628Z</time>
      </trkpt>
      <trkpt lat="47.51804" lon="6.77043">
        <ele>420</ele>
        <time>2013-06-09T10:54:26.632Z</time>
      </trkpt>
      <trkpt lat="47.518" lon="6.77065">
        <ele>420</ele>
        <time>2013-06-09T10:54:31.614Z</time>
      </trkpt>
      <trkpt lat="47.51795" lon="6.77106">
        <ele>422</ele>
        <time>2013-06-09T10:54:41.630Z</time>
      </trkpt>
      <trkpt lat="47.51791" lon="6.77127">
        <ele>422</ele>
        <time>2013-06-09T10:54:46.649Z</time>
      </trkpt>
      <trkpt lat="47.51788" lon="6.77147">
        <ele>423</ele>
        <time>2013-06-09T10:54:51.631Z</time>
      </trkpt>
      <trkpt lat="47.51785" lon="6.77166">
        <ele>424</ele>
        <time>2013-06-09T10:54:56.632Z</time>
      </trkpt>
      <trkpt lat="47.51781" lon="6.77185">
        <ele>425</ele>
        <time>2013-06-09T10:55:01.640Z</time>
      </trkpt>
      <trkpt lat="47.51777" lon="6.77202">
        <ele>426</ele>
        <time>2013-06-09T10:55:06.633Z</time>
      </trkpt>
      <trkpt lat="47.51775" lon="6.77218">
        <ele>427</ele>
        <time>2013-06-09T10:55:11.634Z</time>
      </trkpt>
      <trkpt lat="47.51771" lon="6.77235">
        <ele>427</ele>
        <time>2013-06-09T10:55:16.643Z</time>
      </trkpt>
      <trkpt lat="47.51769" lon="6.77254">
        <ele>428</ele>
        <time>2013-06-09T10:55:21.630Z</time>
      </trkpt>
      <trkpt lat="47.51766" lon="6.77271">
        <ele>428</ele>
        <time>2013-06-09T10:55:26.627Z</time>
      </trkpt>
      <trkpt lat="47.51762" lon="6.77291">
        <ele>429</ele>
        <time>2013-06-09T10:55:31.629Z</time>
      </trkpt>
      <trkpt lat="47.51759" lon="6.77309">
        <ele>430</ele>
        <time>2013-06-09T10:55:36.637Z</time>
      </trkpt>
      <trkpt lat="47.51756" lon="6.77328">
        <ele>431</ele>
        <time>2013-06-09T10:55:41.633Z</time>
      </trkpt>
      <trkpt lat="47.51752" lon="6.77346">
        <ele>432</ele>
        <time>2013-06-09T10:55:46.642Z</time>
      </trkpt>
      <trkpt lat="47.51749" lon="6.77365">
        <ele>433</ele>
        <time>2013-06-09T10:55:51.635Z</time>
      </trkpt>
      <trkpt lat="47.51744" lon="6.77388">
        <ele>434</ele>
        <time>2013-06-09T10:55:56.639Z</time>
      </trkpt>
      <trkpt lat="47.5174" lon="6.7741">
        <ele>434</ele>
        <time>2013-06-09T10:56:01.632Z</time>
      </trkpt>
      <trkpt lat="47.51737" lon="6.77432">
        <ele>434</ele>
        <time>2013-06-09T10:56:06.634Z</time>
      </trkpt>
      <trkpt lat="47.51733" lon="6.77453">
        <ele>434</ele>
        <time>2013-06-09T10:56:11.630Z</time>
      </trkpt>
      <trkpt lat="47.51736" lon="6.77476">
        <ele>435</ele>
        <time>2013-06-09T10:56:16.642Z</time>
      </trkpt>
      <trkpt lat="47.5175" lon="6.77483">
        <ele>436</ele>
        <time>2013-06-09T10:56:21.636Z</time>
      </trkpt>
      <trkpt lat="47.51769" lon="6.77487">
        <ele>437</ele>
        <time>2013-06-09T10:56:27.192Z</time>
      </trkpt>
      <trkpt lat="47.51789" lon="6.77492">
        <ele>437</ele>
        <time>2013-06-09T10:56:31.638Z</time>
      </trkpt>
      <trkpt lat="47.51809" lon="6.77496">
        <ele>438</ele>
        <time>2013-06-09T10:56:36.631Z</time>
      </trkpt>
      <trkpt lat="47.51802" lon="6.7748">
        <ele>438</ele>
        <time>2013-06-09T10:56:41.629Z</time>
      </trkpt>
      <trkpt lat="47.51796" lon="6.77476">
        <ele>438</ele>
        <time>2013-06-09T10:56:46.639Z</time>
      </trkpt>
      <trkpt lat="47.51795" lon="6.77476">
        <ele>439</ele>
        <time>2013-06-09T10:56:51.638Z</time>
      </trkpt>
      <trkpt lat="47.51795" lon="6.77476">
        <ele>440</ele>
        <time>2013-06-09T10:56:56.627Z</time>
      </trkpt>
      <trkpt lat="47.51794" lon="6.77475">
        <ele>441</ele>
        <time>2013-06-09T10:57:01.627Z</time>
      </trkpt>
      <trkpt lat="47.51794" lon="6.77475">
        <ele>441</ele>
        <time>2013-06-09T10:57:06.626Z</time>
      </trkpt>
      <trkpt lat="47.51794" lon="6.77476">
        <ele>441</ele>
        <time>2013-06-09T10:57:11.626Z</time>
      </trkpt>
      <trkpt lat="47.51795" lon="6.77476">
        <ele>442</ele>
        <time>2013-06-09T10:57:16.634Z</time>
      </trkpt>
      <trkpt lat="47.51794" lon="6.77477">
        <ele>442</ele>
        <time>2013-06-09T10:57:21.608Z</time>
      </trkpt>
      <trkpt lat="47.51794" lon="6.77478">
        <ele>442</ele>
        <time>2013-06-09T10:57:26.609Z</time>
      </trkpt>
    </trkseg>
  </trk>
</gpx>